<?xml version="1.0" encoding="UTF-8" standalone="yes"?>
<gpx creator="DDAAXX TCX Extractor and Converter" xmlns:st="urn:uuid:D0EB2ED5-49B6-44e3-B13C-CF15BE7DD7DD" version="1.1" xmlns="http://www.topografix.com/GPX/1/1" xmlns:xsi="http://www.w3.org/2001/XMLSchema-instance" xsi:schemaLocation="http://www.topografix.com/GPX/1/1 http://www.topografix.com/GPX/1/1/gpx.xsd">
  <trk>
    <number>1</number>
    <name>rund um Schiffe</name>
    <trkseg>
      <trkpt lat="46.6025" lon="7.092463">
        <ele>695</ele>
        <time>2014-06-05T16:20:16Z</time>
      </trkpt>
      <trkpt lat="46.6025" lon="7.092463">
        <ele>695</ele>
        <time>2014-06-05T16:20:18Z</time>
      </trkpt>
      <trkpt lat="46.602553" lon="7.092255">
        <ele>695</ele>
        <time>2014-06-05T16:21:59Z</time>
      </trkpt>
      <trkpt lat="46.602789" lon="7.092152">
        <ele>695</ele>
        <time>2014-06-05T16:22:09Z</time>
      </trkpt>
      <trkpt lat="46.602951" lon="7.091941">
        <ele>704</ele>
        <time>2014-06-05T16:22:18Z</time>
      </trkpt>
      <trkpt lat="46.602994" lon="7.091874">
        <ele>711</ele>
        <time>2014-06-05T16:22:21Z</time>
      </trkpt>
      <trkpt lat="46.603133" lon="7.091432">
        <ele>711</ele>
        <time>2014-06-05T16:22:32Z</time>
      </trkpt>
      <trkpt lat="46.603084" lon="7.091088">
        <ele>720</ele>
        <time>2014-06-05T16:22:40Z</time>
      </trkpt>
      <trkpt lat="46.603042" lon="7.090878">
        <ele>720</ele>
        <time>2014-06-05T16:22:45Z</time>
      </trkpt>
      <trkpt lat="46.603081" lon="7.090609">
        <ele>720</ele>
        <time>2014-06-05T16:22:53Z</time>
      </trkpt>
      <trkpt lat="46.603164" lon="7.090426">
        <ele>725</ele>
        <time>2014-06-05T16:22:59Z</time>
      </trkpt>
      <trkpt lat="46.60325" lon="7.090173">
        <ele>725</ele>
        <time>2014-06-05T16:23:08Z</time>
      </trkpt>
      <trkpt lat="46.603303" lon="7.089674">
        <ele>725</ele>
        <time>2014-06-05T16:23:23Z</time>
      </trkpt>
      <trkpt lat="46.603303" lon="7.089674">
        <ele>725</ele>
        <time>2014-06-05T16:23:28Z</time>
      </trkpt>
      <trkpt lat="46.603303" lon="7.089674">
        <ele>725</ele>
        <time>2014-06-05T16:23:28Z</time>
      </trkpt>
      <trkpt lat="46.603303" lon="7.089674">
        <ele>725</ele>
        <time>2014-06-05T16:23:43Z</time>
      </trkpt>
      <trkpt lat="46.603386" lon="7.089465">
        <ele>723</ele>
        <time>2014-06-05T16:23:43Z</time>
      </trkpt>
      <trkpt lat="46.603524" lon="7.089275">
        <ele>723</ele>
        <time>2014-06-05T16:23:50Z</time>
      </trkpt>
      <trkpt lat="46.603735" lon="7.089134">
        <ele>723</ele>
        <time>2014-06-05T16:23:58Z</time>
      </trkpt>
      <trkpt lat="46.603931" lon="7.089259">
        <ele>738</ele>
        <time>2014-06-05T16:24:07Z</time>
      </trkpt>
      <trkpt lat="46.604186" lon="7.089431">
        <ele>738</ele>
        <time>2014-06-05T16:24:18Z</time>
      </trkpt>
      <trkpt lat="46.604364" lon="7.089404">
        <ele>738</ele>
        <time>2014-06-05T16:24:27Z</time>
      </trkpt>
      <trkpt lat="46.604594" lon="7.089143">
        <ele>738</ele>
        <time>2014-06-05T16:24:38Z</time>
      </trkpt>
      <trkpt lat="46.604831" lon="7.088983">
        <ele>745</ele>
        <time>2014-06-05T16:24:46Z</time>
      </trkpt>
      <trkpt lat="46.605" lon="7.088808">
        <ele>745</ele>
        <time>2014-06-05T16:24:52Z</time>
      </trkpt>
      <trkpt lat="46.605372" lon="7.088454">
        <ele>745</ele>
        <time>2014-06-05T16:24:58Z</time>
      </trkpt>
      <trkpt lat="46.6056" lon="7.087964">
        <ele>742</ele>
        <time>2014-06-05T16:25:05Z</time>
      </trkpt>
      <trkpt lat="46.605683" lon="7.087648">
        <ele>742</ele>
        <time>2014-06-05T16:25:12Z</time>
      </trkpt>
      <trkpt lat="46.60586" lon="7.087166">
        <ele>740</ele>
        <time>2014-06-05T16:25:20Z</time>
      </trkpt>
      <trkpt lat="46.605992" lon="7.08691">
        <ele>740</ele>
        <time>2014-06-05T16:25:25Z</time>
      </trkpt>
      <trkpt lat="46.606194" lon="7.086608">
        <ele>740</ele>
        <time>2014-06-05T16:25:30Z</time>
      </trkpt>
      <trkpt lat="46.606341" lon="7.086381">
        <ele>739</ele>
        <time>2014-06-05T16:25:35Z</time>
      </trkpt>
      <trkpt lat="46.606477" lon="7.086121">
        <ele>739</ele>
        <time>2014-06-05T16:25:40Z</time>
      </trkpt>
      <trkpt lat="46.606611" lon="7.085775">
        <ele>739</ele>
        <time>2014-06-05T16:25:46Z</time>
      </trkpt>
      <trkpt lat="46.606706" lon="7.085531">
        <ele>739</ele>
        <time>2014-06-05T16:25:51Z</time>
      </trkpt>
      <trkpt lat="46.606762" lon="7.085382">
        <ele>752</ele>
        <time>2014-06-05T16:25:54Z</time>
      </trkpt>
      <trkpt lat="46.606955" lon="7.085237">
        <ele>752</ele>
        <time>2014-06-05T16:26:02Z</time>
      </trkpt>
      <trkpt lat="46.607153" lon="7.085436">
        <ele>741</ele>
        <time>2014-06-05T16:26:10Z</time>
      </trkpt>
      <trkpt lat="46.607405" lon="7.085581">
        <ele>741</ele>
        <time>2014-06-05T16:26:17Z</time>
      </trkpt>
      <trkpt lat="46.607649" lon="7.085815">
        <ele>741</ele>
        <time>2014-06-05T16:26:24Z</time>
      </trkpt>
      <trkpt lat="46.607882" lon="7.085894">
        <ele>741</ele>
        <time>2014-06-05T16:26:30Z</time>
      </trkpt>
      <trkpt lat="46.607997" lon="7.085951">
        <ele>745</ele>
        <time>2014-06-05T16:26:33Z</time>
      </trkpt>
      <trkpt lat="46.608243" lon="7.08601">
        <ele>745</ele>
        <time>2014-06-05T16:26:39Z</time>
      </trkpt>
      <trkpt lat="46.60838" lon="7.085767">
        <ele>745</ele>
        <time>2014-06-05T16:26:45Z</time>
      </trkpt>
      <trkpt lat="46.608492" lon="7.08545">
        <ele>745</ele>
        <time>2014-06-05T16:26:52Z</time>
      </trkpt>
      <trkpt lat="46.608642" lon="7.085187">
        <ele>746</ele>
        <time>2014-06-05T16:26:57Z</time>
      </trkpt>
      <trkpt lat="46.608793" lon="7.085093">
        <ele>748</ele>
        <time>2014-06-05T16:27:01Z</time>
      </trkpt>
      <trkpt lat="46.60894" lon="7.085051">
        <ele>748</ele>
        <time>2014-06-05T16:27:06Z</time>
      </trkpt>
      <trkpt lat="46.609167" lon="7.08512">
        <ele>748</ele>
        <time>2014-06-05T16:27:14Z</time>
      </trkpt>
      <trkpt lat="46.609456" lon="7.084927">
        <ele>748</ele>
        <time>2014-06-05T16:27:21Z</time>
      </trkpt>
      <trkpt lat="46.609631" lon="7.084852">
        <ele>746</ele>
        <time>2014-06-05T16:27:25Z</time>
      </trkpt>
      <trkpt lat="46.610114" lon="7.084998">
        <ele>746</ele>
        <time>2014-06-05T16:27:33Z</time>
      </trkpt>
      <trkpt lat="46.610449" lon="7.085097">
        <ele>748</ele>
        <time>2014-06-05T16:27:39Z</time>
      </trkpt>
      <trkpt lat="46.610738" lon="7.084986">
        <ele>748</ele>
        <time>2014-06-05T16:27:47Z</time>
      </trkpt>
      <trkpt lat="46.610943" lon="7.084837">
        <ele>748</ele>
        <time>2014-06-05T16:27:53Z</time>
      </trkpt>
      <trkpt lat="46.611196" lon="7.08466">
        <ele>748</ele>
        <time>2014-06-05T16:28:02Z</time>
      </trkpt>
      <trkpt lat="46.611309" lon="7.084551">
        <ele>757</ele>
        <time>2014-06-05T16:28:07Z</time>
      </trkpt>
      <trkpt lat="46.611358" lon="7.084525">
        <ele>757</ele>
        <time>2014-06-05T16:28:11Z</time>
      </trkpt>
      <trkpt lat="46.611358" lon="7.084525">
        <ele>757</ele>
        <time>2014-06-05T16:28:16Z</time>
      </trkpt>
      <trkpt lat="46.611358" lon="7.084525">
        <ele>757</ele>
        <time>2014-06-05T16:28:43Z</time>
      </trkpt>
      <trkpt lat="46.6117" lon="7.084235">
        <ele>757</ele>
        <time>2014-06-05T16:28:47Z</time>
      </trkpt>
      <trkpt lat="46.611964" lon="7.083989">
        <ele>757</ele>
        <time>2014-06-05T16:28:55Z</time>
      </trkpt>
      <trkpt lat="46.612125" lon="7.083733">
        <ele>762</ele>
        <time>2014-06-05T16:29:01Z</time>
      </trkpt>
      <trkpt lat="46.611946" lon="7.083174">
        <ele>762</ele>
        <time>2014-06-05T16:29:12Z</time>
      </trkpt>
      <trkpt lat="46.611976" lon="7.082744">
        <ele>762</ele>
        <time>2014-06-05T16:29:18Z</time>
      </trkpt>
      <trkpt lat="46.612049" lon="7.082267">
        <ele>762</ele>
        <time>2014-06-05T16:29:24Z</time>
      </trkpt>
      <trkpt lat="46.61199" lon="7.082006">
        <ele>758</ele>
        <time>2014-06-05T16:29:29Z</time>
      </trkpt>
      <trkpt lat="46.611859" lon="7.081651">
        <ele>758</ele>
        <time>2014-06-05T16:29:35Z</time>
      </trkpt>
      <trkpt lat="46.611669" lon="7.081242">
        <ele>749</ele>
        <time>2014-06-05T16:29:43Z</time>
      </trkpt>
      <trkpt lat="46.611559" lon="7.080849">
        <ele>749</ele>
        <time>2014-06-05T16:29:49Z</time>
      </trkpt>
      <trkpt lat="46.611326" lon="7.080616">
        <ele>749</ele>
        <time>2014-06-05T16:29:56Z</time>
      </trkpt>
      <trkpt lat="46.611011" lon="7.080441">
        <ele>753</ele>
        <time>2014-06-05T16:30:02Z</time>
      </trkpt>
      <trkpt lat="46.610674" lon="7.080233">
        <ele>753</ele>
        <time>2014-06-05T16:30:09Z</time>
      </trkpt>
      <trkpt lat="46.610425" lon="7.080003">
        <ele>767</ele>
        <time>2014-06-05T16:30:15Z</time>
      </trkpt>
      <trkpt lat="46.610066" lon="7.079813">
        <ele>767</ele>
        <time>2014-06-05T16:30:21Z</time>
      </trkpt>
      <trkpt lat="46.609788" lon="7.07964">
        <ele>761</ele>
        <time>2014-06-05T16:30:27Z</time>
      </trkpt>
      <trkpt lat="46.609603" lon="7.079399">
        <ele>767</ele>
        <time>2014-06-05T16:30:35Z</time>
      </trkpt>
      <trkpt lat="46.609417" lon="7.07912">
        <ele>767</ele>
        <time>2014-06-05T16:30:42Z</time>
      </trkpt>
      <trkpt lat="46.609238" lon="7.07888">
        <ele>767</ele>
        <time>2014-06-05T16:30:48Z</time>
      </trkpt>
      <trkpt lat="46.609079" lon="7.078583">
        <ele>763</ele>
        <time>2014-06-05T16:30:55Z</time>
      </trkpt>
      <trkpt lat="46.608995" lon="7.078267">
        <ele>763</ele>
        <time>2014-06-05T16:31:01Z</time>
      </trkpt>
      <trkpt lat="46.608856" lon="7.077876">
        <ele>759</ele>
        <time>2014-06-05T16:31:09Z</time>
      </trkpt>
      <trkpt lat="46.608795" lon="7.07751">
        <ele>759</ele>
        <time>2014-06-05T16:31:16Z</time>
      </trkpt>
      <trkpt lat="46.608746" lon="7.076731">
        <ele>764</ele>
        <time>2014-06-05T16:31:23Z</time>
      </trkpt>
      <trkpt lat="46.608806" lon="7.075859">
        <ele>740</ele>
        <time>2014-06-05T16:31:29Z</time>
      </trkpt>
      <trkpt lat="46.608535" lon="7.07483">
        <ele>740</ele>
        <time>2014-06-05T16:31:35Z</time>
      </trkpt>
      <trkpt lat="46.608563" lon="7.073971">
        <ele>733</ele>
        <time>2014-06-05T16:31:41Z</time>
      </trkpt>
      <trkpt lat="46.608551" lon="7.07367">
        <ele>732</ele>
        <time>2014-06-05T16:31:44Z</time>
      </trkpt>
      <trkpt lat="46.608515" lon="7.073397">
        <ele>732</ele>
        <time>2014-06-05T16:31:47Z</time>
      </trkpt>
      <trkpt lat="46.608508" lon="7.073124">
        <ele>732</ele>
        <time>2014-06-05T16:31:52Z</time>
      </trkpt>
      <trkpt lat="46.608651" lon="7.072896">
        <ele>734</ele>
        <time>2014-06-05T16:31:58Z</time>
      </trkpt>
      <trkpt lat="46.608803" lon="7.072619">
        <ele>733</ele>
        <time>2014-06-05T16:32:03Z</time>
      </trkpt>
      <trkpt lat="46.608921" lon="7.07225">
        <ele>733</ele>
        <time>2014-06-05T16:32:08Z</time>
      </trkpt>
      <trkpt lat="46.608999" lon="7.071765">
        <ele>737</ele>
        <time>2014-06-05T16:32:14Z</time>
      </trkpt>
      <trkpt lat="46.609045" lon="7.071276">
        <ele>737</ele>
        <time>2014-06-05T16:32:20Z</time>
      </trkpt>
      <trkpt lat="46.609047" lon="7.070917">
        <ele>737</ele>
        <time>2014-06-05T16:32:27Z</time>
      </trkpt>
      <trkpt lat="46.609063" lon="7.070772">
        <ele>737</ele>
        <time>2014-06-05T16:32:31Z</time>
      </trkpt>
      <trkpt lat="46.609063" lon="7.070772">
        <ele>737</ele>
        <time>2014-06-05T16:32:37Z</time>
      </trkpt>
      <trkpt lat="46.609063" lon="7.070772">
        <ele>737</ele>
        <time>2014-06-05T16:33:16Z</time>
      </trkpt>
      <trkpt lat="46.609016" lon="7.070471">
        <ele>738</ele>
        <time>2014-06-05T16:33:16Z</time>
      </trkpt>
      <trkpt lat="46.608947" lon="7.070347">
        <ele>738</ele>
        <time>2014-06-05T16:33:20Z</time>
      </trkpt>
      <trkpt lat="46.608828" lon="7.069768">
        <ele>738</ele>
        <time>2014-06-05T16:33:30Z</time>
      </trkpt>
      <trkpt lat="46.608838" lon="7.069318">
        <ele>739</ele>
        <time>2014-06-05T16:33:37Z</time>
      </trkpt>
      <trkpt lat="46.608847" lon="7.068976">
        <ele>739</ele>
        <time>2014-06-05T16:33:43Z</time>
      </trkpt>
      <trkpt lat="46.608827" lon="7.068564">
        <ele>739</ele>
        <time>2014-06-05T16:33:49Z</time>
      </trkpt>
      <trkpt lat="46.608631" lon="7.06834">
        <ele>739</ele>
        <time>2014-06-05T16:33:55Z</time>
      </trkpt>
      <trkpt lat="46.608439" lon="7.068086">
        <ele>739</ele>
        <time>2014-06-05T16:34:01Z</time>
      </trkpt>
      <trkpt lat="46.608185" lon="7.067856">
        <ele>741</ele>
        <time>2014-06-05T16:34:08Z</time>
      </trkpt>
      <trkpt lat="46.607983" lon="7.06754">
        <ele>741</ele>
        <time>2014-06-05T16:34:13Z</time>
      </trkpt>
      <trkpt lat="46.607788" lon="7.067266">
        <ele>739</ele>
        <time>2014-06-05T16:34:19Z</time>
      </trkpt>
      <trkpt lat="46.607576" lon="7.067158">
        <ele>741</ele>
        <time>2014-06-05T16:34:26Z</time>
      </trkpt>
      <trkpt lat="46.60739" lon="7.067088">
        <ele>741</ele>
        <time>2014-06-05T16:34:33Z</time>
      </trkpt>
      <trkpt lat="46.607262" lon="7.067203">
        <ele>741</ele>
        <time>2014-06-05T16:34:36Z</time>
      </trkpt>
      <trkpt lat="46.607055" lon="7.067458">
        <ele>737</ele>
        <time>2014-06-05T16:34:41Z</time>
      </trkpt>
      <trkpt lat="46.606772" lon="7.067718">
        <ele>737</ele>
        <time>2014-06-05T16:34:46Z</time>
      </trkpt>
      <trkpt lat="46.606383" lon="7.068112">
        <ele>735</ele>
        <time>2014-06-05T16:34:52Z</time>
      </trkpt>
      <trkpt lat="46.606182" lon="7.068286">
        <ele>734</ele>
        <time>2014-06-05T16:34:55Z</time>
      </trkpt>
      <trkpt lat="46.605992" lon="7.068467">
        <ele>734</ele>
        <time>2014-06-05T16:34:58Z</time>
      </trkpt>
      <trkpt lat="46.605621" lon="7.068994">
        <ele>733</ele>
        <time>2014-06-05T16:35:04Z</time>
      </trkpt>
      <trkpt lat="46.605318" lon="7.069445">
        <ele>732</ele>
        <time>2014-06-05T16:35:09Z</time>
      </trkpt>
      <trkpt lat="46.605002" lon="7.069928">
        <ele>730</ele>
        <time>2014-06-05T16:35:14Z</time>
      </trkpt>
      <trkpt lat="46.604574" lon="7.070564">
        <ele>728</ele>
        <time>2014-06-05T16:35:21Z</time>
      </trkpt>
      <trkpt lat="46.604233" lon="7.070787">
        <ele>728</ele>
        <time>2014-06-05T16:35:27Z</time>
      </trkpt>
      <trkpt lat="46.604336" lon="7.07046">
        <ele>730</ele>
        <time>2014-06-05T16:35:32Z</time>
      </trkpt>
      <trkpt lat="46.604582" lon="7.07018">
        <ele>730</ele>
        <time>2014-06-05T16:35:38Z</time>
      </trkpt>
      <trkpt lat="46.604664" lon="7.06986">
        <ele>730</ele>
        <time>2014-06-05T16:35:44Z</time>
      </trkpt>
      <trkpt lat="46.604751" lon="7.069426">
        <ele>732</ele>
        <time>2014-06-05T16:35:52Z</time>
      </trkpt>
      <trkpt lat="46.604673" lon="7.069226">
        <ele>732</ele>
        <time>2014-06-05T16:35:57Z</time>
      </trkpt>
      <trkpt lat="46.604528" lon="7.069098">
        <ele>732</ele>
        <time>2014-06-05T16:36:03Z</time>
      </trkpt>
      <trkpt lat="46.604389" lon="7.069056">
        <ele>732</ele>
        <time>2014-06-05T16:36:08Z</time>
      </trkpt>
      <trkpt lat="46.604184" lon="7.069028">
        <ele>732</ele>
        <time>2014-06-05T16:36:16Z</time>
      </trkpt>
      <trkpt lat="46.603991" lon="7.068989">
        <ele>732</ele>
        <time>2014-06-05T16:36:22Z</time>
      </trkpt>
      <trkpt lat="46.603975" lon="7.068764">
        <ele>734</ele>
        <time>2014-06-05T16:36:29Z</time>
      </trkpt>
      <trkpt lat="46.603975" lon="7.068764">
        <ele>734</ele>
        <time>2014-06-05T16:36:34Z</time>
      </trkpt>
      <trkpt lat="46.603975" lon="7.068764">
        <ele>734</ele>
        <time>2014-06-05T16:36:34Z</time>
      </trkpt>
      <trkpt lat="46.603975" lon="7.068764">
        <ele>734</ele>
        <time>2014-06-05T16:36:41Z</time>
      </trkpt>
      <trkpt lat="46.603795" lon="7.069146">
        <ele>732</ele>
        <time>2014-06-05T16:36:41Z</time>
      </trkpt>
      <trkpt lat="46.603696" lon="7.069415">
        <ele>735</ele>
        <time>2014-06-05T16:36:44Z</time>
      </trkpt>
      <trkpt lat="46.603553" lon="7.069893">
        <ele>730</ele>
        <time>2014-06-05T16:36:50Z</time>
      </trkpt>
      <trkpt lat="46.603412" lon="7.070299">
        <ele>730</ele>
        <time>2014-06-05T16:36:57Z</time>
      </trkpt>
      <trkpt lat="46.603244" lon="7.070529">
        <ele>727</ele>
        <time>2014-06-05T16:37:02Z</time>
      </trkpt>
      <trkpt lat="46.60314" lon="7.070808">
        <ele>727</ele>
        <time>2014-06-05T16:37:08Z</time>
      </trkpt>
      <trkpt lat="46.603016" lon="7.071076">
        <ele>727</ele>
        <time>2014-06-05T16:37:15Z</time>
      </trkpt>
      <trkpt lat="46.602963" lon="7.071488">
        <ele>738</ele>
        <time>2014-06-05T16:37:22Z</time>
      </trkpt>
      <trkpt lat="46.602887" lon="7.07182">
        <ele>781.6</ele>
        <time>2014-06-05T16:37:27Z</time>
      </trkpt>
      <trkpt lat="46.602751" lon="7.072141">
        <ele>727</ele>
        <time>2014-06-05T16:37:32Z</time>
      </trkpt>
      <trkpt lat="46.602449" lon="7.072369">
        <ele>727</ele>
        <time>2014-06-05T16:37:38Z</time>
      </trkpt>
      <trkpt lat="46.602096" lon="7.072423">
        <ele>725</ele>
        <time>2014-06-05T16:37:44Z</time>
      </trkpt>
      <trkpt lat="46.601774" lon="7.072533">
        <ele>725</ele>
        <time>2014-06-05T16:37:50Z</time>
      </trkpt>
      <trkpt lat="46.601412" lon="7.072521">
        <ele>725</ele>
        <time>2014-06-05T16:37:56Z</time>
      </trkpt>
      <trkpt lat="46.601095" lon="7.072526">
        <ele>722</ele>
        <time>2014-06-05T16:38:02Z</time>
      </trkpt>
      <trkpt lat="46.600905" lon="7.072416">
        <ele>722</ele>
        <time>2014-06-05T16:38:10Z</time>
      </trkpt>
      <trkpt lat="46.600846" lon="7.072409">
        <ele>722</ele>
        <time>2014-06-05T16:38:12Z</time>
      </trkpt>
      <trkpt lat="46.600846" lon="7.072409">
        <ele>722</ele>
        <time>2014-06-05T16:38:18Z</time>
      </trkpt>
      <trkpt lat="46.600846" lon="7.072409">
        <ele>722</ele>
        <time>2014-06-05T16:40:22Z</time>
      </trkpt>
      <trkpt lat="46.600524" lon="7.072246">
        <ele>722</ele>
        <time>2014-06-05T16:40:22Z</time>
      </trkpt>
      <trkpt lat="46.600262" lon="7.072387">
        <ele>717</ele>
        <time>2014-06-05T16:40:30Z</time>
      </trkpt>
      <trkpt lat="46.600064" lon="7.072528">
        <ele>717</ele>
        <time>2014-06-05T16:40:36Z</time>
      </trkpt>
      <trkpt lat="46.599953" lon="7.072352">
        <ele>717</ele>
        <time>2014-06-05T16:40:43Z</time>
      </trkpt>
      <trkpt lat="46.599778" lon="7.072076">
        <ele>724</ele>
        <time>2014-06-05T16:40:51Z</time>
      </trkpt>
      <trkpt lat="46.599628" lon="7.071924">
        <ele>724</ele>
        <time>2014-06-05T16:40:56Z</time>
      </trkpt>
      <trkpt lat="46.599467" lon="7.071756">
        <ele>717</ele>
        <time>2014-06-05T16:41:01Z</time>
      </trkpt>
      <trkpt lat="46.599252" lon="7.071415">
        <ele>717</ele>
        <time>2014-06-05T16:41:07Z</time>
      </trkpt>
      <trkpt lat="46.599036" lon="7.071131">
        <ele>716</ele>
        <time>2014-06-05T16:41:12Z</time>
      </trkpt>
      <trkpt lat="46.598757" lon="7.070789">
        <ele>713</ele>
        <time>2014-06-05T16:41:18Z</time>
      </trkpt>
      <trkpt lat="46.598446" lon="7.070437">
        <ele>713</ele>
        <time>2014-06-05T16:41:24Z</time>
      </trkpt>
      <trkpt lat="46.598172" lon="7.070135">
        <ele>713</ele>
        <time>2014-06-05T16:41:29Z</time>
      </trkpt>
      <trkpt lat="46.597845" lon="7.069755">
        <ele>714</ele>
        <time>2014-06-05T16:41:35Z</time>
      </trkpt>
      <trkpt lat="46.597585" lon="7.069448">
        <ele>714</ele>
        <time>2014-06-05T16:41:40Z</time>
      </trkpt>
      <trkpt lat="46.597288" lon="7.069102">
        <ele>714</ele>
        <time>2014-06-05T16:41:46Z</time>
      </trkpt>
      <trkpt lat="46.59704" lon="7.068818">
        <ele>714</ele>
        <time>2014-06-05T16:41:51Z</time>
      </trkpt>
      <trkpt lat="46.596808" lon="7.068557">
        <ele>714</ele>
        <time>2014-06-05T16:41:57Z</time>
      </trkpt>
      <trkpt lat="46.596655" lon="7.06839">
        <ele>714</ele>
        <time>2014-06-05T16:42:02Z</time>
      </trkpt>
      <trkpt lat="46.596384" lon="7.068071">
        <ele>714</ele>
        <time>2014-06-05T16:42:09Z</time>
      </trkpt>
      <trkpt lat="46.596152" lon="7.067811">
        <ele>717</ele>
        <time>2014-06-05T16:42:14Z</time>
      </trkpt>
      <trkpt lat="46.595885" lon="7.067498">
        <ele>717</ele>
        <time>2014-06-05T16:42:20Z</time>
      </trkpt>
      <trkpt lat="46.595623" lon="7.067188">
        <ele>718</ele>
        <time>2014-06-05T16:42:26Z</time>
      </trkpt>
      <trkpt lat="46.59538" lon="7.066864">
        <ele>718</ele>
        <time>2014-06-05T16:42:32Z</time>
      </trkpt>
      <trkpt lat="46.595157" lon="7.066515">
        <ele>718</ele>
        <time>2014-06-05T16:42:38Z</time>
      </trkpt>
      <trkpt lat="46.594965" lon="7.066185">
        <ele>719</ele>
        <time>2014-06-05T16:42:44Z</time>
      </trkpt>
      <trkpt lat="46.594789" lon="7.065825">
        <ele>719</ele>
        <time>2014-06-05T16:42:50Z</time>
      </trkpt>
      <trkpt lat="46.594636" lon="7.065473">
        <ele>719</ele>
        <time>2014-06-05T16:42:56Z</time>
      </trkpt>
      <trkpt lat="46.594532" lon="7.065193">
        <ele>721</ele>
        <time>2014-06-05T16:43:01Z</time>
      </trkpt>
      <trkpt lat="46.594408" lon="7.06486">
        <ele>721</ele>
        <time>2014-06-05T16:43:08Z</time>
      </trkpt>
      <trkpt lat="46.594315" lon="7.064614">
        <ele>721</ele>
        <time>2014-06-05T16:43:15Z</time>
      </trkpt>
      <trkpt lat="46.594164" lon="7.064135">
        <ele>723</ele>
        <time>2014-06-05T16:43:22Z</time>
      </trkpt>
      <trkpt lat="46.594058" lon="7.063821">
        <ele>723</ele>
        <time>2014-06-05T16:43:27Z</time>
      </trkpt>
      <trkpt lat="46.59399" lon="7.063639">
        <ele>724</ele>
        <time>2014-06-05T16:43:30Z</time>
      </trkpt>
      <trkpt lat="46.593885" lon="7.063338">
        <ele>724</ele>
        <time>2014-06-05T16:43:35Z</time>
      </trkpt>
      <trkpt lat="46.593744" lon="7.062955">
        <ele>728</ele>
        <time>2014-06-05T16:43:42Z</time>
      </trkpt>
      <trkpt lat="46.593629" lon="7.062629">
        <ele>728</ele>
        <time>2014-06-05T16:43:48Z</time>
      </trkpt>
      <trkpt lat="46.593539" lon="7.062365">
        <ele>728</ele>
        <time>2014-06-05T16:43:53Z</time>
      </trkpt>
      <trkpt lat="46.593513" lon="7.062294">
        <ele>728</ele>
        <time>2014-06-05T16:43:58Z</time>
      </trkpt>
      <trkpt lat="46.593513" lon="7.062294">
        <ele>728</ele>
        <time>2014-06-05T16:44:03Z</time>
      </trkpt>
      <trkpt lat="46.593513" lon="7.062294">
        <ele>728</ele>
        <time>2014-06-05T16:46:55Z</time>
      </trkpt>
      <trkpt lat="46.593448" lon="7.062122">
        <ele>730</ele>
        <time>2014-06-05T16:46:55Z</time>
      </trkpt>
      <trkpt lat="46.593421" lon="7.062024">
        <ele>730</ele>
        <time>2014-06-05T16:46:58Z</time>
      </trkpt>
      <trkpt lat="46.593421" lon="7.062024">
        <ele>730</ele>
        <time>2014-06-05T16:47:03Z</time>
      </trkpt>
      <trkpt lat="46.593421" lon="7.062024">
        <ele>730</ele>
        <time>2014-06-05T16:47:32Z</time>
      </trkpt>
      <trkpt lat="46.593343" lon="7.061881">
        <ele>730</ele>
        <time>2014-06-05T16:47:32Z</time>
      </trkpt>
      <trkpt lat="46.593306" lon="7.061749">
        <ele>730</ele>
        <time>2014-06-05T16:47:37Z</time>
      </trkpt>
      <trkpt lat="46.593306" lon="7.061749">
        <ele>730</ele>
        <time>2014-06-05T16:47:43Z</time>
      </trkpt>
      <trkpt lat="46.593306" lon="7.061749">
        <ele>730</ele>
        <time>2014-06-05T16:47:47Z</time>
      </trkpt>
      <trkpt lat="46.593312" lon="7.061653">
        <ele>730</ele>
        <time>2014-06-05T16:47:47Z</time>
      </trkpt>
      <trkpt lat="46.593478" lon="7.061491">
        <ele>730</ele>
        <time>2014-06-05T16:47:54Z</time>
      </trkpt>
      <trkpt lat="46.593565" lon="7.061363">
        <ele>730</ele>
        <time>2014-06-05T16:47:58Z</time>
      </trkpt>
      <trkpt lat="46.593781" lon="7.061145">
        <ele>730</ele>
        <time>2014-06-05T16:48:05Z</time>
      </trkpt>
      <trkpt lat="46.593953" lon="7.060968">
        <ele>727</ele>
        <time>2014-06-05T16:48:10Z</time>
      </trkpt>
      <trkpt lat="46.594164" lon="7.060761">
        <ele>727</ele>
        <time>2014-06-05T16:48:16Z</time>
      </trkpt>
      <trkpt lat="46.594274" lon="7.060644">
        <ele>727</ele>
        <time>2014-06-05T16:48:19Z</time>
      </trkpt>
      <trkpt lat="46.594376" lon="7.060532">
        <ele>727</ele>
        <time>2014-06-05T16:48:22Z</time>
      </trkpt>
      <trkpt lat="46.594549" lon="7.060341">
        <ele>729</ele>
        <time>2014-06-05T16:48:27Z</time>
      </trkpt>
      <trkpt lat="46.594771" lon="7.060107">
        <ele>729</ele>
        <time>2014-06-05T16:48:33Z</time>
      </trkpt>
      <trkpt lat="46.594897" lon="7.059926">
        <ele>729</ele>
        <time>2014-06-05T16:48:37Z</time>
      </trkpt>
      <trkpt lat="46.595034" lon="7.059674">
        <ele>729</ele>
        <time>2014-06-05T16:48:43Z</time>
      </trkpt>
      <trkpt lat="46.595101" lon="7.059417">
        <ele>733</ele>
        <time>2014-06-05T16:48:50Z</time>
      </trkpt>
      <trkpt lat="46.595143" lon="7.059084">
        <ele>733</ele>
        <time>2014-06-05T16:48:57Z</time>
      </trkpt>
      <trkpt lat="46.595162" lon="7.058975">
        <ele>733</ele>
        <time>2014-06-05T16:49:00Z</time>
      </trkpt>
      <trkpt lat="46.59515" lon="7.0587">
        <ele>733</ele>
        <time>2014-06-05T16:49:09Z</time>
      </trkpt>
      <trkpt lat="46.595003" lon="7.058475">
        <ele>733</ele>
        <time>2014-06-05T16:49:14Z</time>
      </trkpt>
      <trkpt lat="46.594881" lon="7.05825">
        <ele>733</ele>
        <time>2014-06-05T16:49:19Z</time>
      </trkpt>
      <trkpt lat="46.594718" lon="7.057938">
        <ele>734</ele>
        <time>2014-06-05T16:49:26Z</time>
      </trkpt>
      <trkpt lat="46.594602" lon="7.057698">
        <ele>737</ele>
        <time>2014-06-05T16:49:32Z</time>
      </trkpt>
      <trkpt lat="46.594602" lon="7.057698">
        <ele>737</ele>
        <time>2014-06-05T16:49:38Z</time>
      </trkpt>
      <trkpt lat="46.594602" lon="7.057698">
        <ele>737</ele>
        <time>2014-06-05T16:49:38Z</time>
      </trkpt>
      <trkpt lat="46.594602" lon="7.057698">
        <ele>737</ele>
        <time>2014-06-05T16:53:45Z</time>
      </trkpt>
      <trkpt lat="46.594505" lon="7.057444">
        <ele>737</ele>
        <time>2014-06-05T16:54:23Z</time>
      </trkpt>
      <trkpt lat="46.594409" lon="7.057274">
        <ele>737</ele>
        <time>2014-06-05T16:54:30Z</time>
      </trkpt>
      <trkpt lat="46.594264" lon="7.056974">
        <ele>741</ele>
        <time>2014-06-05T16:54:39Z</time>
      </trkpt>
      <trkpt lat="46.594107" lon="7.056675">
        <ele>741</ele>
        <time>2014-06-05T16:54:47Z</time>
      </trkpt>
      <trkpt lat="46.59398" lon="7.056438">
        <ele>741</ele>
        <time>2014-06-05T16:54:53Z</time>
      </trkpt>
      <trkpt lat="46.593909" lon="7.056142">
        <ele>745</ele>
        <time>2014-06-05T16:54:59Z</time>
      </trkpt>
      <trkpt lat="46.593772" lon="7.05583">
        <ele>748</ele>
        <time>2014-06-05T16:55:06Z</time>
      </trkpt>
      <trkpt lat="46.593677" lon="7.055568">
        <ele>748</ele>
        <time>2014-06-05T16:55:12Z</time>
      </trkpt>
      <trkpt lat="46.593559" lon="7.055264">
        <ele>753</ele>
        <time>2014-06-05T16:55:20Z</time>
      </trkpt>
      <trkpt lat="46.593523" lon="7.055028">
        <ele>753</ele>
        <time>2014-06-05T16:55:26Z</time>
      </trkpt>
      <trkpt lat="46.5935" lon="7.054833">
        <ele>753</ele>
        <time>2014-06-05T16:55:35Z</time>
      </trkpt>
      <trkpt lat="46.5935" lon="7.054833">
        <ele>753</ele>
        <time>2014-06-05T16:55:42Z</time>
      </trkpt>
      <trkpt lat="46.5935" lon="7.054833">
        <ele>753</ele>
        <time>2014-06-05T16:55:51Z</time>
      </trkpt>
      <trkpt lat="46.593584" lon="7.055389">
        <ele>753</ele>
        <time>2014-06-05T16:55:51Z</time>
      </trkpt>
      <trkpt lat="46.593723" lon="7.055379">
        <ele>753</ele>
        <time>2014-06-05T16:55:56Z</time>
      </trkpt>
      <trkpt lat="46.594049" lon="7.055306">
        <ele>749</ele>
        <time>2014-06-05T16:56:04Z</time>
      </trkpt>
      <trkpt lat="46.594203" lon="7.05526">
        <ele>749</ele>
        <time>2014-06-05T16:56:09Z</time>
      </trkpt>
      <trkpt lat="46.59426" lon="7.055136">
        <ele>749</ele>
        <time>2014-06-05T16:56:15Z</time>
      </trkpt>
      <trkpt lat="46.59426" lon="7.055136">
        <ele>749</ele>
        <time>2014-06-05T16:56:23Z</time>
      </trkpt>
      <trkpt lat="46.59426" lon="7.055136">
        <ele>749</ele>
        <time>2014-06-05T16:57:36Z</time>
      </trkpt>
      <trkpt lat="46.594184" lon="7.054818">
        <ele>749</ele>
        <time>2014-06-05T16:57:36Z</time>
      </trkpt>
      <trkpt lat="46.594121" lon="7.054621">
        <ele>749</ele>
        <time>2014-06-05T16:57:44Z</time>
      </trkpt>
      <trkpt lat="46.593996" lon="7.054197">
        <ele>752</ele>
        <time>2014-06-05T16:57:55Z</time>
      </trkpt>
      <trkpt lat="46.593924" lon="7.053916">
        <ele>752</ele>
        <time>2014-06-05T16:58:01Z</time>
      </trkpt>
      <trkpt lat="46.593864" lon="7.053636">
        <ele>756</ele>
        <time>2014-06-05T16:58:07Z</time>
      </trkpt>
      <trkpt lat="46.593834" lon="7.053502">
        <ele>756</ele>
        <time>2014-06-05T16:58:10Z</time>
      </trkpt>
      <trkpt lat="46.593789" lon="7.053211">
        <ele>762</ele>
        <time>2014-06-05T16:58:17Z</time>
      </trkpt>
      <trkpt lat="46.593755" lon="7.052878">
        <ele>767</ele>
        <time>2014-06-05T16:58:25Z</time>
      </trkpt>
      <trkpt lat="46.593718" lon="7.052585">
        <ele>767</ele>
        <time>2014-06-05T16:58:32Z</time>
      </trkpt>
      <trkpt lat="46.593673" lon="7.052286">
        <ele>767</ele>
        <time>2014-06-05T16:58:39Z</time>
      </trkpt>
      <trkpt lat="46.593662" lon="7.05201">
        <ele>774</ele>
        <time>2014-06-05T16:58:48Z</time>
      </trkpt>
      <trkpt lat="46.593648" lon="7.051926">
        <ele>774</ele>
        <time>2014-06-05T16:58:51Z</time>
      </trkpt>
      <trkpt lat="46.593648" lon="7.051926">
        <ele>774</ele>
        <time>2014-06-05T16:58:58Z</time>
      </trkpt>
      <trkpt lat="46.593648" lon="7.051926">
        <ele>774</ele>
        <time>2014-06-05T16:59:15Z</time>
      </trkpt>
      <trkpt lat="46.593618" lon="7.051642">
        <ele>774</ele>
        <time>2014-06-05T16:59:15Z</time>
      </trkpt>
      <trkpt lat="46.593557" lon="7.051325">
        <ele>774</ele>
        <time>2014-06-05T16:59:24Z</time>
      </trkpt>
      <trkpt lat="46.593522" lon="7.051076">
        <ele>781</ele>
        <time>2014-06-05T16:59:31Z</time>
      </trkpt>
      <trkpt lat="46.593555" lon="7.051004">
        <ele>781</ele>
        <time>2014-06-05T16:59:34Z</time>
      </trkpt>
      <trkpt lat="46.593555" lon="7.051004">
        <ele>781</ele>
        <time>2014-06-05T16:59:39Z</time>
      </trkpt>
      <trkpt lat="46.593555" lon="7.051004">
        <ele>781</ele>
        <time>2014-06-05T17:00:15Z</time>
      </trkpt>
      <trkpt lat="46.593449" lon="7.050768">
        <ele>781</ele>
        <time>2014-06-05T17:00:15Z</time>
      </trkpt>
      <trkpt lat="46.593383" lon="7.050549">
        <ele>781</ele>
        <time>2014-06-05T17:00:23Z</time>
      </trkpt>
      <trkpt lat="46.59334" lon="7.050369">
        <ele>789</ele>
        <time>2014-06-05T17:00:29Z</time>
      </trkpt>
      <trkpt lat="46.593285" lon="7.050102">
        <ele>789</ele>
        <time>2014-06-05T17:00:39Z</time>
      </trkpt>
      <trkpt lat="46.593193" lon="7.049908">
        <ele>789</ele>
        <time>2014-06-05T17:00:47Z</time>
      </trkpt>
      <trkpt lat="46.593081" lon="7.049709">
        <ele>789</ele>
        <time>2014-06-05T17:00:56Z</time>
      </trkpt>
      <trkpt lat="46.592958" lon="7.049403">
        <ele>814</ele>
        <time>2014-06-05T17:01:08Z</time>
      </trkpt>
      <trkpt lat="46.592856" lon="7.049233">
        <ele>814</ele>
        <time>2014-06-05T17:01:17Z</time>
      </trkpt>
      <trkpt lat="46.592754" lon="7.048998">
        <ele>814</ele>
        <time>2014-06-05T17:01:26Z</time>
      </trkpt>
      <trkpt lat="46.592671" lon="7.048803">
        <ele>817</ele>
        <time>2014-06-05T17:01:33Z</time>
      </trkpt>
      <trkpt lat="46.592671" lon="7.048803">
        <ele>817</ele>
        <time>2014-06-05T17:01:39Z</time>
      </trkpt>
      <trkpt lat="46.592671" lon="7.048803">
        <ele>817</ele>
        <time>2014-06-05T17:01:39Z</time>
      </trkpt>
      <trkpt lat="46.592671" lon="7.048803">
        <ele>817</ele>
        <time>2014-06-05T17:03:10Z</time>
      </trkpt>
      <trkpt lat="46.592536" lon="7.048658">
        <ele>817</ele>
        <time>2014-06-05T17:03:10Z</time>
      </trkpt>
      <trkpt lat="46.592394" lon="7.048481">
        <ele>817</ele>
        <time>2014-06-05T17:03:19Z</time>
      </trkpt>
      <trkpt lat="46.592299" lon="7.048247">
        <ele>817</ele>
        <time>2014-06-05T17:03:28Z</time>
      </trkpt>
      <trkpt lat="46.59222" lon="7.048049">
        <ele>817</ele>
        <time>2014-06-05T17:03:36Z</time>
      </trkpt>
      <trkpt lat="46.592167" lon="7.047871">
        <ele>832</ele>
        <time>2014-06-05T17:03:44Z</time>
      </trkpt>
      <trkpt lat="46.592167" lon="7.047871">
        <ele>832</ele>
        <time>2014-06-05T17:03:52Z</time>
      </trkpt>
      <trkpt lat="46.592167" lon="7.047871">
        <ele>832</ele>
        <time>2014-06-05T17:03:52Z</time>
      </trkpt>
      <trkpt lat="46.592167" lon="7.047871">
        <ele>832</ele>
        <time>2014-06-05T17:06:18Z</time>
      </trkpt>
      <trkpt lat="46.592026" lon="7.047277">
        <ele>845</ele>
        <time>2014-06-05T17:06:18Z</time>
      </trkpt>
      <trkpt lat="46.592026" lon="7.047277">
        <ele>845</ele>
        <time>2014-06-05T17:06:26Z</time>
      </trkpt>
      <trkpt lat="46.592026" lon="7.047277">
        <ele>845</ele>
        <time>2014-06-05T17:06:26Z</time>
      </trkpt>
      <trkpt lat="46.592026" lon="7.047277">
        <ele>845</ele>
        <time>2014-06-05T17:08:44Z</time>
      </trkpt>
      <trkpt lat="46.592022" lon="7.045996">
        <ele>864</ele>
        <time>2014-06-05T17:08:44Z</time>
      </trkpt>
      <trkpt lat="46.59202" lon="7.045969">
        <ele>864</ele>
        <time>2014-06-05T17:08:46Z</time>
      </trkpt>
      <trkpt lat="46.59202" lon="7.045969">
        <ele>864</ele>
        <time>2014-06-05T17:08:52Z</time>
      </trkpt>
      <trkpt lat="46.59202" lon="7.045969">
        <ele>864</ele>
        <time>2014-06-05T17:09:34Z</time>
      </trkpt>
      <trkpt lat="46.591887" lon="7.045454">
        <ele>864</ele>
        <time>2014-06-05T17:09:34Z</time>
      </trkpt>
      <trkpt lat="46.591887" lon="7.045454">
        <ele>864</ele>
        <time>2014-06-05T17:09:42Z</time>
      </trkpt>
      <trkpt lat="46.591887" lon="7.045454">
        <ele>864</ele>
        <time>2014-06-05T17:09:42Z</time>
      </trkpt>
      <trkpt lat="46.591887" lon="7.045454">
        <ele>864</ele>
        <time>2014-06-05T17:10:12Z</time>
      </trkpt>
      <trkpt lat="46.59173" lon="7.045119">
        <ele>865</ele>
        <time>2014-06-05T17:10:12Z</time>
      </trkpt>
      <trkpt lat="46.591704" lon="7.0451">
        <ele>865</ele>
        <time>2014-06-05T17:10:14Z</time>
      </trkpt>
      <trkpt lat="46.591704" lon="7.0451">
        <ele>865</ele>
        <time>2014-06-05T17:10:20Z</time>
      </trkpt>
      <trkpt lat="46.591704" lon="7.0451">
        <ele>865</ele>
        <time>2014-06-05T17:11:48Z</time>
      </trkpt>
      <trkpt lat="46.591366" lon="7.044516">
        <ele>876</ele>
        <time>2014-06-05T17:11:48Z</time>
      </trkpt>
      <trkpt lat="46.591366" lon="7.044516">
        <ele>876</ele>
        <time>2014-06-05T17:11:56Z</time>
      </trkpt>
      <trkpt lat="46.591366" lon="7.044516">
        <ele>876</ele>
        <time>2014-06-05T17:11:56Z</time>
      </trkpt>
      <trkpt lat="46.591366" lon="7.044516">
        <ele>876</ele>
        <time>2014-06-05T17:12:39Z</time>
      </trkpt>
      <trkpt lat="46.591001" lon="7.044336">
        <ele>892</ele>
        <time>2014-06-05T17:12:39Z</time>
      </trkpt>
      <trkpt lat="46.590901" lon="7.0443">
        <ele>892</ele>
        <time>2014-06-05T17:12:46Z</time>
      </trkpt>
      <trkpt lat="46.590901" lon="7.0443">
        <ele>892</ele>
        <time>2014-06-05T17:12:52Z</time>
      </trkpt>
      <trkpt lat="46.590901" lon="7.0443">
        <ele>892</ele>
        <time>2014-06-05T17:12:52Z</time>
      </trkpt>
      <trkpt lat="46.590901" lon="7.0443">
        <ele>892</ele>
        <time>2014-06-05T17:14:57Z</time>
      </trkpt>
      <trkpt lat="46.59029" lon="7.043622">
        <ele>903</ele>
        <time>2014-06-05T17:14:57Z</time>
      </trkpt>
      <trkpt lat="46.59029" lon="7.043622">
        <ele>903</ele>
        <time>2014-06-05T17:15:03Z</time>
      </trkpt>
      <trkpt lat="46.59029" lon="7.043622">
        <ele>903</ele>
        <time>2014-06-05T17:15:03Z</time>
      </trkpt>
      <trkpt lat="46.59029" lon="7.043622">
        <ele>903</ele>
        <time>2014-06-05T17:15:58Z</time>
      </trkpt>
      <trkpt lat="46.590057" lon="7.042545">
        <ele>910</ele>
        <time>2014-06-05T17:15:58Z</time>
      </trkpt>
      <trkpt lat="46.590103" lon="7.042567">
        <ele>910</ele>
        <time>2014-06-05T17:16:01Z</time>
      </trkpt>
      <trkpt lat="46.590103" lon="7.042567">
        <ele>910</ele>
        <time>2014-06-05T17:16:08Z</time>
      </trkpt>
      <trkpt lat="46.590103" lon="7.042567">
        <ele>910</ele>
        <time>2014-06-05T17:18:10Z</time>
      </trkpt>
      <trkpt lat="46.590314" lon="7.042563">
        <ele>910</ele>
        <time>2014-06-05T17:18:10Z</time>
      </trkpt>
      <trkpt lat="46.590496" lon="7.042459">
        <ele>898</ele>
        <time>2014-06-05T17:18:18Z</time>
      </trkpt>
      <trkpt lat="46.590682" lon="7.042314">
        <ele>898</ele>
        <time>2014-06-05T17:18:26Z</time>
      </trkpt>
      <trkpt lat="46.590882" lon="7.04215">
        <ele>898</ele>
        <time>2014-06-05T17:18:34Z</time>
      </trkpt>
      <trkpt lat="46.591112" lon="7.041969">
        <ele>902</ele>
        <time>2014-06-05T17:18:41Z</time>
      </trkpt>
      <trkpt lat="46.591303" lon="7.041857">
        <ele>912</ele>
        <time>2014-06-05T17:18:47Z</time>
      </trkpt>
      <trkpt lat="46.591541" lon="7.04175">
        <ele>899</ele>
        <time>2014-06-05T17:18:54Z</time>
      </trkpt>
      <trkpt lat="46.5918" lon="7.041688">
        <ele>899</ele>
        <time>2014-06-05T17:19:01Z</time>
      </trkpt>
      <trkpt lat="46.592069" lon="7.04174">
        <ele>899</ele>
        <time>2014-06-05T17:19:07Z</time>
      </trkpt>
      <trkpt lat="46.592301" lon="7.041697">
        <ele>900</ele>
        <time>2014-06-05T17:19:13Z</time>
      </trkpt>
      <trkpt lat="46.592505" lon="7.04158">
        <ele>900</ele>
        <time>2014-06-05T17:19:18Z</time>
      </trkpt>
      <trkpt lat="46.592777" lon="7.041481">
        <ele>900</ele>
        <time>2014-06-05T17:19:23Z</time>
      </trkpt>
      <trkpt lat="46.593008" lon="7.041423">
        <ele>896</ele>
        <time>2014-06-05T17:19:28Z</time>
      </trkpt>
      <trkpt lat="46.593399" lon="7.041379">
        <ele>896</ele>
        <time>2014-06-05T17:19:35Z</time>
      </trkpt>
      <trkpt lat="46.593554" lon="7.041307">
        <ele>912</ele>
        <time>2014-06-05T17:19:40Z</time>
      </trkpt>
      <trkpt lat="46.593627" lon="7.041274">
        <ele>912</ele>
        <time>2014-06-05T17:19:44Z</time>
      </trkpt>
      <trkpt lat="46.593627" lon="7.041274">
        <ele>912</ele>
        <time>2014-06-05T17:19:50Z</time>
      </trkpt>
      <trkpt lat="46.593627" lon="7.041274">
        <ele>912</ele>
        <time>2014-06-05T17:20:34Z</time>
      </trkpt>
      <trkpt lat="46.593763" lon="7.041193">
        <ele>912</ele>
        <time>2014-06-05T17:20:34Z</time>
      </trkpt>
      <trkpt lat="46.593909" lon="7.04112">
        <ele>893</ele>
        <time>2014-06-05T17:20:42Z</time>
      </trkpt>
      <trkpt lat="46.594164" lon="7.04096">
        <ele>893</ele>
        <time>2014-06-05T17:20:49Z</time>
      </trkpt>
      <trkpt lat="46.594557" lon="7.040625">
        <ele>893</ele>
        <time>2014-06-05T17:20:55Z</time>
      </trkpt>
      <trkpt lat="46.594995" lon="7.040422">
        <ele>890</ele>
        <time>2014-06-05T17:21:00Z</time>
      </trkpt>
      <trkpt lat="46.595539" lon="7.040087">
        <ele>878</ele>
        <time>2014-06-05T17:21:06Z</time>
      </trkpt>
      <trkpt lat="46.596087" lon="7.039941">
        <ele>878</ele>
        <time>2014-06-05T17:21:12Z</time>
      </trkpt>
      <trkpt lat="46.596609" lon="7.039948">
        <ele>870</ele>
        <time>2014-06-05T17:21:18Z</time>
      </trkpt>
      <trkpt lat="46.596991" lon="7.040103">
        <ele>870</ele>
        <time>2014-06-05T17:21:23Z</time>
      </trkpt>
      <trkpt lat="46.59749" lon="7.039912">
        <ele>866</ele>
        <time>2014-06-05T17:21:29Z</time>
      </trkpt>
      <trkpt lat="46.597911" lon="7.039708">
        <ele>866</ele>
        <time>2014-06-05T17:21:35Z</time>
      </trkpt>
      <trkpt lat="46.598207" lon="7.039462">
        <ele>864</ele>
        <time>2014-06-05T17:21:41Z</time>
      </trkpt>
      <trkpt lat="46.598328" lon="7.039326">
        <ele>864</ele>
        <time>2014-06-05T17:21:44Z</time>
      </trkpt>
      <trkpt lat="46.598541" lon="7.039025">
        <ele>864</ele>
        <time>2014-06-05T17:21:50Z</time>
      </trkpt>
      <trkpt lat="46.598712" lon="7.038763">
        <ele>875</ele>
        <time>2014-06-05T17:21:55Z</time>
      </trkpt>
      <trkpt lat="46.598869" lon="7.038548">
        <ele>870</ele>
        <time>2014-06-05T17:22:00Z</time>
      </trkpt>
      <trkpt lat="46.598863" lon="7.038303">
        <ele>870</ele>
        <time>2014-06-05T17:22:06Z</time>
      </trkpt>
      <trkpt lat="46.598569" lon="7.038235">
        <ele>875</ele>
        <time>2014-06-05T17:22:13Z</time>
      </trkpt>
      <trkpt lat="46.598383" lon="7.038136">
        <ele>875</ele>
        <time>2014-06-05T17:22:18Z</time>
      </trkpt>
      <trkpt lat="46.598161" lon="7.038031">
        <ele>875</ele>
        <time>2014-06-05T17:22:25Z</time>
      </trkpt>
      <trkpt lat="46.598027" lon="7.037923">
        <ele>888</ele>
        <time>2014-06-05T17:22:31Z</time>
      </trkpt>
      <trkpt lat="46.597817" lon="7.037791">
        <ele>909</ele>
        <time>2014-06-05T17:22:41Z</time>
      </trkpt>
      <trkpt lat="46.597665" lon="7.037722">
        <ele>909</ele>
        <time>2014-06-05T17:22:48Z</time>
      </trkpt>
      <trkpt lat="46.597617" lon="7.037709">
        <ele>909</ele>
        <time>2014-06-05T17:22:50Z</time>
      </trkpt>
      <trkpt lat="46.597617" lon="7.037709">
        <ele>909</ele>
        <time>2014-06-05T17:22:55Z</time>
      </trkpt>
      <trkpt lat="46.597617" lon="7.037709">
        <ele>909</ele>
        <time>2014-06-05T17:23:40Z</time>
      </trkpt>
      <trkpt lat="46.597392" lon="7.037692">
        <ele>909</ele>
        <time>2014-06-05T17:23:40Z</time>
      </trkpt>
      <trkpt lat="46.597239" lon="7.037776">
        <ele>909</ele>
        <time>2014-06-05T17:23:48Z</time>
      </trkpt>
      <trkpt lat="46.597239" lon="7.037776">
        <ele>909</ele>
        <time>2014-06-05T17:23:53Z</time>
      </trkpt>
      <trkpt lat="46.597239" lon="7.037776">
        <ele>909</ele>
        <time>2014-06-05T17:23:53Z</time>
      </trkpt>
      <trkpt lat="46.597239" lon="7.037776">
        <ele>909</ele>
        <time>2014-06-05T17:24:05Z</time>
      </trkpt>
      <trkpt lat="46.597025" lon="7.037925">
        <ele>915</ele>
        <time>2014-06-05T17:24:05Z</time>
      </trkpt>
      <trkpt lat="46.596818" lon="7.038168">
        <ele>904</ele>
        <time>2014-06-05T17:24:34Z</time>
      </trkpt>
      <trkpt lat="46.596656" lon="7.038343">
        <ele>904</ele>
        <time>2014-06-05T17:24:43Z</time>
      </trkpt>
      <trkpt lat="46.596544" lon="7.038495">
        <ele>904</ele>
        <time>2014-06-05T17:24:50Z</time>
      </trkpt>
      <trkpt lat="46.59638" lon="7.038626">
        <ele>904</ele>
        <time>2014-06-05T17:24:59Z</time>
      </trkpt>
      <trkpt lat="46.596171" lon="7.03861">
        <ele>915</ele>
        <time>2014-06-05T17:25:09Z</time>
      </trkpt>
      <trkpt lat="46.596021" lon="7.038471">
        <ele>915</ele>
        <time>2014-06-05T17:25:20Z</time>
      </trkpt>
      <trkpt lat="46.595882" lon="7.038414">
        <ele>915</ele>
        <time>2014-06-05T17:25:28Z</time>
      </trkpt>
      <trkpt lat="46.595882" lon="7.038414">
        <ele>915</ele>
        <time>2014-06-05T17:25:35Z</time>
      </trkpt>
      <trkpt lat="46.595882" lon="7.038414">
        <ele>915</ele>
        <time>2014-06-05T17:25:39Z</time>
      </trkpt>
      <trkpt lat="46.595692" lon="7.038435">
        <ele>915</ele>
        <time>2014-06-05T17:25:39Z</time>
      </trkpt>
      <trkpt lat="46.595448" lon="7.038394">
        <ele>915</ele>
        <time>2014-06-05T17:25:49Z</time>
      </trkpt>
      <trkpt lat="46.595289" lon="7.038343">
        <ele>916</ele>
        <time>2014-06-05T17:25:56Z</time>
      </trkpt>
      <trkpt lat="46.595086" lon="7.038246">
        <ele>916</ele>
        <time>2014-06-05T17:26:04Z</time>
      </trkpt>
      <trkpt lat="46.594951" lon="7.038183">
        <ele>916</ele>
        <time>2014-06-05T17:26:12Z</time>
      </trkpt>
      <trkpt lat="46.59476" lon="7.03811">
        <ele>916</ele>
        <time>2014-06-05T17:26:22Z</time>
      </trkpt>
      <trkpt lat="46.594596" lon="7.038002">
        <ele>930</ele>
        <time>2014-06-05T17:26:30Z</time>
      </trkpt>
      <trkpt lat="46.594486" lon="7.037797">
        <ele>930</ele>
        <time>2014-06-05T17:26:38Z</time>
      </trkpt>
      <trkpt lat="46.594457" lon="7.037475">
        <ele>930</ele>
        <time>2014-06-05T17:26:48Z</time>
      </trkpt>
      <trkpt lat="46.594477" lon="7.037199">
        <ele>947</ele>
        <time>2014-06-05T17:26:56Z</time>
      </trkpt>
      <trkpt lat="46.594495" lon="7.036881">
        <ele>947</ele>
        <time>2014-06-05T17:27:06Z</time>
      </trkpt>
      <trkpt lat="46.59454" lon="7.036565">
        <ele>947</ele>
        <time>2014-06-05T17:27:16Z</time>
      </trkpt>
      <trkpt lat="46.594633" lon="7.036332">
        <ele>937</ele>
        <time>2014-06-05T17:27:25Z</time>
      </trkpt>
      <trkpt lat="46.594742" lon="7.036148">
        <ele>937</ele>
        <time>2014-06-05T17:27:33Z</time>
      </trkpt>
      <trkpt lat="46.594926" lon="7.035966">
        <ele>937</ele>
        <time>2014-06-05T17:27:42Z</time>
      </trkpt>
      <trkpt lat="46.595039" lon="7.035843">
        <ele>937</ele>
        <time>2014-06-05T17:27:48Z</time>
      </trkpt>
      <trkpt lat="46.595202" lon="7.03564">
        <ele>937</ele>
        <time>2014-06-05T17:27:57Z</time>
      </trkpt>
      <trkpt lat="46.595269" lon="7.035554">
        <ele>937</ele>
        <time>2014-06-05T17:28:01Z</time>
      </trkpt>
      <trkpt lat="46.595392" lon="7.035369">
        <ele>957</ele>
        <time>2014-06-05T17:28:09Z</time>
      </trkpt>
      <trkpt lat="46.595482" lon="7.035253">
        <ele>948</ele>
        <time>2014-06-05T17:28:15Z</time>
      </trkpt>
      <trkpt lat="46.595645" lon="7.035062">
        <ele>948</ele>
        <time>2014-06-05T17:28:25Z</time>
      </trkpt>
      <trkpt lat="46.595853" lon="7.034906">
        <ele>948</ele>
        <time>2014-06-05T17:28:37Z</time>
      </trkpt>
      <trkpt lat="46.596008" lon="7.034754">
        <ele>948</ele>
        <time>2014-06-05T17:28:46Z</time>
      </trkpt>
      <trkpt lat="46.596081" lon="7.034512">
        <ele>953</ele>
        <time>2014-06-05T17:28:56Z</time>
      </trkpt>
      <trkpt lat="46.596131" lon="7.034192">
        <ele>953</ele>
        <time>2014-06-05T17:29:03Z</time>
      </trkpt>
      <trkpt lat="46.596064" lon="7.033936">
        <ele>953</ele>
        <time>2014-06-05T17:29:10Z</time>
      </trkpt>
      <trkpt lat="46.595997" lon="7.033673">
        <ele>951</ele>
        <time>2014-06-05T17:29:17Z</time>
      </trkpt>
      <trkpt lat="46.595942" lon="7.033416">
        <ele>951</ele>
        <time>2014-06-05T17:29:25Z</time>
      </trkpt>
      <trkpt lat="46.595875" lon="7.033164">
        <ele>951</ele>
        <time>2014-06-05T17:29:33Z</time>
      </trkpt>
      <trkpt lat="46.595849" lon="7.033065">
        <ele>951</ele>
        <time>2014-06-05T17:29:36Z</time>
      </trkpt>
      <trkpt lat="46.595829" lon="7.032958">
        <ele>959</ele>
        <time>2014-06-05T17:29:39Z</time>
      </trkpt>
      <trkpt lat="46.595774" lon="7.032677">
        <ele>959</ele>
        <time>2014-06-05T17:29:47Z</time>
      </trkpt>
      <trkpt lat="46.595749" lon="7.032423">
        <ele>959</ele>
        <time>2014-06-05T17:29:55Z</time>
      </trkpt>
      <trkpt lat="46.595735" lon="7.032085">
        <ele>961</ele>
        <time>2014-06-05T17:30:05Z</time>
      </trkpt>
      <trkpt lat="46.59572" lon="7.031761">
        <ele>961</ele>
        <time>2014-06-05T17:30:14Z</time>
      </trkpt>
      <trkpt lat="46.595709" lon="7.031654">
        <ele>961</ele>
        <time>2014-06-05T17:30:17Z</time>
      </trkpt>
      <trkpt lat="46.595706" lon="7.031542">
        <ele>961</ele>
        <time>2014-06-05T17:30:20Z</time>
      </trkpt>
      <trkpt lat="46.595693" lon="7.03124">
        <ele>962</ele>
        <time>2014-06-05T17:30:29Z</time>
      </trkpt>
      <trkpt lat="46.595659" lon="7.030998">
        <ele>962</ele>
        <time>2014-06-05T17:30:37Z</time>
      </trkpt>
      <trkpt lat="46.59556" lon="7.030681">
        <ele>962</ele>
        <time>2014-06-05T17:30:48Z</time>
      </trkpt>
      <trkpt lat="46.595483" lon="7.030507">
        <ele>962</ele>
        <time>2014-06-05T17:30:55Z</time>
      </trkpt>
      <trkpt lat="46.595427" lon="7.030358">
        <ele>987</ele>
        <time>2014-06-05T17:31:02Z</time>
      </trkpt>
      <trkpt lat="46.595344" lon="7.030197">
        <ele>987</ele>
        <time>2014-06-05T17:31:09Z</time>
      </trkpt>
      <trkpt lat="46.595241" lon="7.029976">
        <ele>987</ele>
        <time>2014-06-05T17:31:18Z</time>
      </trkpt>
      <trkpt lat="46.595125" lon="7.029718">
        <ele>987</ele>
        <time>2014-06-05T17:31:28Z</time>
      </trkpt>
      <trkpt lat="46.595011" lon="7.029494">
        <ele>987</ele>
        <time>2014-06-05T17:31:37Z</time>
      </trkpt>
      <trkpt lat="46.594919" lon="7.029272">
        <ele>987</ele>
        <time>2014-06-05T17:31:46Z</time>
      </trkpt>
      <trkpt lat="46.594894" lon="7.028987">
        <ele>987</ele>
        <time>2014-06-05T17:31:57Z</time>
      </trkpt>
      <trkpt lat="46.594881" lon="7.028734">
        <ele>985</ele>
        <time>2014-06-05T17:32:05Z</time>
      </trkpt>
      <trkpt lat="46.594845" lon="7.028129">
        <ele>985</ele>
        <time>2014-06-05T17:32:21Z</time>
      </trkpt>
      <trkpt lat="46.594811" lon="7.027874">
        <ele>991</ele>
        <time>2014-06-05T17:32:29Z</time>
      </trkpt>
      <trkpt lat="46.594778" lon="7.027729">
        <ele>991</ele>
        <time>2014-06-05T17:32:35Z</time>
      </trkpt>
      <trkpt lat="46.594737" lon="7.027388">
        <ele>991</ele>
        <time>2014-06-05T17:32:45Z</time>
      </trkpt>
      <trkpt lat="46.594749" lon="7.026975">
        <ele>999</ele>
        <time>2014-06-05T17:32:56Z</time>
      </trkpt>
      <trkpt lat="46.594808" lon="7.026683">
        <ele>999</ele>
        <time>2014-06-05T17:33:04Z</time>
      </trkpt>
      <trkpt lat="46.594817" lon="7.026614">
        <ele>999</ele>
        <time>2014-06-05T17:33:09Z</time>
      </trkpt>
      <trkpt lat="46.594817" lon="7.026614">
        <ele>999</ele>
        <time>2014-06-05T17:33:16Z</time>
      </trkpt>
      <trkpt lat="46.594817" lon="7.026614">
        <ele>999</ele>
        <time>2014-06-05T17:36:36Z</time>
      </trkpt>
      <trkpt lat="46.594709" lon="7.026341">
        <ele>999</ele>
        <time>2014-06-05T17:36:36Z</time>
      </trkpt>
      <trkpt lat="46.594627" lon="7.026053">
        <ele>999</ele>
        <time>2014-06-05T17:36:49Z</time>
      </trkpt>
      <trkpt lat="46.594496" lon="7.025793">
        <ele>1008</ele>
        <time>2014-06-05T17:37:01Z</time>
      </trkpt>
      <trkpt lat="46.594339" lon="7.02558">
        <ele>1008</ele>
        <time>2014-06-05T17:37:11Z</time>
      </trkpt>
      <trkpt lat="46.594178" lon="7.025385">
        <ele>1009</ele>
        <time>2014-06-05T17:37:19Z</time>
      </trkpt>
      <trkpt lat="46.594101" lon="7.025304">
        <ele>1009</ele>
        <time>2014-06-05T17:37:22Z</time>
      </trkpt>
      <trkpt lat="46.594025" lon="7.025212">
        <ele>1009</ele>
        <time>2014-06-05T17:37:25Z</time>
      </trkpt>
      <trkpt lat="46.593891" lon="7.025004">
        <ele>1009</ele>
        <time>2014-06-05T17:37:31Z</time>
      </trkpt>
      <trkpt lat="46.593768" lon="7.024788">
        <ele>1038</ele>
        <time>2014-06-05T17:37:37Z</time>
      </trkpt>
      <trkpt lat="46.593611" lon="7.024578">
        <ele>1040</ele>
        <time>2014-06-05T17:37:45Z</time>
      </trkpt>
      <trkpt lat="46.593689" lon="7.024309">
        <ele>1040</ele>
        <time>2014-06-05T17:37:55Z</time>
      </trkpt>
      <trkpt lat="46.593585" lon="7.024036">
        <ele>1040</ele>
        <time>2014-06-05T17:38:02Z</time>
      </trkpt>
      <trkpt lat="46.593533" lon="7.023784">
        <ele>1040</ele>
        <time>2014-06-05T17:38:07Z</time>
      </trkpt>
      <trkpt lat="46.593489" lon="7.023451">
        <ele>1031</ele>
        <time>2014-06-05T17:38:13Z</time>
      </trkpt>
      <trkpt lat="46.593392" lon="7.023233">
        <ele>1031</ele>
        <time>2014-06-05T17:38:20Z</time>
      </trkpt>
      <trkpt lat="46.593206" lon="7.02302">
        <ele>1031</ele>
        <time>2014-06-05T17:38:29Z</time>
      </trkpt>
      <trkpt lat="46.593353" lon="7.022712">
        <ele>1027</ele>
        <time>2014-06-05T17:38:39Z</time>
      </trkpt>
      <trkpt lat="46.593385" lon="7.022507">
        <ele>1027</ele>
        <time>2014-06-05T17:38:48Z</time>
      </trkpt>
      <trkpt lat="46.593632" lon="7.022485">
        <ele>1027</ele>
        <time>2014-06-05T17:39:00Z</time>
      </trkpt>
      <trkpt lat="46.593822" lon="7.022325">
        <ele>1016</ele>
        <time>2014-06-05T17:39:07Z</time>
      </trkpt>
      <trkpt lat="46.593968" lon="7.022178">
        <ele>1016</ele>
        <time>2014-06-05T17:39:15Z</time>
      </trkpt>
      <trkpt lat="46.594229" lon="7.022643">
        <ele>1016</ele>
        <time>2014-06-05T17:39:26Z</time>
      </trkpt>
      <trkpt lat="46.594286" lon="7.022915">
        <ele>1016</ele>
        <time>2014-06-05T17:39:29Z</time>
      </trkpt>
      <trkpt lat="46.594413" lon="7.023152">
        <ele>1013</ele>
        <time>2014-06-05T17:39:34Z</time>
      </trkpt>
      <trkpt lat="46.594717" lon="7.022888">
        <ele>1002</ele>
        <time>2014-06-05T17:39:41Z</time>
      </trkpt>
      <trkpt lat="46.594802" lon="7.022582">
        <ele>1002</ele>
        <time>2014-06-05T17:39:44Z</time>
      </trkpt>
      <trkpt lat="46.594968" lon="7.022056">
        <ele>1002</ele>
        <time>2014-06-05T17:39:49Z</time>
      </trkpt>
      <trkpt lat="46.595234" lon="7.021423">
        <ele>1002</ele>
        <time>2014-06-05T17:39:55Z</time>
      </trkpt>
      <trkpt lat="46.595349" lon="7.021035">
        <ele>1001</ele>
        <time>2014-06-05T17:39:58Z</time>
      </trkpt>
      <trkpt lat="46.595419" lon="7.020603">
        <ele>1001</ele>
        <time>2014-06-05T17:40:01Z</time>
      </trkpt>
      <trkpt lat="46.595455" lon="7.01988">
        <ele>986</ele>
        <time>2014-06-05T17:40:06Z</time>
      </trkpt>
      <trkpt lat="46.595662" lon="7.019037">
        <ele>985</ele>
        <time>2014-06-05T17:40:12Z</time>
      </trkpt>
      <trkpt lat="46.595889" lon="7.018895">
        <ele>985</ele>
        <time>2014-06-05T17:40:18Z</time>
      </trkpt>
      <trkpt lat="46.596035" lon="7.01907">
        <ele>985</ele>
        <time>2014-06-05T17:40:21Z</time>
      </trkpt>
      <trkpt lat="46.596403" lon="7.019573">
        <ele>975</ele>
        <time>2014-06-05T17:40:27Z</time>
      </trkpt>
      <trkpt lat="46.596862" lon="7.019849">
        <ele>973</ele>
        <time>2014-06-05T17:40:33Z</time>
      </trkpt>
      <trkpt lat="46.597126" lon="7.01985">
        <ele>973</ele>
        <time>2014-06-05T17:40:38Z</time>
      </trkpt>
      <trkpt lat="46.597434" lon="7.019902">
        <ele>965</ele>
        <time>2014-06-05T17:40:43Z</time>
      </trkpt>
      <trkpt lat="46.597772" lon="7.020096">
        <ele>965</ele>
        <time>2014-06-05T17:40:49Z</time>
      </trkpt>
      <trkpt lat="46.597906" lon="7.020282">
        <ele>965</ele>
        <time>2014-06-05T17:40:54Z</time>
      </trkpt>
      <trkpt lat="46.598021" lon="7.020404">
        <ele>957</ele>
        <time>2014-06-05T17:41:02Z</time>
      </trkpt>
      <trkpt lat="46.598479" lon="7.020569">
        <ele>953</ele>
        <time>2014-06-05T17:41:15Z</time>
      </trkpt>
      <trkpt lat="46.598799" lon="7.020752">
        <ele>950</ele>
        <time>2014-06-05T17:41:20Z</time>
      </trkpt>
      <trkpt lat="46.598999" lon="7.020918">
        <ele>950</ele>
        <time>2014-06-05T17:41:23Z</time>
      </trkpt>
      <trkpt lat="46.599196" lon="7.021013">
        <ele>950</ele>
        <time>2014-06-05T17:41:30Z</time>
      </trkpt>
      <trkpt lat="46.599196" lon="7.021013">
        <ele>950</ele>
        <time>2014-06-05T17:41:36Z</time>
      </trkpt>
      <trkpt lat="46.599196" lon="7.021013">
        <ele>950</ele>
        <time>2014-06-05T17:41:36Z</time>
      </trkpt>
      <trkpt lat="46.599196" lon="7.021013">
        <ele>950</ele>
        <time>2014-06-05T17:42:05Z</time>
      </trkpt>
      <trkpt lat="46.599135" lon="7.020814">
        <ele>950</ele>
        <time>2014-06-05T17:42:05Z</time>
      </trkpt>
      <trkpt lat="46.599019" lon="7.020568">
        <ele>950</ele>
        <time>2014-06-05T17:42:13Z</time>
      </trkpt>
      <trkpt lat="46.598843" lon="7.020177">
        <ele>948</ele>
        <time>2014-06-05T17:42:24Z</time>
      </trkpt>
      <trkpt lat="46.598723" lon="7.019938">
        <ele>957</ele>
        <time>2014-06-05T17:42:32Z</time>
      </trkpt>
      <trkpt lat="46.598636" lon="7.019765">
        <ele>957</ele>
        <time>2014-06-05T17:42:39Z</time>
      </trkpt>
      <trkpt lat="46.598486" lon="7.019327">
        <ele>956</ele>
        <time>2014-06-05T17:42:50Z</time>
      </trkpt>
      <trkpt lat="46.598327" lon="7.019059">
        <ele>956</ele>
        <time>2014-06-05T17:42:58Z</time>
      </trkpt>
      <trkpt lat="46.598165" lon="7.018787">
        <ele>957</ele>
        <time>2014-06-05T17:43:05Z</time>
      </trkpt>
      <trkpt lat="46.598079" lon="7.018475">
        <ele>957</ele>
        <time>2014-06-05T17:43:12Z</time>
      </trkpt>
      <trkpt lat="46.598012" lon="7.018178">
        <ele>957</ele>
        <time>2014-06-05T17:43:21Z</time>
      </trkpt>
      <trkpt lat="46.59783" lon="7.017879">
        <ele>959</ele>
        <time>2014-06-05T17:43:28Z</time>
      </trkpt>
      <trkpt lat="46.597664" lon="7.017579">
        <ele>959</ele>
        <time>2014-06-05T17:43:33Z</time>
      </trkpt>
      <trkpt lat="46.597569" lon="7.017247">
        <ele>959</ele>
        <time>2014-06-05T17:43:39Z</time>
      </trkpt>
      <trkpt lat="46.597521" lon="7.016949">
        <ele>958</ele>
        <time>2014-06-05T17:43:45Z</time>
      </trkpt>
      <trkpt lat="46.597538" lon="7.016685">
        <ele>958</ele>
        <time>2014-06-05T17:43:50Z</time>
      </trkpt>
      <trkpt lat="46.597492" lon="7.01628">
        <ele>961</ele>
        <time>2014-06-05T17:43:57Z</time>
      </trkpt>
      <trkpt lat="46.597386" lon="7.016014">
        <ele>961</ele>
        <time>2014-06-05T17:44:03Z</time>
      </trkpt>
      <trkpt lat="46.597214" lon="7.015992">
        <ele>961</ele>
        <time>2014-06-05T17:44:08Z</time>
      </trkpt>
      <trkpt lat="46.597012" lon="7.015976">
        <ele>973</ele>
        <time>2014-06-05T17:44:16Z</time>
      </trkpt>
      <trkpt lat="46.596924" lon="7.015893">
        <ele>973</ele>
        <time>2014-06-05T17:44:22Z</time>
      </trkpt>
      <trkpt lat="46.596844" lon="7.015823">
        <ele>973</ele>
        <time>2014-06-05T17:44:30Z</time>
      </trkpt>
      <trkpt lat="46.596844" lon="7.015823">
        <ele>973</ele>
        <time>2014-06-05T17:44:37Z</time>
      </trkpt>
      <trkpt lat="46.596844" lon="7.015823">
        <ele>973</ele>
        <time>2014-06-05T17:45:19Z</time>
      </trkpt>
      <trkpt lat="46.597114" lon="7.015687">
        <ele>973</ele>
        <time>2014-06-05T17:45:19Z</time>
      </trkpt>
      <trkpt lat="46.597319" lon="7.015647">
        <ele>961</ele>
        <time>2014-06-05T17:45:27Z</time>
      </trkpt>
      <trkpt lat="46.597319" lon="7.015647">
        <ele>961</ele>
        <time>2014-06-05T17:45:34Z</time>
      </trkpt>
      <trkpt lat="46.597319" lon="7.015647">
        <ele>961</ele>
        <time>2014-06-05T17:45:37Z</time>
      </trkpt>
      <trkpt lat="46.59741" lon="7.015484">
        <ele>961</ele>
        <time>2014-06-05T17:45:37Z</time>
      </trkpt>
      <trkpt lat="46.597523" lon="7.01545">
        <ele>961</ele>
        <time>2014-06-05T17:45:44Z</time>
      </trkpt>
      <trkpt lat="46.597839" lon="7.015391">
        <ele>939</ele>
        <time>2014-06-05T17:45:55Z</time>
      </trkpt>
      <trkpt lat="46.597983" lon="7.015548">
        <ele>952</ele>
        <time>2014-06-05T17:46:03Z</time>
      </trkpt>
      <trkpt lat="46.598033" lon="7.015444">
        <ele>952</ele>
        <time>2014-06-05T17:46:10Z</time>
      </trkpt>
      <trkpt lat="46.597951" lon="7.015208">
        <ele>911</ele>
        <time>2014-06-05T17:46:16Z</time>
      </trkpt>
      <trkpt lat="46.597684" lon="7.014906">
        <ele>939</ele>
        <time>2014-06-05T17:46:22Z</time>
      </trkpt>
      <trkpt lat="46.597361" lon="7.014784">
        <ele>939</ele>
        <time>2014-06-05T17:46:27Z</time>
      </trkpt>
      <trkpt lat="46.597186" lon="7.014706">
        <ele>939</ele>
        <time>2014-06-05T17:46:36Z</time>
      </trkpt>
      <trkpt lat="46.597429" lon="7.014583">
        <ele>911</ele>
        <time>2014-06-05T17:46:45Z</time>
      </trkpt>
      <trkpt lat="46.597551" lon="7.014554">
        <ele>911</ele>
        <time>2014-06-05T17:46:48Z</time>
      </trkpt>
      <trkpt lat="46.59785" lon="7.014555">
        <ele>911</ele>
        <time>2014-06-05T17:46:54Z</time>
      </trkpt>
      <trkpt lat="46.598011" lon="7.014582">
        <ele>894</ele>
        <time>2014-06-05T17:46:57Z</time>
      </trkpt>
      <trkpt lat="46.597519" lon="7.014118">
        <ele>911</ele>
        <time>2014-06-05T17:48:33Z</time>
      </trkpt>
      <trkpt lat="46.597519" lon="7.014118">
        <ele>911</ele>
        <time>2014-06-05T17:48:40Z</time>
      </trkpt>
      <trkpt lat="46.597519" lon="7.014118">
        <ele>911</ele>
        <time>2014-06-05T17:48:40Z</time>
      </trkpt>
      <trkpt lat="46.597519" lon="7.014118">
        <ele>911</ele>
        <time>2014-06-05T17:49:45Z</time>
      </trkpt>
      <trkpt lat="46.597298" lon="7.013913">
        <ele>911</ele>
        <time>2014-06-05T17:49:45Z</time>
      </trkpt>
      <trkpt lat="46.597125" lon="7.013985">
        <ele>912</ele>
        <time>2014-06-05T17:49:51Z</time>
      </trkpt>
      <trkpt lat="46.59707" lon="7.013971">
        <ele>912</ele>
        <time>2014-06-05T17:49:54Z</time>
      </trkpt>
      <trkpt lat="46.59707" lon="7.013971">
        <ele>912</ele>
        <time>2014-06-05T17:50:00Z</time>
      </trkpt>
      <trkpt lat="46.59707" lon="7.013971">
        <ele>912</ele>
        <time>2014-06-05T17:50:05Z</time>
      </trkpt>
      <trkpt lat="46.596817" lon="7.013999">
        <ele>912</ele>
        <time>2014-06-05T17:50:05Z</time>
      </trkpt>
      <trkpt lat="46.596742" lon="7.013983">
        <ele>912</ele>
        <time>2014-06-05T17:50:08Z</time>
      </trkpt>
      <trkpt lat="46.596742" lon="7.013983">
        <ele>912</ele>
        <time>2014-06-05T17:50:13Z</time>
      </trkpt>
      <trkpt lat="46.596742" lon="7.013983">
        <ele>912</ele>
        <time>2014-06-05T17:51:08Z</time>
      </trkpt>
      <trkpt lat="46.595683" lon="7.013646">
        <ele>914</ele>
        <time>2014-06-05T17:51:08Z</time>
      </trkpt>
      <trkpt lat="46.595541" lon="7.013714">
        <ele>914</ele>
        <time>2014-06-05T17:51:13Z</time>
      </trkpt>
      <trkpt lat="46.595303" lon="7.013772">
        <ele>912</ele>
        <time>2014-06-05T17:51:21Z</time>
      </trkpt>
      <trkpt lat="46.595019" lon="7.013769">
        <ele>912</ele>
        <time>2014-06-05T17:51:30Z</time>
      </trkpt>
      <trkpt lat="46.594977" lon="7.013771">
        <ele>912</ele>
        <time>2014-06-05T17:51:32Z</time>
      </trkpt>
      <trkpt lat="46.594977" lon="7.013771">
        <ele>912</ele>
        <time>2014-06-05T17:51:38Z</time>
      </trkpt>
      <trkpt lat="46.594977" lon="7.013771">
        <ele>912</ele>
        <time>2014-06-05T17:51:50Z</time>
      </trkpt>
      <trkpt lat="46.594565" lon="7.013796">
        <ele>913</ele>
        <time>2014-06-05T17:51:50Z</time>
      </trkpt>
      <trkpt lat="46.594361" lon="7.013759">
        <ele>929</ele>
        <time>2014-06-05T17:51:58Z</time>
      </trkpt>
      <trkpt lat="46.594289" lon="7.01378">
        <ele>929</ele>
        <time>2014-06-05T17:52:01Z</time>
      </trkpt>
      <trkpt lat="46.594289" lon="7.01378">
        <ele>929</ele>
        <time>2014-06-05T17:52:07Z</time>
      </trkpt>
      <trkpt lat="46.594289" lon="7.01378">
        <ele>929</ele>
        <time>2014-06-05T17:52:23Z</time>
      </trkpt>
      <trkpt lat="46.593971" lon="7.014194">
        <ele>913</ele>
        <time>2014-06-05T17:52:23Z</time>
      </trkpt>
      <trkpt lat="46.593805" lon="7.014226">
        <ele>913</ele>
        <time>2014-06-05T17:52:28Z</time>
      </trkpt>
      <trkpt lat="46.593805" lon="7.014226">
        <ele>913</ele>
        <time>2014-06-05T17:52:33Z</time>
      </trkpt>
      <trkpt lat="46.593805" lon="7.014226">
        <ele>913</ele>
        <time>2014-06-05T17:52:35Z</time>
      </trkpt>
      <trkpt lat="46.593536" lon="7.014231">
        <ele>921</ele>
        <time>2014-06-05T17:52:45Z</time>
      </trkpt>
      <trkpt lat="46.593771" lon="7.014418">
        <ele>921</ele>
        <time>2014-06-05T17:53:06Z</time>
      </trkpt>
      <trkpt lat="46.593852" lon="7.014401">
        <ele>913</ele>
        <time>2014-06-05T17:53:13Z</time>
      </trkpt>
      <trkpt lat="46.594042" lon="7.014185">
        <ele>913</ele>
        <time>2014-06-05T17:53:22Z</time>
      </trkpt>
      <trkpt lat="46.59424" lon="7.014189">
        <ele>913</ele>
        <time>2014-06-05T17:53:30Z</time>
      </trkpt>
      <trkpt lat="46.594288" lon="7.014202">
        <ele>913</ele>
        <time>2014-06-05T17:53:33Z</time>
      </trkpt>
      <trkpt lat="46.594288" lon="7.014202">
        <ele>913</ele>
        <time>2014-06-05T17:54:06Z</time>
      </trkpt>
      <trkpt lat="46.594288" lon="7.014202">
        <ele>913</ele>
        <time>2014-06-05T17:55:27Z</time>
      </trkpt>
      <trkpt lat="46.594673" lon="7.014343">
        <ele>914</ele>
        <time>2014-06-05T17:55:27Z</time>
      </trkpt>
      <trkpt lat="46.594673" lon="7.014343">
        <ele>914</ele>
        <time>2014-06-05T17:55:35Z</time>
      </trkpt>
      <trkpt lat="46.594673" lon="7.014343">
        <ele>914</ele>
        <time>2014-06-05T17:55:35Z</time>
      </trkpt>
      <trkpt lat="46.594673" lon="7.014343">
        <ele>914</ele>
        <time>2014-06-05T17:56:09Z</time>
      </trkpt>
      <trkpt lat="46.594807" lon="7.014015">
        <ele>914</ele>
        <time>2014-06-05T17:56:09Z</time>
      </trkpt>
      <trkpt lat="46.594865" lon="7.013986">
        <ele>914</ele>
        <time>2014-06-05T17:56:12Z</time>
      </trkpt>
      <trkpt lat="46.594865" lon="7.013986">
        <ele>914</ele>
        <time>2014-06-05T17:56:19Z</time>
      </trkpt>
      <trkpt lat="46.594865" lon="7.013986">
        <ele>914</ele>
        <time>2014-06-05T17:56:23Z</time>
      </trkpt>
      <trkpt lat="46.594906" lon="7.013757">
        <ele>912</ele>
        <time>2014-06-05T17:56:23Z</time>
      </trkpt>
      <trkpt lat="46.594975" lon="7.013444">
        <ele>912</ele>
        <time>2014-06-05T17:56:33Z</time>
      </trkpt>
      <trkpt lat="46.595002" lon="7.013254">
        <ele>912</ele>
        <time>2014-06-05T17:56:46Z</time>
      </trkpt>
      <trkpt lat="46.595206" lon="7.013156">
        <ele>912</ele>
        <time>2014-06-05T17:56:59Z</time>
      </trkpt>
      <trkpt lat="46.595206" lon="7.013156">
        <ele>912</ele>
        <time>2014-06-05T17:57:06Z</time>
      </trkpt>
      <trkpt lat="46.595206" lon="7.013156">
        <ele>912</ele>
        <time>2014-06-05T17:57:09Z</time>
      </trkpt>
      <trkpt lat="46.59532" lon="7.013236">
        <ele>912</ele>
        <time>2014-06-05T17:57:09Z</time>
      </trkpt>
      <trkpt lat="46.595428" lon="7.01348">
        <ele>912</ele>
        <time>2014-06-05T17:57:15Z</time>
      </trkpt>
      <trkpt lat="46.595524" lon="7.013639">
        <ele>914</ele>
        <time>2014-06-05T17:57:23Z</time>
      </trkpt>
      <trkpt lat="46.595695" lon="7.013772">
        <ele>914</ele>
        <time>2014-06-05T17:57:32Z</time>
      </trkpt>
      <trkpt lat="46.595883" lon="7.013892">
        <ele>912</ele>
        <time>2014-06-05T17:57:42Z</time>
      </trkpt>
      <trkpt lat="46.596095" lon="7.013782">
        <ele>912</ele>
        <time>2014-06-05T17:57:55Z</time>
      </trkpt>
      <trkpt lat="46.596177" lon="7.013738">
        <ele>914</ele>
        <time>2014-06-05T17:57:59Z</time>
      </trkpt>
      <trkpt lat="46.596177" lon="7.013738">
        <ele>914</ele>
        <time>2014-06-05T17:58:07Z</time>
      </trkpt>
      <trkpt lat="46.596177" lon="7.013738">
        <ele>914</ele>
        <time>2014-06-05T17:58:09Z</time>
      </trkpt>
      <trkpt lat="46.596586" lon="7.013716">
        <ele>927</ele>
        <time>2014-06-05T17:58:09Z</time>
      </trkpt>
      <trkpt lat="46.59698" lon="7.013818">
        <ele>912</ele>
        <time>2014-06-05T17:58:14Z</time>
      </trkpt>
      <trkpt lat="46.597377" lon="7.0139">
        <ele>911</ele>
        <time>2014-06-05T17:58:19Z</time>
      </trkpt>
      <trkpt lat="46.597721" lon="7.013907">
        <ele>911</ele>
        <time>2014-06-05T17:58:25Z</time>
      </trkpt>
      <trkpt lat="46.597867" lon="7.013902">
        <ele>911</ele>
        <time>2014-06-05T17:58:29Z</time>
      </trkpt>
      <trkpt lat="46.597867" lon="7.013902">
        <ele>911</ele>
        <time>2014-06-05T17:58:34Z</time>
      </trkpt>
      <trkpt lat="46.597867" lon="7.013902">
        <ele>911</ele>
        <time>2014-06-05T17:58:36Z</time>
      </trkpt>
      <trkpt lat="46.597998" lon="7.013887">
        <ele>894</ele>
        <time>2014-06-05T17:58:36Z</time>
      </trkpt>
      <trkpt lat="46.598276" lon="7.014125">
        <ele>894</ele>
        <time>2014-06-05T17:58:42Z</time>
      </trkpt>
      <trkpt lat="46.598546" lon="7.01426">
        <ele>894</ele>
        <time>2014-06-05T17:58:49Z</time>
      </trkpt>
      <trkpt lat="46.598834" lon="7.014402">
        <ele>903</ele>
        <time>2014-06-05T17:58:55Z</time>
      </trkpt>
      <trkpt lat="46.599203" lon="7.014669">
        <ele>895</ele>
        <time>2014-06-05T17:59:01Z</time>
      </trkpt>
      <trkpt lat="46.599521" lon="7.014966">
        <ele>895</ele>
        <time>2014-06-05T17:59:07Z</time>
      </trkpt>
      <trkpt lat="46.599762" lon="7.015336">
        <ele>912</ele>
        <time>2014-06-05T17:59:13Z</time>
      </trkpt>
      <trkpt lat="46.59978" lon="7.01576">
        <ele>897</ele>
        <time>2014-06-05T17:59:20Z</time>
      </trkpt>
      <trkpt lat="46.599791" lon="7.016215">
        <ele>897</ele>
        <time>2014-06-05T17:59:26Z</time>
      </trkpt>
      <trkpt lat="46.599784" lon="7.016397">
        <ele>888</ele>
        <time>2014-06-05T17:59:32Z</time>
      </trkpt>
      <trkpt lat="46.599844" lon="7.016679">
        <ele>888</ele>
        <time>2014-06-05T17:59:41Z</time>
      </trkpt>
      <trkpt lat="46.600009" lon="7.016892">
        <ele>888</ele>
        <time>2014-06-05T17:59:49Z</time>
      </trkpt>
      <trkpt lat="46.6002" lon="7.017163">
        <ele>888</ele>
        <time>2014-06-05T17:59:55Z</time>
      </trkpt>
      <trkpt lat="46.600346" lon="7.017514">
        <ele>880</ele>
        <time>2014-06-05T18:00:01Z</time>
      </trkpt>
      <trkpt lat="46.600444" lon="7.017947">
        <ele>893</ele>
        <time>2014-06-05T18:00:07Z</time>
      </trkpt>
      <trkpt lat="46.600568" lon="7.018481">
        <ele>885</ele>
        <time>2014-06-05T18:00:13Z</time>
      </trkpt>
      <trkpt lat="46.600721" lon="7.01899">
        <ele>878</ele>
        <time>2014-06-05T18:00:19Z</time>
      </trkpt>
      <trkpt lat="46.600961" lon="7.019588">
        <ele>878</ele>
        <time>2014-06-05T18:00:25Z</time>
      </trkpt>
      <trkpt lat="46.601338" lon="7.020004">
        <ele>883</ele>
        <time>2014-06-05T18:00:30Z</time>
      </trkpt>
      <trkpt lat="46.601713" lon="7.020337">
        <ele>883</ele>
        <time>2014-06-05T18:00:36Z</time>
      </trkpt>
      <trkpt lat="46.601904" lon="7.020668">
        <ele>862</ele>
        <time>2014-06-05T18:00:41Z</time>
      </trkpt>
      <trkpt lat="46.601986" lon="7.020986">
        <ele>862</ele>
        <time>2014-06-05T18:00:47Z</time>
      </trkpt>
      <trkpt lat="46.602071" lon="7.021299">
        <ele>862</ele>
        <time>2014-06-05T18:00:54Z</time>
      </trkpt>
      <trkpt lat="46.602113" lon="7.021523">
        <ele>860</ele>
        <time>2014-06-05T18:01:01Z</time>
      </trkpt>
      <trkpt lat="46.602196" lon="7.021867">
        <ele>880</ele>
        <time>2014-06-05T18:01:08Z</time>
      </trkpt>
      <trkpt lat="46.602295" lon="7.022334">
        <ele>873</ele>
        <time>2014-06-05T18:01:14Z</time>
      </trkpt>
      <trkpt lat="46.602438" lon="7.022835">
        <ele>873</ele>
        <time>2014-06-05T18:01:20Z</time>
      </trkpt>
      <trkpt lat="46.602589" lon="7.023186">
        <ele>867</ele>
        <time>2014-06-05T18:01:26Z</time>
      </trkpt>
      <trkpt lat="46.602867" lon="7.023706">
        <ele>867</ele>
        <time>2014-06-05T18:01:31Z</time>
      </trkpt>
      <trkpt lat="46.603221" lon="7.02424">
        <ele>872</ele>
        <time>2014-06-05T18:01:37Z</time>
      </trkpt>
      <trkpt lat="46.603569" lon="7.024838">
        <ele>858</ele>
        <time>2014-06-05T18:01:42Z</time>
      </trkpt>
      <trkpt lat="46.604104" lon="7.025677">
        <ele>850</ele>
        <time>2014-06-05T18:01:48Z</time>
      </trkpt>
      <trkpt lat="46.604717" lon="7.026552">
        <ele>859</ele>
        <time>2014-06-05T18:01:54Z</time>
      </trkpt>
      <trkpt lat="46.605136" lon="7.027383">
        <ele>845</ele>
        <time>2014-06-05T18:01:59Z</time>
      </trkpt>
      <trkpt lat="46.605485" lon="7.02815">
        <ele>853</ele>
        <time>2014-06-05T18:02:04Z</time>
      </trkpt>
      <trkpt lat="46.605888" lon="7.028878">
        <ele>840</ele>
        <time>2014-06-05T18:02:10Z</time>
      </trkpt>
      <trkpt lat="46.606199" lon="7.029403">
        <ele>840</ele>
        <time>2014-06-05T18:02:15Z</time>
      </trkpt>
      <trkpt lat="46.60649" lon="7.029918">
        <ele>842</ele>
        <time>2014-06-05T18:02:20Z</time>
      </trkpt>
      <trkpt lat="46.606805" lon="7.030391">
        <ele>842</ele>
        <time>2014-06-05T18:02:26Z</time>
      </trkpt>
      <trkpt lat="46.607032" lon="7.030853">
        <ele>834</ele>
        <time>2014-06-05T18:02:31Z</time>
      </trkpt>
      <trkpt lat="46.607585" lon="7.03138">
        <ele>824</ele>
        <time>2014-06-05T18:02:37Z</time>
      </trkpt>
      <trkpt lat="46.608003" lon="7.031847">
        <ele>824</ele>
        <time>2014-06-05T18:02:42Z</time>
      </trkpt>
      <trkpt lat="46.608416" lon="7.032288">
        <ele>823</ele>
        <time>2014-06-05T18:02:48Z</time>
      </trkpt>
      <trkpt lat="46.608756" lon="7.032613">
        <ele>823</ele>
        <time>2014-06-05T18:02:54Z</time>
      </trkpt>
      <trkpt lat="46.608717" lon="7.032585">
        <ele>823</ele>
        <time>2014-06-05T18:03:03Z</time>
      </trkpt>
      <trkpt lat="46.608659" lon="7.032589">
        <ele>823</ele>
        <time>2014-06-05T18:03:05Z</time>
      </trkpt>
      <trkpt lat="46.608659" lon="7.032589">
        <ele>823</ele>
        <time>2014-06-05T18:03:10Z</time>
      </trkpt>
      <trkpt lat="46.608659" lon="7.032589">
        <ele>823</ele>
        <time>2014-06-05T18:03:38Z</time>
      </trkpt>
      <trkpt lat="46.60887" lon="7.032741">
        <ele>823</ele>
        <time>2014-06-05T18:03:38Z</time>
      </trkpt>
      <trkpt lat="46.609099" lon="7.032951">
        <ele>823</ele>
        <time>2014-06-05T18:03:44Z</time>
      </trkpt>
      <trkpt lat="46.609381" lon="7.033199">
        <ele>821</ele>
        <time>2014-06-05T18:03:50Z</time>
      </trkpt>
      <trkpt lat="46.609533" lon="7.033337">
        <ele>821</ele>
        <time>2014-06-05T18:03:53Z</time>
      </trkpt>
      <trkpt lat="46.609681" lon="7.0335">
        <ele>820</ele>
        <time>2014-06-05T18:03:56Z</time>
      </trkpt>
      <trkpt lat="46.609826" lon="7.033673">
        <ele>820</ele>
        <time>2014-06-05T18:03:59Z</time>
      </trkpt>
      <trkpt lat="46.610063" lon="7.033987">
        <ele>819</ele>
        <time>2014-06-05T18:04:04Z</time>
      </trkpt>
      <trkpt lat="46.61035" lon="7.03436">
        <ele>819</ele>
        <time>2014-06-05T18:04:10Z</time>
      </trkpt>
      <trkpt lat="46.610651" lon="7.034747">
        <ele>813</ele>
        <time>2014-06-05T18:04:16Z</time>
      </trkpt>
      <trkpt lat="46.610962" lon="7.035185">
        <ele>813</ele>
        <time>2014-06-05T18:04:22Z</time>
      </trkpt>
      <trkpt lat="46.611287" lon="7.03569">
        <ele>809</ele>
        <time>2014-06-05T18:04:28Z</time>
      </trkpt>
      <trkpt lat="46.611574" lon="7.036164">
        <ele>809</ele>
        <time>2014-06-05T18:04:33Z</time>
      </trkpt>
      <trkpt lat="46.611878" lon="7.036668">
        <ele>808</ele>
        <time>2014-06-05T18:04:38Z</time>
      </trkpt>
      <trkpt lat="46.612171" lon="7.03737">
        <ele>806</ele>
        <time>2014-06-05T18:04:44Z</time>
      </trkpt>
      <trkpt lat="46.612373" lon="7.037982">
        <ele>806</ele>
        <time>2014-06-05T18:04:49Z</time>
      </trkpt>
      <trkpt lat="46.612577" lon="7.038686">
        <ele>803</ele>
        <time>2014-06-05T18:04:55Z</time>
      </trkpt>
      <trkpt lat="46.612807" lon="7.039307">
        <ele>800</ele>
        <time>2014-06-05T18:05:01Z</time>
      </trkpt>
      <trkpt lat="46.613035" lon="7.039867">
        <ele>801</ele>
        <time>2014-06-05T18:05:07Z</time>
      </trkpt>
      <trkpt lat="46.613253" lon="7.040403">
        <ele>801</ele>
        <time>2014-06-05T18:05:14Z</time>
      </trkpt>
      <trkpt lat="46.613285" lon="7.040858">
        <ele>800</ele>
        <time>2014-06-05T18:05:21Z</time>
      </trkpt>
      <trkpt lat="46.613361" lon="7.041394">
        <ele>798</ele>
        <time>2014-06-05T18:05:27Z</time>
      </trkpt>
      <trkpt lat="46.613495" lon="7.042026">
        <ele>798</ele>
        <time>2014-06-05T18:05:34Z</time>
      </trkpt>
      <trkpt lat="46.613505" lon="7.042558">
        <ele>794</ele>
        <time>2014-06-05T18:05:39Z</time>
      </trkpt>
      <trkpt lat="46.613509" lon="7.042876">
        <ele>794</ele>
        <time>2014-06-05T18:05:42Z</time>
      </trkpt>
      <trkpt lat="46.613601" lon="7.043533">
        <ele>791</ele>
        <time>2014-06-05T18:05:49Z</time>
      </trkpt>
      <trkpt lat="46.613687" lon="7.044046">
        <ele>790</ele>
        <time>2014-06-05T18:05:54Z</time>
      </trkpt>
      <trkpt lat="46.613759" lon="7.044674">
        <ele>788</ele>
        <time>2014-06-05T18:06:00Z</time>
      </trkpt>
      <trkpt lat="46.613819" lon="7.045005">
        <ele>789</ele>
        <time>2014-06-05T18:06:03Z</time>
      </trkpt>
      <trkpt lat="46.613853" lon="7.045348">
        <ele>789</ele>
        <time>2014-06-05T18:06:06Z</time>
      </trkpt>
      <trkpt lat="46.613932" lon="7.045841">
        <ele>786</ele>
        <time>2014-06-05T18:06:11Z</time>
      </trkpt>
      <trkpt lat="46.614028" lon="7.046418">
        <ele>785</ele>
        <time>2014-06-05T18:06:17Z</time>
      </trkpt>
      <trkpt lat="46.614143" lon="7.046981">
        <ele>785</ele>
        <time>2014-06-05T18:06:23Z</time>
      </trkpt>
      <trkpt lat="46.614191" lon="7.047352">
        <ele>785</ele>
        <time>2014-06-05T18:06:30Z</time>
      </trkpt>
      <trkpt lat="46.6143" lon="7.047793">
        <ele>785</ele>
        <time>2014-06-05T18:06:35Z</time>
      </trkpt>
      <trkpt lat="46.61441" lon="7.048355">
        <ele>783</ele>
        <time>2014-06-05T18:06:41Z</time>
      </trkpt>
      <trkpt lat="46.614542" lon="7.048897">
        <ele>780</ele>
        <time>2014-06-05T18:06:46Z</time>
      </trkpt>
      <trkpt lat="46.614706" lon="7.049586">
        <ele>782</ele>
        <time>2014-06-05T18:06:52Z</time>
      </trkpt>
      <trkpt lat="46.614811" lon="7.050121">
        <ele>780</ele>
        <time>2014-06-05T18:06:57Z</time>
      </trkpt>
      <trkpt lat="46.614942" lon="7.050779">
        <ele>779</ele>
        <time>2014-06-05T18:07:03Z</time>
      </trkpt>
      <trkpt lat="46.615052" lon="7.051319">
        <ele>778</ele>
        <time>2014-06-05T18:07:08Z</time>
      </trkpt>
      <trkpt lat="46.615271" lon="7.052267">
        <ele>777</ele>
        <time>2014-06-05T18:07:16Z</time>
      </trkpt>
      <trkpt lat="46.615348" lon="7.053105">
        <ele>776</ele>
        <time>2014-06-05T18:07:22Z</time>
      </trkpt>
      <trkpt lat="46.615316" lon="7.053484">
        <ele>776</ele>
        <time>2014-06-05T18:07:25Z</time>
      </trkpt>
      <trkpt lat="46.615338" lon="7.054343">
        <ele>773</ele>
        <time>2014-06-05T18:07:31Z</time>
      </trkpt>
      <trkpt lat="46.615356" lon="7.055233">
        <ele>771</ele>
        <time>2014-06-05T18:07:37Z</time>
      </trkpt>
      <trkpt lat="46.615268" lon="7.056057">
        <ele>769</ele>
        <time>2014-06-05T18:07:43Z</time>
      </trkpt>
      <trkpt lat="46.615213" lon="7.056795">
        <ele>766</ele>
        <time>2014-06-05T18:07:49Z</time>
      </trkpt>
      <trkpt lat="46.615109" lon="7.057305">
        <ele>763</ele>
        <time>2014-06-05T18:07:55Z</time>
      </trkpt>
      <trkpt lat="46.614894" lon="7.057754">
        <ele>763</ele>
        <time>2014-06-05T18:08:00Z</time>
      </trkpt>
      <trkpt lat="46.61469" lon="7.058192">
        <ele>762</ele>
        <time>2014-06-05T18:08:05Z</time>
      </trkpt>
      <trkpt lat="46.614585" lon="7.058688">
        <ele>762</ele>
        <time>2014-06-05T18:08:12Z</time>
      </trkpt>
      <trkpt lat="46.614885" lon="7.058924">
        <ele>761</ele>
        <time>2014-06-05T18:08:18Z</time>
      </trkpt>
      <trkpt lat="46.615063" lon="7.058955">
        <ele>761</ele>
        <time>2014-06-05T18:08:21Z</time>
      </trkpt>
      <trkpt lat="46.615437" lon="7.058963">
        <ele>761</ele>
        <time>2014-06-05T18:08:26Z</time>
      </trkpt>
      <trkpt lat="46.615843" lon="7.059061">
        <ele>761</ele>
        <time>2014-06-05T18:08:32Z</time>
      </trkpt>
      <trkpt lat="46.61616" lon="7.059243">
        <ele>761</ele>
        <time>2014-06-05T18:08:37Z</time>
      </trkpt>
      <trkpt lat="46.616229" lon="7.059728">
        <ele>759</ele>
        <time>2014-06-05T18:08:43Z</time>
      </trkpt>
      <trkpt lat="46.616272" lon="7.060271">
        <ele>758</ele>
        <time>2014-06-05T18:08:49Z</time>
      </trkpt>
      <trkpt lat="46.616228" lon="7.060948">
        <ele>758</ele>
        <time>2014-06-05T18:08:55Z</time>
      </trkpt>
      <trkpt lat="46.6163" lon="7.061671">
        <ele>760</ele>
        <time>2014-06-05T18:09:01Z</time>
      </trkpt>
      <trkpt lat="46.61631" lon="7.062444">
        <ele>757</ele>
        <time>2014-06-05T18:09:07Z</time>
      </trkpt>
      <trkpt lat="46.616171" lon="7.063249">
        <ele>755</ele>
        <time>2014-06-05T18:09:13Z</time>
      </trkpt>
      <trkpt lat="46.615917" lon="7.063973">
        <ele>755</ele>
        <time>2014-06-05T18:09:19Z</time>
      </trkpt>
      <trkpt lat="46.615633" lon="7.064723">
        <ele>754</ele>
        <time>2014-06-05T18:09:25Z</time>
      </trkpt>
      <trkpt lat="46.615402" lon="7.065416">
        <ele>754</ele>
        <time>2014-06-05T18:09:32Z</time>
      </trkpt>
      <trkpt lat="46.61519" lon="7.066099">
        <ele>754</ele>
        <time>2014-06-05T18:09:37Z</time>
      </trkpt>
      <trkpt lat="46.614953" lon="7.066677">
        <ele>751</ele>
        <time>2014-06-05T18:09:43Z</time>
      </trkpt>
      <trkpt lat="46.614774" lon="7.067063">
        <ele>751</ele>
        <time>2014-06-05T18:09:49Z</time>
      </trkpt>
      <trkpt lat="46.61469" lon="7.067315">
        <ele>754</ele>
        <time>2014-06-05T18:09:57Z</time>
      </trkpt>
      <trkpt lat="46.61469" lon="7.067315">
        <ele>754</ele>
        <time>2014-06-05T18:10:04Z</time>
      </trkpt>
      <trkpt lat="46.61469" lon="7.067315">
        <ele>754</ele>
        <time>2014-06-05T18:10:04Z</time>
      </trkpt>
      <trkpt lat="46.61469" lon="7.067315">
        <ele>754</ele>
        <time>2014-06-05T18:12:10Z</time>
      </trkpt>
      <trkpt lat="46.614636" lon="7.067634">
        <ele>754</ele>
        <time>2014-06-05T18:12:10Z</time>
      </trkpt>
      <trkpt lat="46.61475" lon="7.067812">
        <ele>754</ele>
        <time>2014-06-05T18:12:17Z</time>
      </trkpt>
      <trkpt lat="46.614895" lon="7.068183">
        <ele>765</ele>
        <time>2014-06-05T18:12:27Z</time>
      </trkpt>
      <trkpt lat="46.614901" lon="7.068413">
        <ele>765</ele>
        <time>2014-06-05T18:12:33Z</time>
      </trkpt>
      <trkpt lat="46.614858" lon="7.068704">
        <ele>765</ele>
        <time>2014-06-05T18:12:40Z</time>
      </trkpt>
      <trkpt lat="46.614938" lon="7.069023">
        <ele>773</ele>
        <time>2014-06-05T18:12:47Z</time>
      </trkpt>
      <trkpt lat="46.615098" lon="7.069311">
        <ele>773</ele>
        <time>2014-06-05T18:12:55Z</time>
      </trkpt>
      <trkpt lat="46.615197" lon="7.069594">
        <ele>773</ele>
        <time>2014-06-05T18:13:02Z</time>
      </trkpt>
      <trkpt lat="46.615435" lon="7.069741">
        <ele>773</ele>
        <time>2014-06-05T18:13:10Z</time>
      </trkpt>
      <trkpt lat="46.615536" lon="7.069869">
        <ele>779</ele>
        <time>2014-06-05T18:13:15Z</time>
      </trkpt>
      <trkpt lat="46.615833" lon="7.070042">
        <ele>779</ele>
        <time>2014-06-05T18:13:24Z</time>
      </trkpt>
      <trkpt lat="46.616055" lon="7.07016">
        <ele>779</ele>
        <time>2014-06-05T18:13:30Z</time>
      </trkpt>
      <trkpt lat="46.616178" lon="7.070272">
        <ele>779</ele>
        <time>2014-06-05T18:13:37Z</time>
      </trkpt>
      <trkpt lat="46.616265" lon="7.070663">
        <ele>775</ele>
        <time>2014-06-05T18:13:48Z</time>
      </trkpt>
      <trkpt lat="46.616343" lon="7.071295">
        <ele>775</ele>
        <time>2014-06-05T18:13:56Z</time>
      </trkpt>
      <trkpt lat="46.616427" lon="7.071603">
        <ele>772</ele>
        <time>2014-06-05T18:14:01Z</time>
      </trkpt>
      <trkpt lat="46.616507" lon="7.071895">
        <ele>772</ele>
        <time>2014-06-05T18:14:07Z</time>
      </trkpt>
      <trkpt lat="46.616356" lon="7.072232">
        <ele>771</ele>
        <time>2014-06-05T18:14:14Z</time>
      </trkpt>
      <trkpt lat="46.616288" lon="7.072474">
        <ele>771</ele>
        <time>2014-06-05T18:14:20Z</time>
      </trkpt>
      <trkpt lat="46.616349" lon="7.073049">
        <ele>772</ele>
        <time>2014-06-05T18:14:28Z</time>
      </trkpt>
      <trkpt lat="46.616301" lon="7.073249">
        <ele>772</ele>
        <time>2014-06-05T18:14:31Z</time>
      </trkpt>
      <trkpt lat="46.616274" lon="7.0736">
        <ele>772</ele>
        <time>2014-06-05T18:14:37Z</time>
      </trkpt>
      <trkpt lat="46.616184" lon="7.073996">
        <ele>777</ele>
        <time>2014-06-05T18:14:43Z</time>
      </trkpt>
      <trkpt lat="46.616074" lon="7.074337">
        <ele>777</ele>
        <time>2014-06-05T18:14:48Z</time>
      </trkpt>
      <trkpt lat="46.615924" lon="7.074784">
        <ele>775</ele>
        <time>2014-06-05T18:14:54Z</time>
      </trkpt>
      <trkpt lat="46.615826" lon="7.075079">
        <ele>775</ele>
        <time>2014-06-05T18:14:59Z</time>
      </trkpt>
      <trkpt lat="46.615777" lon="7.075282">
        <ele>775</ele>
        <time>2014-06-05T18:15:02Z</time>
      </trkpt>
      <trkpt lat="46.615705" lon="7.075663">
        <ele>774</ele>
        <time>2014-06-05T18:15:07Z</time>
      </trkpt>
      <trkpt lat="46.615576" lon="7.076185">
        <ele>774</ele>
        <time>2014-06-05T18:15:13Z</time>
      </trkpt>
      <trkpt lat="46.615338" lon="7.076686">
        <ele>769</ele>
        <time>2014-06-05T18:15:19Z</time>
      </trkpt>
      <trkpt lat="46.615283" lon="7.076956">
        <ele>769</ele>
        <time>2014-06-05T18:15:25Z</time>
      </trkpt>
      <trkpt lat="46.615283" lon="7.076956">
        <ele>769</ele>
        <time>2014-06-05T18:15:31Z</time>
      </trkpt>
      <trkpt lat="46.615283" lon="7.076956">
        <ele>769</ele>
        <time>2014-06-05T18:15:31Z</time>
      </trkpt>
      <trkpt lat="46.615283" lon="7.076956">
        <ele>769</ele>
        <time>2014-06-05T18:15:49Z</time>
      </trkpt>
      <trkpt lat="46.615164" lon="7.076903">
        <ele>769</ele>
        <time>2014-06-05T18:15:49Z</time>
      </trkpt>
      <trkpt lat="46.614826" lon="7.076729">
        <ele>769</ele>
        <time>2014-06-05T18:15:57Z</time>
      </trkpt>
      <trkpt lat="46.614826" lon="7.076729">
        <ele>769</ele>
        <time>2014-06-05T18:16:05Z</time>
      </trkpt>
      <trkpt lat="46.614826" lon="7.076729">
        <ele>769</ele>
        <time>2014-06-05T18:16:10Z</time>
      </trkpt>
      <trkpt lat="46.614488" lon="7.076527">
        <ele>769</ele>
        <time>2014-06-05T18:16:10Z</time>
      </trkpt>
      <trkpt lat="46.614422" lon="7.076405">
        <ele>769</ele>
        <time>2014-06-05T18:16:15Z</time>
      </trkpt>
      <trkpt lat="46.614422" lon="7.076405">
        <ele>769</ele>
        <time>2014-06-05T18:16:21Z</time>
      </trkpt>
      <trkpt lat="46.614422" lon="7.076405">
        <ele>769</ele>
        <time>2014-06-05T18:16:21Z</time>
      </trkpt>
      <trkpt lat="46.614422" lon="7.076405">
        <ele>769</ele>
        <time>2014-06-05T18:16:29Z</time>
      </trkpt>
      <trkpt lat="46.614164" lon="7.076103">
        <ele>771</ele>
        <time>2014-06-05T18:16:29Z</time>
      </trkpt>
      <trkpt lat="46.614135" lon="7.07607">
        <ele>771</ele>
        <time>2014-06-05T18:16:30Z</time>
      </trkpt>
      <trkpt lat="46.614135" lon="7.07607">
        <ele>771</ele>
        <time>2014-06-05T18:16:36Z</time>
      </trkpt>
      <trkpt lat="46.614135" lon="7.07607">
        <ele>771</ele>
        <time>2014-06-05T18:16:40Z</time>
      </trkpt>
      <trkpt lat="46.614004" lon="7.075868">
        <ele>771</ele>
        <time>2014-06-05T18:16:40Z</time>
      </trkpt>
      <trkpt lat="46.613738" lon="7.075667">
        <ele>768</ele>
        <time>2014-06-05T18:16:46Z</time>
      </trkpt>
      <trkpt lat="46.613417" lon="7.075534">
        <ele>768</ele>
        <time>2014-06-05T18:16:52Z</time>
      </trkpt>
      <trkpt lat="46.613378" lon="7.075526">
        <ele>768</ele>
        <time>2014-06-05T18:16:53Z</time>
      </trkpt>
      <trkpt lat="46.613378" lon="7.075526">
        <ele>768</ele>
        <time>2014-06-05T18:16:59Z</time>
      </trkpt>
      <trkpt lat="46.613378" lon="7.075526">
        <ele>768</ele>
        <time>2014-06-05T18:17:13Z</time>
      </trkpt>
      <trkpt lat="46.61314" lon="7.075196">
        <ele>769</ele>
        <time>2014-06-05T18:17:13Z</time>
      </trkpt>
      <trkpt lat="46.613185" lon="7.075053">
        <ele>769</ele>
        <time>2014-06-05T18:17:17Z</time>
      </trkpt>
      <trkpt lat="46.613185" lon="7.075053">
        <ele>769</ele>
        <time>2014-06-05T18:17:22Z</time>
      </trkpt>
      <trkpt lat="46.613185" lon="7.075053">
        <ele>769</ele>
        <time>2014-06-05T18:17:26Z</time>
      </trkpt>
      <trkpt lat="46.613253" lon="7.074714">
        <ele>769</ele>
        <time>2014-06-05T18:17:26Z</time>
      </trkpt>
      <trkpt lat="46.613413" lon="7.07451">
        <ele>768</ele>
        <time>2014-06-05T18:17:32Z</time>
      </trkpt>
      <trkpt lat="46.613546" lon="7.074348">
        <ele>768</ele>
        <time>2014-06-05T18:17:39Z</time>
      </trkpt>
      <trkpt lat="46.613546" lon="7.074348">
        <ele>768</ele>
        <time>2014-06-05T18:17:45Z</time>
      </trkpt>
      <trkpt lat="46.613546" lon="7.074348">
        <ele>768</ele>
        <time>2014-06-05T18:17:45Z</time>
      </trkpt>
      <trkpt lat="46.613546" lon="7.074348">
        <ele>768</ele>
        <time>2014-06-05T18:18:16Z</time>
      </trkpt>
      <trkpt lat="46.613672" lon="7.073765">
        <ele>764</ele>
        <time>2014-06-05T18:18:16Z</time>
      </trkpt>
      <trkpt lat="46.613612" lon="7.073653">
        <ele>764</ele>
        <time>2014-06-05T18:18:26Z</time>
      </trkpt>
      <trkpt lat="46.613546" lon="7.074572">
        <ele>768</ele>
        <time>2014-06-05T18:18:44Z</time>
      </trkpt>
      <trkpt lat="46.613671" lon="7.074886">
        <ele>769</ele>
        <time>2014-06-05T18:18:49Z</time>
      </trkpt>
      <trkpt lat="46.613628" lon="7.075324">
        <ele>769</ele>
        <time>2014-06-05T18:18:54Z</time>
      </trkpt>
      <trkpt lat="46.613233" lon="7.076124">
        <ele>768</ele>
        <time>2014-06-05T18:19:00Z</time>
      </trkpt>
      <trkpt lat="46.61285" lon="7.077141">
        <ele>749</ele>
        <time>2014-06-05T18:19:06Z</time>
      </trkpt>
      <trkpt lat="46.612281" lon="7.078286">
        <ele>737</ele>
        <time>2014-06-05T18:19:12Z</time>
      </trkpt>
      <trkpt lat="46.611852" lon="7.078932">
        <ele>731</ele>
        <time>2014-06-05T18:19:18Z</time>
      </trkpt>
      <trkpt lat="46.611816" lon="7.079403">
        <ele>731</ele>
        <time>2014-06-05T18:19:25Z</time>
      </trkpt>
      <trkpt lat="46.611859" lon="7.07976">
        <ele>734</ele>
        <time>2014-06-05T18:19:33Z</time>
      </trkpt>
      <trkpt lat="46.612008" lon="7.080198">
        <ele>734</ele>
        <time>2014-06-05T18:19:42Z</time>
      </trkpt>
      <trkpt lat="46.612132" lon="7.080378">
        <ele>734</ele>
        <time>2014-06-05T18:19:46Z</time>
      </trkpt>
      <trkpt lat="46.612354" lon="7.080543">
        <ele>744</ele>
        <time>2014-06-05T18:19:50Z</time>
      </trkpt>
      <trkpt lat="46.612503" lon="7.080809">
        <ele>744</ele>
        <time>2014-06-05T18:19:55Z</time>
      </trkpt>
      <trkpt lat="46.612742" lon="7.081232">
        <ele>744</ele>
        <time>2014-06-05T18:20:01Z</time>
      </trkpt>
      <trkpt lat="46.612826" lon="7.081574">
        <ele>757</ele>
        <time>2014-06-05T18:20:08Z</time>
      </trkpt>
      <trkpt lat="46.612833" lon="7.081785">
        <ele>757</ele>
        <time>2014-06-05T18:20:13Z</time>
      </trkpt>
      <trkpt lat="46.612833" lon="7.081785">
        <ele>757</ele>
        <time>2014-06-05T18:20:19Z</time>
      </trkpt>
      <trkpt lat="46.612833" lon="7.081785">
        <ele>757</ele>
        <time>2014-06-05T18:20:44Z</time>
      </trkpt>
      <trkpt lat="46.612619" lon="7.082191">
        <ele>760</ele>
        <time>2014-06-05T18:20:44Z</time>
      </trkpt>
      <trkpt lat="46.612513" lon="7.082336">
        <ele>760</ele>
        <time>2014-06-05T18:20:50Z</time>
      </trkpt>
      <trkpt lat="46.612455" lon="7.082386">
        <ele>760</ele>
        <time>2014-06-05T18:20:53Z</time>
      </trkpt>
      <trkpt lat="46.612455" lon="7.082386">
        <ele>760</ele>
        <time>2014-06-05T18:21:00Z</time>
      </trkpt>
      <trkpt lat="46.612455" lon="7.082386">
        <ele>760</ele>
        <time>2014-06-05T18:21:02Z</time>
      </trkpt>
      <trkpt lat="46.612296" lon="7.08256">
        <ele>760</ele>
        <time>2014-06-05T18:21:02Z</time>
      </trkpt>
      <trkpt lat="46.612247" lon="7.082889">
        <ele>760</ele>
        <time>2014-06-05T18:21:10Z</time>
      </trkpt>
      <trkpt lat="46.612224" lon="7.083258">
        <ele>761</ele>
        <time>2014-06-05T18:21:16Z</time>
      </trkpt>
      <trkpt lat="46.612131" lon="7.083385">
        <ele>762</ele>
        <time>2014-06-05T18:21:20Z</time>
      </trkpt>
      <trkpt lat="46.612131" lon="7.083385">
        <ele>762</ele>
        <time>2014-06-05T18:21:26Z</time>
      </trkpt>
      <trkpt lat="46.612131" lon="7.083385">
        <ele>762</ele>
        <time>2014-06-05T18:21:30Z</time>
      </trkpt>
      <trkpt lat="46.61218" lon="7.083667">
        <ele>761</ele>
        <time>2014-06-05T18:21:30Z</time>
      </trkpt>
      <trkpt lat="46.612184" lon="7.083693">
        <ele>761</ele>
        <time>2014-06-05T18:21:31Z</time>
      </trkpt>
      <trkpt lat="46.612184" lon="7.083693">
        <ele>761</ele>
        <time>2014-06-05T18:21:36Z</time>
      </trkpt>
      <trkpt lat="46.612184" lon="7.083693">
        <ele>761</ele>
        <time>2014-06-05T18:21:40Z</time>
      </trkpt>
      <trkpt lat="46.612121" lon="7.083911">
        <ele>757</ele>
        <time>2014-06-05T18:21:40Z</time>
      </trkpt>
      <trkpt lat="46.612121" lon="7.083911">
        <ele>757</ele>
        <time>2014-06-05T18:21:45Z</time>
      </trkpt>
      <trkpt lat="46.612121" lon="7.083911">
        <ele>757</ele>
        <time>2014-06-05T18:21:45Z</time>
      </trkpt>
      <trkpt lat="46.612121" lon="7.083911">
        <ele>757</ele>
        <time>2014-06-05T18:21:48Z</time>
      </trkpt>
      <trkpt lat="46.612025" lon="7.084076">
        <ele>757</ele>
        <time>2014-06-05T18:21:48Z</time>
      </trkpt>
      <trkpt lat="46.612029" lon="7.084164">
        <ele>757</ele>
        <time>2014-06-05T18:21:51Z</time>
      </trkpt>
      <trkpt lat="46.612029" lon="7.084164">
        <ele>757</ele>
        <time>2014-06-05T18:21:57Z</time>
      </trkpt>
      <trkpt lat="46.612029" lon="7.084164">
        <ele>757</ele>
        <time>2014-06-05T18:22:00Z</time>
      </trkpt>
      <trkpt lat="46.611945" lon="7.084164">
        <ele>757</ele>
        <time>2014-06-05T18:22:00Z</time>
      </trkpt>
      <trkpt lat="46.611558" lon="7.084143">
        <ele>757</ele>
        <time>2014-06-05T18:22:06Z</time>
      </trkpt>
      <trkpt lat="46.610994" lon="7.084097">
        <ele>757</ele>
        <time>2014-06-05T18:22:11Z</time>
      </trkpt>
      <trkpt lat="46.610612" lon="7.084192">
        <ele>757</ele>
        <time>2014-06-05T18:22:17Z</time>
      </trkpt>
      <trkpt lat="46.610408" lon="7.084263">
        <ele>750</ele>
        <time>2014-06-05T18:22:24Z</time>
      </trkpt>
      <trkpt lat="46.610345" lon="7.084578">
        <ele>750</ele>
        <time>2014-06-05T18:22:33Z</time>
      </trkpt>
      <trkpt lat="46.610181" lon="7.084749">
        <ele>746</ele>
        <time>2014-06-05T18:22:41Z</time>
      </trkpt>
      <trkpt lat="46.609271" lon="7.084728">
        <ele>748</ele>
        <time>2014-06-05T18:22:48Z</time>
      </trkpt>
      <trkpt lat="46.608631" lon="7.084713">
        <ele>746</ele>
        <time>2014-06-05T18:22:54Z</time>
      </trkpt>
      <trkpt lat="46.608314" lon="7.084868">
        <ele>746</ele>
        <time>2014-06-05T18:23:01Z</time>
      </trkpt>
      <trkpt lat="46.608267" lon="7.085199">
        <ele>746</ele>
        <time>2014-06-05T18:23:08Z</time>
      </trkpt>
      <trkpt lat="46.608335" lon="7.085494">
        <ele>745</ele>
        <time>2014-06-05T18:23:13Z</time>
      </trkpt>
      <trkpt lat="46.608378" lon="7.085726">
        <ele>745</ele>
        <time>2014-06-05T18:23:18Z</time>
      </trkpt>
      <trkpt lat="46.608487" lon="7.086149">
        <ele>745</ele>
        <time>2014-06-05T18:23:27Z</time>
      </trkpt>
      <trkpt lat="46.608721" lon="7.086621">
        <ele>735</ele>
        <time>2014-06-05T18:23:34Z</time>
      </trkpt>
      <trkpt lat="46.608915" lon="7.086866">
        <ele>738</ele>
        <time>2014-06-05T18:23:39Z</time>
      </trkpt>
      <trkpt lat="46.60891" lon="7.087075">
        <ele>738</ele>
        <time>2014-06-05T18:23:45Z</time>
      </trkpt>
      <trkpt lat="46.608693" lon="7.087392">
        <ele>730</ele>
        <time>2014-06-05T18:23:53Z</time>
      </trkpt>
      <trkpt lat="46.608336" lon="7.087608">
        <ele>730</ele>
        <time>2014-06-05T18:24:00Z</time>
      </trkpt>
      <trkpt lat="46.607889" lon="7.087675">
        <ele>731</ele>
        <time>2014-06-05T18:24:06Z</time>
      </trkpt>
      <trkpt lat="46.607249" lon="7.088002">
        <ele>731</ele>
        <time>2014-06-05T18:24:12Z</time>
      </trkpt>
      <trkpt lat="46.606685" lon="7.088721">
        <ele>745</ele>
        <time>2014-06-05T18:24:19Z</time>
      </trkpt>
      <trkpt lat="46.606314" lon="7.089314">
        <ele>741</ele>
        <time>2014-06-05T18:24:25Z</time>
      </trkpt>
      <trkpt lat="46.606001" lon="7.090009">
        <ele>748</ele>
        <time>2014-06-05T18:24:30Z</time>
      </trkpt>
      <trkpt lat="46.605376" lon="7.090872">
        <ele>741</ele>
        <time>2014-06-05T18:24:37Z</time>
      </trkpt>
      <trkpt lat="46.604501" lon="7.091646">
        <ele>720</ele>
        <time>2014-06-05T18:24:43Z</time>
      </trkpt>
      <trkpt lat="46.603676" lon="7.091907">
        <ele>711</ele>
        <time>2014-06-05T18:24:49Z</time>
      </trkpt>
      <trkpt lat="46.602952" lon="7.092002">
        <ele>704</ele>
        <time>2014-06-05T18:24:57Z</time>
      </trkpt>
      <trkpt lat="46.602687" lon="7.092035">
        <ele>704</ele>
        <time>2014-06-05T18:25:00Z</time>
      </trkpt>
      <trkpt lat="46.602687" lon="7.092035">
        <ele>704</ele>
        <time>2014-06-05T18:25:05Z</time>
      </trkpt>
      <trkpt lat="46.602687" lon="7.092035">
        <ele>704</ele>
        <time>2014-06-05T18:29:37Z</time>
      </trkpt>
      <trkpt lat="46.602687" lon="7.092035">
        <ele>704</ele>
        <time>2014-06-05T18:29:47Z</time>
      </trkpt>
      <trkpt lat="46.602687" lon="7.092035">
        <ele>704</ele>
        <time>2014-06-05T18:29:48Z</time>
      </trkpt>
    </trkseg>
  </trk>
  <extensions>
<st:activity id="1" dataSource=" " created="2014-06-05T16:20:18Z" useGPSData="true" startTime="2014-06-05T16:20:18Z" hasStartTime="true" distanceEntered="" timeEntered="" calories="" location="" notes="" intensity="0" weather="">
      <st:category id="1" name="Ciclismo" />
      <st:heartRateTrack>
        <st:heartRate time="2014-06-05T16:20:16Z" bpm="0" />
        <st:heartRate time="2014-06-05T16:20:18Z" bpm="0" />
        <st:heartRate time="2014-06-05T16:21:59Z" bpm="0" />
        <st:heartRate time="2014-06-05T16:22:09Z" bpm="0" />
        <st:heartRate time="2014-06-05T16:22:18Z" bpm="0" />
        <st:heartRate time="2014-06-05T16:22:21Z" bpm="0" />
        <st:heartRate time="2014-06-05T16:22:32Z" bpm="0" />
        <st:heartRate time="2014-06-05T16:22:40Z" bpm="0" />
        <st:heartRate time="2014-06-05T16:22:45Z" bpm="0" />
        <st:heartRate time="2014-06-05T16:22:53Z" bpm="0" />
        <st:heartRate time="2014-06-05T16:22:59Z" bpm="0" />
        <st:heartRate time="2014-06-05T16:23:08Z" bpm="0" />
        <st:heartRate time="2014-06-05T16:23:23Z" bpm="0" />
        <st:heartRate time="2014-06-05T16:23:28Z" bpm="0" />
        <st:heartRate time="2014-06-05T16:23:28Z" bpm="0" />
        <st:heartRate time="2014-06-05T16:23:43Z" bpm="0" />
        <st:heartRate time="2014-06-05T16:23:43Z" bpm="0" />
        <st:heartRate time="2014-06-05T16:23:50Z" bpm="0" />
        <st:heartRate time="2014-06-05T16:23:58Z" bpm="0" />
        <st:heartRate time="2014-06-05T16:24:07Z" bpm="0" />
        <st:heartRate time="2014-06-05T16:24:18Z" bpm="0" />
        <st:heartRate time="2014-06-05T16:24:27Z" bpm="0" />
        <st:heartRate time="2014-06-05T16:24:38Z" bpm="0" />
        <st:heartRate time="2014-06-05T16:24:46Z" bpm="0" />
        <st:heartRate time="2014-06-05T16:24:52Z" bpm="0" />
        <st:heartRate time="2014-06-05T16:24:58Z" bpm="0" />
        <st:heartRate time="2014-06-05T16:25:05Z" bpm="0" />
        <st:heartRate time="2014-06-05T16:25:12Z" bpm="0" />
        <st:heartRate time="2014-06-05T16:25:20Z" bpm="0" />
        <st:heartRate time="2014-06-05T16:25:25Z" bpm="0" />
        <st:heartRate time="2014-06-05T16:25:30Z" bpm="0" />
        <st:heartRate time="2014-06-05T16:25:35Z" bpm="0" />
        <st:heartRate time="2014-06-05T16:25:40Z" bpm="0" />
        <st:heartRate time="2014-06-05T16:25:46Z" bpm="0" />
        <st:heartRate time="2014-06-05T16:25:51Z" bpm="0" />
        <st:heartRate time="2014-06-05T16:25:54Z" bpm="0" />
        <st:heartRate time="2014-06-05T16:26:02Z" bpm="0" />
        <st:heartRate time="2014-06-05T16:26:10Z" bpm="0" />
        <st:heartRate time="2014-06-05T16:26:17Z" bpm="0" />
        <st:heartRate time="2014-06-05T16:26:24Z" bpm="0" />
        <st:heartRate time="2014-06-05T16:26:30Z" bpm="0" />
        <st:heartRate time="2014-06-05T16:26:33Z" bpm="0" />
        <st:heartRate time="2014-06-05T16:26:39Z" bpm="0" />
        <st:heartRate time="2014-06-05T16:26:45Z" bpm="0" />
        <st:heartRate time="2014-06-05T16:26:52Z" bpm="0" />
        <st:heartRate time="2014-06-05T16:26:57Z" bpm="0" />
        <st:heartRate time="2014-06-05T16:27:01Z" bpm="0" />
        <st:heartRate time="2014-06-05T16:27:06Z" bpm="0" />
        <st:heartRate time="2014-06-05T16:27:14Z" bpm="0" />
        <st:heartRate time="2014-06-05T16:27:21Z" bpm="0" />
        <st:heartRate time="2014-06-05T16:27:25Z" bpm="0" />
        <st:heartRate time="2014-06-05T16:27:33Z" bpm="0" />
        <st:heartRate time="2014-06-05T16:27:39Z" bpm="0" />
        <st:heartRate time="2014-06-05T16:27:47Z" bpm="0" />
        <st:heartRate time="2014-06-05T16:27:53Z" bpm="0" />
        <st:heartRate time="2014-06-05T16:28:02Z" bpm="0" />
        <st:heartRate time="2014-06-05T16:28:07Z" bpm="0" />
        <st:heartRate time="2014-06-05T16:28:11Z" bpm="0" />
        <st:heartRate time="2014-06-05T16:28:16Z" bpm="0" />
        <st:heartRate time="2014-06-05T16:28:43Z" bpm="0" />
        <st:heartRate time="2014-06-05T16:28:47Z" bpm="0" />
        <st:heartRate time="2014-06-05T16:28:55Z" bpm="0" />
        <st:heartRate time="2014-06-05T16:29:01Z" bpm="0" />
        <st:heartRate time="2014-06-05T16:29:12Z" bpm="0" />
        <st:heartRate time="2014-06-05T16:29:18Z" bpm="0" />
        <st:heartRate time="2014-06-05T16:29:24Z" bpm="0" />
        <st:heartRate time="2014-06-05T16:29:29Z" bpm="0" />
        <st:heartRate time="2014-06-05T16:29:35Z" bpm="0" />
        <st:heartRate time="2014-06-05T16:29:43Z" bpm="0" />
        <st:heartRate time="2014-06-05T16:29:49Z" bpm="0" />
        <st:heartRate time="2014-06-05T16:29:56Z" bpm="0" />
        <st:heartRate time="2014-06-05T16:30:02Z" bpm="0" />
        <st:heartRate time="2014-06-05T16:30:09Z" bpm="0" />
        <st:heartRate time="2014-06-05T16:30:15Z" bpm="0" />
        <st:heartRate time="2014-06-05T16:30:21Z" bpm="0" />
        <st:heartRate time="2014-06-05T16:30:27Z" bpm="0" />
        <st:heartRate time="2014-06-05T16:30:35Z" bpm="0" />
        <st:heartRate time="2014-06-05T16:30:42Z" bpm="0" />
        <st:heartRate time="2014-06-05T16:30:48Z" bpm="0" />
        <st:heartRate time="2014-06-05T16:30:55Z" bpm="0" />
        <st:heartRate time="2014-06-05T16:31:01Z" bpm="0" />
        <st:heartRate time="2014-06-05T16:31:09Z" bpm="0" />
        <st:heartRate time="2014-06-05T16:31:16Z" bpm="0" />
        <st:heartRate time="2014-06-05T16:31:23Z" bpm="0" />
        <st:heartRate time="2014-06-05T16:31:29Z" bpm="0" />
        <st:heartRate time="2014-06-05T16:31:35Z" bpm="0" />
        <st:heartRate time="2014-06-05T16:31:41Z" bpm="0" />
        <st:heartRate time="2014-06-05T16:31:44Z" bpm="0" />
        <st:heartRate time="2014-06-05T16:31:47Z" bpm="0" />
        <st:heartRate time="2014-06-05T16:31:52Z" bpm="0" />
        <st:heartRate time="2014-06-05T16:31:58Z" bpm="0" />
        <st:heartRate time="2014-06-05T16:32:03Z" bpm="0" />
        <st:heartRate time="2014-06-05T16:32:08Z" bpm="0" />
        <st:heartRate time="2014-06-05T16:32:14Z" bpm="0" />
        <st:heartRate time="2014-06-05T16:32:20Z" bpm="0" />
        <st:heartRate time="2014-06-05T16:32:27Z" bpm="0" />
        <st:heartRate time="2014-06-05T16:32:31Z" bpm="0" />
        <st:heartRate time="2014-06-05T16:32:37Z" bpm="0" />
        <st:heartRate time="2014-06-05T16:33:16Z" bpm="0" />
        <st:heartRate time="2014-06-05T16:33:16Z" bpm="0" />
        <st:heartRate time="2014-06-05T16:33:20Z" bpm="0" />
        <st:heartRate time="2014-06-05T16:33:30Z" bpm="0" />
        <st:heartRate time="2014-06-05T16:33:37Z" bpm="0" />
        <st:heartRate time="2014-06-05T16:33:43Z" bpm="0" />
        <st:heartRate time="2014-06-05T16:33:49Z" bpm="0" />
        <st:heartRate time="2014-06-05T16:33:55Z" bpm="0" />
        <st:heartRate time="2014-06-05T16:34:01Z" bpm="0" />
        <st:heartRate time="2014-06-05T16:34:08Z" bpm="0" />
        <st:heartRate time="2014-06-05T16:34:13Z" bpm="0" />
        <st:heartRate time="2014-06-05T16:34:19Z" bpm="0" />
        <st:heartRate time="2014-06-05T16:34:26Z" bpm="0" />
        <st:heartRate time="2014-06-05T16:34:33Z" bpm="0" />
        <st:heartRate time="2014-06-05T16:34:36Z" bpm="0" />
        <st:heartRate time="2014-06-05T16:34:41Z" bpm="0" />
        <st:heartRate time="2014-06-05T16:34:46Z" bpm="0" />
        <st:heartRate time="2014-06-05T16:34:52Z" bpm="0" />
        <st:heartRate time="2014-06-05T16:34:55Z" bpm="0" />
        <st:heartRate time="2014-06-05T16:34:58Z" bpm="0" />
        <st:heartRate time="2014-06-05T16:35:04Z" bpm="0" />
        <st:heartRate time="2014-06-05T16:35:09Z" bpm="0" />
        <st:heartRate time="2014-06-05T16:35:14Z" bpm="0" />
        <st:heartRate time="2014-06-05T16:35:21Z" bpm="0" />
        <st:heartRate time="2014-06-05T16:35:27Z" bpm="0" />
        <st:heartRate time="2014-06-05T16:35:32Z" bpm="0" />
        <st:heartRate time="2014-06-05T16:35:38Z" bpm="0" />
        <st:heartRate time="2014-06-05T16:35:44Z" bpm="0" />
        <st:heartRate time="2014-06-05T16:35:52Z" bpm="0" />
        <st:heartRate time="2014-06-05T16:35:57Z" bpm="0" />
        <st:heartRate time="2014-06-05T16:36:03Z" bpm="0" />
        <st:heartRate time="2014-06-05T16:36:08Z" bpm="0" />
        <st:heartRate time="2014-06-05T16:36:16Z" bpm="0" />
        <st:heartRate time="2014-06-05T16:36:22Z" bpm="0" />
        <st:heartRate time="2014-06-05T16:36:29Z" bpm="0" />
        <st:heartRate time="2014-06-05T16:36:34Z" bpm="0" />
        <st:heartRate time="2014-06-05T16:36:34Z" bpm="0" />
        <st:heartRate time="2014-06-05T16:36:41Z" bpm="0" />
        <st:heartRate time="2014-06-05T16:36:41Z" bpm="0" />
        <st:heartRate time="2014-06-05T16:36:44Z" bpm="0" />
        <st:heartRate time="2014-06-05T16:36:50Z" bpm="0" />
        <st:heartRate time="2014-06-05T16:36:57Z" bpm="0" />
        <st:heartRate time="2014-06-05T16:37:02Z" bpm="0" />
        <st:heartRate time="2014-06-05T16:37:08Z" bpm="0" />
        <st:heartRate time="2014-06-05T16:37:15Z" bpm="0" />
        <st:heartRate time="2014-06-05T16:37:22Z" bpm="0" />
        <st:heartRate time="2014-06-05T16:37:27Z" bpm="0" />
        <st:heartRate time="2014-06-05T16:37:32Z" bpm="0" />
        <st:heartRate time="2014-06-05T16:37:38Z" bpm="0" />
        <st:heartRate time="2014-06-05T16:37:44Z" bpm="0" />
        <st:heartRate time="2014-06-05T16:37:50Z" bpm="0" />
        <st:heartRate time="2014-06-05T16:37:56Z" bpm="0" />
        <st:heartRate time="2014-06-05T16:38:02Z" bpm="0" />
        <st:heartRate time="2014-06-05T16:38:10Z" bpm="0" />
        <st:heartRate time="2014-06-05T16:38:12Z" bpm="0" />
        <st:heartRate time="2014-06-05T16:38:18Z" bpm="0" />
        <st:heartRate time="2014-06-05T16:40:22Z" bpm="0" />
        <st:heartRate time="2014-06-05T16:40:22Z" bpm="0" />
        <st:heartRate time="2014-06-05T16:40:30Z" bpm="0" />
        <st:heartRate time="2014-06-05T16:40:36Z" bpm="0" />
        <st:heartRate time="2014-06-05T16:40:43Z" bpm="0" />
        <st:heartRate time="2014-06-05T16:40:51Z" bpm="0" />
        <st:heartRate time="2014-06-05T16:40:56Z" bpm="0" />
        <st:heartRate time="2014-06-05T16:41:01Z" bpm="0" />
        <st:heartRate time="2014-06-05T16:41:07Z" bpm="0" />
        <st:heartRate time="2014-06-05T16:41:12Z" bpm="0" />
        <st:heartRate time="2014-06-05T16:41:18Z" bpm="0" />
        <st:heartRate time="2014-06-05T16:41:24Z" bpm="0" />
        <st:heartRate time="2014-06-05T16:41:29Z" bpm="0" />
        <st:heartRate time="2014-06-05T16:41:35Z" bpm="0" />
        <st:heartRate time="2014-06-05T16:41:40Z" bpm="0" />
        <st:heartRate time="2014-06-05T16:41:46Z" bpm="0" />
        <st:heartRate time="2014-06-05T16:41:51Z" bpm="0" />
        <st:heartRate time="2014-06-05T16:41:57Z" bpm="0" />
        <st:heartRate time="2014-06-05T16:42:02Z" bpm="0" />
        <st:heartRate time="2014-06-05T16:42:09Z" bpm="0" />
        <st:heartRate time="2014-06-05T16:42:14Z" bpm="0" />
        <st:heartRate time="2014-06-05T16:42:20Z" bpm="0" />
        <st:heartRate time="2014-06-05T16:42:26Z" bpm="0" />
        <st:heartRate time="2014-06-05T16:42:32Z" bpm="0" />
        <st:heartRate time="2014-06-05T16:42:38Z" bpm="0" />
        <st:heartRate time="2014-06-05T16:42:44Z" bpm="0" />
        <st:heartRate time="2014-06-05T16:42:50Z" bpm="0" />
        <st:heartRate time="2014-06-05T16:42:56Z" bpm="0" />
        <st:heartRate time="2014-06-05T16:43:01Z" bpm="0" />
        <st:heartRate time="2014-06-05T16:43:08Z" bpm="0" />
        <st:heartRate time="2014-06-05T16:43:15Z" bpm="0" />
        <st:heartRate time="2014-06-05T16:43:22Z" bpm="0" />
        <st:heartRate time="2014-06-05T16:43:27Z" bpm="0" />
        <st:heartRate time="2014-06-05T16:43:30Z" bpm="0" />
        <st:heartRate time="2014-06-05T16:43:35Z" bpm="0" />
        <st:heartRate time="2014-06-05T16:43:42Z" bpm="0" />
        <st:heartRate time="2014-06-05T16:43:48Z" bpm="0" />
        <st:heartRate time="2014-06-05T16:43:53Z" bpm="0" />
        <st:heartRate time="2014-06-05T16:43:58Z" bpm="0" />
        <st:heartRate time="2014-06-05T16:44:03Z" bpm="0" />
        <st:heartRate time="2014-06-05T16:46:55Z" bpm="0" />
        <st:heartRate time="2014-06-05T16:46:55Z" bpm="0" />
        <st:heartRate time="2014-06-05T16:46:58Z" bpm="0" />
        <st:heartRate time="2014-06-05T16:47:03Z" bpm="0" />
        <st:heartRate time="2014-06-05T16:47:32Z" bpm="0" />
        <st:heartRate time="2014-06-05T16:47:32Z" bpm="0" />
        <st:heartRate time="2014-06-05T16:47:37Z" bpm="0" />
        <st:heartRate time="2014-06-05T16:47:43Z" bpm="0" />
        <st:heartRate time="2014-06-05T16:47:47Z" bpm="0" />
        <st:heartRate time="2014-06-05T16:47:47Z" bpm="0" />
        <st:heartRate time="2014-06-05T16:47:54Z" bpm="0" />
        <st:heartRate time="2014-06-05T16:47:58Z" bpm="0" />
        <st:heartRate time="2014-06-05T16:48:05Z" bpm="0" />
        <st:heartRate time="2014-06-05T16:48:10Z" bpm="0" />
        <st:heartRate time="2014-06-05T16:48:16Z" bpm="0" />
        <st:heartRate time="2014-06-05T16:48:19Z" bpm="0" />
        <st:heartRate time="2014-06-05T16:48:22Z" bpm="0" />
        <st:heartRate time="2014-06-05T16:48:27Z" bpm="0" />
        <st:heartRate time="2014-06-05T16:48:33Z" bpm="0" />
        <st:heartRate time="2014-06-05T16:48:37Z" bpm="0" />
        <st:heartRate time="2014-06-05T16:48:43Z" bpm="0" />
        <st:heartRate time="2014-06-05T16:48:50Z" bpm="0" />
        <st:heartRate time="2014-06-05T16:48:57Z" bpm="0" />
        <st:heartRate time="2014-06-05T16:49:00Z" bpm="0" />
        <st:heartRate time="2014-06-05T16:49:09Z" bpm="0" />
        <st:heartRate time="2014-06-05T16:49:14Z" bpm="0" />
        <st:heartRate time="2014-06-05T16:49:19Z" bpm="0" />
        <st:heartRate time="2014-06-05T16:49:26Z" bpm="0" />
        <st:heartRate time="2014-06-05T16:49:32Z" bpm="0" />
        <st:heartRate time="2014-06-05T16:49:38Z" bpm="0" />
        <st:heartRate time="2014-06-05T16:49:38Z" bpm="0" />
        <st:heartRate time="2014-06-05T16:53:45Z" bpm="0" />
        <st:heartRate time="2014-06-05T16:54:23Z" bpm="0" />
        <st:heartRate time="2014-06-05T16:54:30Z" bpm="0" />
        <st:heartRate time="2014-06-05T16:54:39Z" bpm="0" />
        <st:heartRate time="2014-06-05T16:54:47Z" bpm="0" />
        <st:heartRate time="2014-06-05T16:54:53Z" bpm="0" />
        <st:heartRate time="2014-06-05T16:54:59Z" bpm="0" />
        <st:heartRate time="2014-06-05T16:55:06Z" bpm="0" />
        <st:heartRate time="2014-06-05T16:55:12Z" bpm="0" />
        <st:heartRate time="2014-06-05T16:55:20Z" bpm="0" />
        <st:heartRate time="2014-06-05T16:55:26Z" bpm="0" />
        <st:heartRate time="2014-06-05T16:55:35Z" bpm="0" />
        <st:heartRate time="2014-06-05T16:55:42Z" bpm="0" />
        <st:heartRate time="2014-06-05T16:55:51Z" bpm="0" />
        <st:heartRate time="2014-06-05T16:55:51Z" bpm="0" />
        <st:heartRate time="2014-06-05T16:55:56Z" bpm="0" />
        <st:heartRate time="2014-06-05T16:56:04Z" bpm="0" />
        <st:heartRate time="2014-06-05T16:56:09Z" bpm="0" />
        <st:heartRate time="2014-06-05T16:56:15Z" bpm="0" />
        <st:heartRate time="2014-06-05T16:56:23Z" bpm="0" />
        <st:heartRate time="2014-06-05T16:57:36Z" bpm="0" />
        <st:heartRate time="2014-06-05T16:57:36Z" bpm="0" />
        <st:heartRate time="2014-06-05T16:57:44Z" bpm="0" />
        <st:heartRate time="2014-06-05T16:57:55Z" bpm="0" />
        <st:heartRate time="2014-06-05T16:58:01Z" bpm="0" />
        <st:heartRate time="2014-06-05T16:58:07Z" bpm="0" />
        <st:heartRate time="2014-06-05T16:58:10Z" bpm="0" />
        <st:heartRate time="2014-06-05T16:58:17Z" bpm="0" />
        <st:heartRate time="2014-06-05T16:58:25Z" bpm="0" />
        <st:heartRate time="2014-06-05T16:58:32Z" bpm="0" />
        <st:heartRate time="2014-06-05T16:58:39Z" bpm="0" />
        <st:heartRate time="2014-06-05T16:58:48Z" bpm="0" />
        <st:heartRate time="2014-06-05T16:58:51Z" bpm="0" />
        <st:heartRate time="2014-06-05T16:58:58Z" bpm="0" />
        <st:heartRate time="2014-06-05T16:59:15Z" bpm="0" />
        <st:heartRate time="2014-06-05T16:59:15Z" bpm="0" />
        <st:heartRate time="2014-06-05T16:59:24Z" bpm="0" />
        <st:heartRate time="2014-06-05T16:59:31Z" bpm="0" />
        <st:heartRate time="2014-06-05T16:59:34Z" bpm="0" />
        <st:heartRate time="2014-06-05T16:59:39Z" bpm="0" />
        <st:heartRate time="2014-06-05T17:00:15Z" bpm="0" />
        <st:heartRate time="2014-06-05T17:00:15Z" bpm="0" />
        <st:heartRate time="2014-06-05T17:00:23Z" bpm="0" />
        <st:heartRate time="2014-06-05T17:00:29Z" bpm="0" />
        <st:heartRate time="2014-06-05T17:00:39Z" bpm="0" />
        <st:heartRate time="2014-06-05T17:00:47Z" bpm="0" />
        <st:heartRate time="2014-06-05T17:00:56Z" bpm="0" />
        <st:heartRate time="2014-06-05T17:01:08Z" bpm="0" />
        <st:heartRate time="2014-06-05T17:01:17Z" bpm="0" />
        <st:heartRate time="2014-06-05T17:01:26Z" bpm="0" />
        <st:heartRate time="2014-06-05T17:01:33Z" bpm="0" />
        <st:heartRate time="2014-06-05T17:01:39Z" bpm="0" />
        <st:heartRate time="2014-06-05T17:01:39Z" bpm="0" />
        <st:heartRate time="2014-06-05T17:03:10Z" bpm="0" />
        <st:heartRate time="2014-06-05T17:03:10Z" bpm="0" />
        <st:heartRate time="2014-06-05T17:03:19Z" bpm="0" />
        <st:heartRate time="2014-06-05T17:03:28Z" bpm="0" />
        <st:heartRate time="2014-06-05T17:03:36Z" bpm="0" />
        <st:heartRate time="2014-06-05T17:03:44Z" bpm="0" />
        <st:heartRate time="2014-06-05T17:03:52Z" bpm="0" />
        <st:heartRate time="2014-06-05T17:03:52Z" bpm="0" />
        <st:heartRate time="2014-06-05T17:06:18Z" bpm="0" />
        <st:heartRate time="2014-06-05T17:06:18Z" bpm="0" />
        <st:heartRate time="2014-06-05T17:06:26Z" bpm="0" />
        <st:heartRate time="2014-06-05T17:06:26Z" bpm="0" />
        <st:heartRate time="2014-06-05T17:08:44Z" bpm="0" />
        <st:heartRate time="2014-06-05T17:08:44Z" bpm="0" />
        <st:heartRate time="2014-06-05T17:08:46Z" bpm="0" />
        <st:heartRate time="2014-06-05T17:08:52Z" bpm="0" />
        <st:heartRate time="2014-06-05T17:09:34Z" bpm="0" />
        <st:heartRate time="2014-06-05T17:09:34Z" bpm="0" />
        <st:heartRate time="2014-06-05T17:09:42Z" bpm="0" />
        <st:heartRate time="2014-06-05T17:09:42Z" bpm="0" />
        <st:heartRate time="2014-06-05T17:10:12Z" bpm="0" />
        <st:heartRate time="2014-06-05T17:10:12Z" bpm="0" />
        <st:heartRate time="2014-06-05T17:10:14Z" bpm="0" />
        <st:heartRate time="2014-06-05T17:10:20Z" bpm="0" />
        <st:heartRate time="2014-06-05T17:11:48Z" bpm="0" />
        <st:heartRate time="2014-06-05T17:11:48Z" bpm="0" />
        <st:heartRate time="2014-06-05T17:11:56Z" bpm="0" />
        <st:heartRate time="2014-06-05T17:11:56Z" bpm="0" />
        <st:heartRate time="2014-06-05T17:12:39Z" bpm="0" />
        <st:heartRate time="2014-06-05T17:12:39Z" bpm="0" />
        <st:heartRate time="2014-06-05T17:12:46Z" bpm="0" />
        <st:heartRate time="2014-06-05T17:12:52Z" bpm="0" />
        <st:heartRate time="2014-06-05T17:12:52Z" bpm="0" />
        <st:heartRate time="2014-06-05T17:14:57Z" bpm="0" />
        <st:heartRate time="2014-06-05T17:14:57Z" bpm="0" />
        <st:heartRate time="2014-06-05T17:15:03Z" bpm="0" />
        <st:heartRate time="2014-06-05T17:15:03Z" bpm="0" />
        <st:heartRate time="2014-06-05T17:15:58Z" bpm="0" />
        <st:heartRate time="2014-06-05T17:15:58Z" bpm="0" />
        <st:heartRate time="2014-06-05T17:16:01Z" bpm="0" />
        <st:heartRate time="2014-06-05T17:16:08Z" bpm="0" />
        <st:heartRate time="2014-06-05T17:18:10Z" bpm="0" />
        <st:heartRate time="2014-06-05T17:18:10Z" bpm="0" />
        <st:heartRate time="2014-06-05T17:18:18Z" bpm="0" />
        <st:heartRate time="2014-06-05T17:18:26Z" bpm="0" />
        <st:heartRate time="2014-06-05T17:18:34Z" bpm="0" />
        <st:heartRate time="2014-06-05T17:18:41Z" bpm="0" />
        <st:heartRate time="2014-06-05T17:18:47Z" bpm="0" />
        <st:heartRate time="2014-06-05T17:18:54Z" bpm="0" />
        <st:heartRate time="2014-06-05T17:19:01Z" bpm="0" />
        <st:heartRate time="2014-06-05T17:19:07Z" bpm="0" />
        <st:heartRate time="2014-06-05T17:19:13Z" bpm="0" />
        <st:heartRate time="2014-06-05T17:19:18Z" bpm="0" />
        <st:heartRate time="2014-06-05T17:19:23Z" bpm="0" />
        <st:heartRate time="2014-06-05T17:19:28Z" bpm="0" />
        <st:heartRate time="2014-06-05T17:19:35Z" bpm="0" />
        <st:heartRate time="2014-06-05T17:19:40Z" bpm="0" />
        <st:heartRate time="2014-06-05T17:19:44Z" bpm="0" />
        <st:heartRate time="2014-06-05T17:19:50Z" bpm="0" />
        <st:heartRate time="2014-06-05T17:20:34Z" bpm="0" />
        <st:heartRate time="2014-06-05T17:20:34Z" bpm="0" />
        <st:heartRate time="2014-06-05T17:20:42Z" bpm="0" />
        <st:heartRate time="2014-06-05T17:20:49Z" bpm="0" />
        <st:heartRate time="2014-06-05T17:20:55Z" bpm="0" />
        <st:heartRate time="2014-06-05T17:21:00Z" bpm="0" />
        <st:heartRate time="2014-06-05T17:21:06Z" bpm="0" />
        <st:heartRate time="2014-06-05T17:21:12Z" bpm="0" />
        <st:heartRate time="2014-06-05T17:21:18Z" bpm="0" />
        <st:heartRate time="2014-06-05T17:21:23Z" bpm="0" />
        <st:heartRate time="2014-06-05T17:21:29Z" bpm="0" />
        <st:heartRate time="2014-06-05T17:21:35Z" bpm="0" />
        <st:heartRate time="2014-06-05T17:21:41Z" bpm="0" />
        <st:heartRate time="2014-06-05T17:21:44Z" bpm="0" />
        <st:heartRate time="2014-06-05T17:21:50Z" bpm="0" />
        <st:heartRate time="2014-06-05T17:21:55Z" bpm="0" />
        <st:heartRate time="2014-06-05T17:22:00Z" bpm="0" />
        <st:heartRate time="2014-06-05T17:22:06Z" bpm="0" />
        <st:heartRate time="2014-06-05T17:22:13Z" bpm="0" />
        <st:heartRate time="2014-06-05T17:22:18Z" bpm="0" />
        <st:heartRate time="2014-06-05T17:22:25Z" bpm="0" />
        <st:heartRate time="2014-06-05T17:22:31Z" bpm="0" />
        <st:heartRate time="2014-06-05T17:22:41Z" bpm="0" />
        <st:heartRate time="2014-06-05T17:22:48Z" bpm="0" />
        <st:heartRate time="2014-06-05T17:22:50Z" bpm="0" />
        <st:heartRate time="2014-06-05T17:22:55Z" bpm="0" />
        <st:heartRate time="2014-06-05T17:23:40Z" bpm="0" />
        <st:heartRate time="2014-06-05T17:23:40Z" bpm="0" />
        <st:heartRate time="2014-06-05T17:23:48Z" bpm="0" />
        <st:heartRate time="2014-06-05T17:23:53Z" bpm="0" />
        <st:heartRate time="2014-06-05T17:23:53Z" bpm="0" />
        <st:heartRate time="2014-06-05T17:24:05Z" bpm="0" />
        <st:heartRate time="2014-06-05T17:24:05Z" bpm="0" />
        <st:heartRate time="2014-06-05T17:24:34Z" bpm="0" />
        <st:heartRate time="2014-06-05T17:24:43Z" bpm="0" />
        <st:heartRate time="2014-06-05T17:24:50Z" bpm="0" />
        <st:heartRate time="2014-06-05T17:24:59Z" bpm="0" />
        <st:heartRate time="2014-06-05T17:25:09Z" bpm="0" />
        <st:heartRate time="2014-06-05T17:25:20Z" bpm="0" />
        <st:heartRate time="2014-06-05T17:25:28Z" bpm="0" />
        <st:heartRate time="2014-06-05T17:25:35Z" bpm="0" />
        <st:heartRate time="2014-06-05T17:25:39Z" bpm="0" />
        <st:heartRate time="2014-06-05T17:25:39Z" bpm="0" />
        <st:heartRate time="2014-06-05T17:25:49Z" bpm="0" />
        <st:heartRate time="2014-06-05T17:25:56Z" bpm="0" />
        <st:heartRate time="2014-06-05T17:26:04Z" bpm="0" />
        <st:heartRate time="2014-06-05T17:26:12Z" bpm="0" />
        <st:heartRate time="2014-06-05T17:26:22Z" bpm="0" />
        <st:heartRate time="2014-06-05T17:26:30Z" bpm="0" />
        <st:heartRate time="2014-06-05T17:26:38Z" bpm="0" />
        <st:heartRate time="2014-06-05T17:26:48Z" bpm="0" />
        <st:heartRate time="2014-06-05T17:26:56Z" bpm="0" />
        <st:heartRate time="2014-06-05T17:27:06Z" bpm="0" />
        <st:heartRate time="2014-06-05T17:27:16Z" bpm="0" />
        <st:heartRate time="2014-06-05T17:27:25Z" bpm="0" />
        <st:heartRate time="2014-06-05T17:27:33Z" bpm="0" />
        <st:heartRate time="2014-06-05T17:27:42Z" bpm="0" />
        <st:heartRate time="2014-06-05T17:27:48Z" bpm="0" />
        <st:heartRate time="2014-06-05T17:27:57Z" bpm="0" />
        <st:heartRate time="2014-06-05T17:28:01Z" bpm="0" />
        <st:heartRate time="2014-06-05T17:28:09Z" bpm="0" />
        <st:heartRate time="2014-06-05T17:28:15Z" bpm="0" />
        <st:heartRate time="2014-06-05T17:28:25Z" bpm="0" />
        <st:heartRate time="2014-06-05T17:28:37Z" bpm="0" />
        <st:heartRate time="2014-06-05T17:28:46Z" bpm="0" />
        <st:heartRate time="2014-06-05T17:28:56Z" bpm="0" />
        <st:heartRate time="2014-06-05T17:29:03Z" bpm="0" />
        <st:heartRate time="2014-06-05T17:29:10Z" bpm="0" />
        <st:heartRate time="2014-06-05T17:29:17Z" bpm="0" />
        <st:heartRate time="2014-06-05T17:29:25Z" bpm="0" />
        <st:heartRate time="2014-06-05T17:29:33Z" bpm="0" />
        <st:heartRate time="2014-06-05T17:29:36Z" bpm="0" />
        <st:heartRate time="2014-06-05T17:29:39Z" bpm="0" />
        <st:heartRate time="2014-06-05T17:29:47Z" bpm="0" />
        <st:heartRate time="2014-06-05T17:29:55Z" bpm="0" />
        <st:heartRate time="2014-06-05T17:30:05Z" bpm="0" />
        <st:heartRate time="2014-06-05T17:30:14Z" bpm="0" />
        <st:heartRate time="2014-06-05T17:30:17Z" bpm="0" />
        <st:heartRate time="2014-06-05T17:30:20Z" bpm="0" />
        <st:heartRate time="2014-06-05T17:30:29Z" bpm="0" />
        <st:heartRate time="2014-06-05T17:30:37Z" bpm="0" />
        <st:heartRate time="2014-06-05T17:30:48Z" bpm="0" />
        <st:heartRate time="2014-06-05T17:30:55Z" bpm="0" />
        <st:heartRate time="2014-06-05T17:31:02Z" bpm="0" />
        <st:heartRate time="2014-06-05T17:31:09Z" bpm="0" />
        <st:heartRate time="2014-06-05T17:31:18Z" bpm="0" />
        <st:heartRate time="2014-06-05T17:31:28Z" bpm="0" />
        <st:heartRate time="2014-06-05T17:31:37Z" bpm="0" />
        <st:heartRate time="2014-06-05T17:31:46Z" bpm="0" />
        <st:heartRate time="2014-06-05T17:31:57Z" bpm="0" />
        <st:heartRate time="2014-06-05T17:32:05Z" bpm="0" />
        <st:heartRate time="2014-06-05T17:32:21Z" bpm="0" />
        <st:heartRate time="2014-06-05T17:32:29Z" bpm="0" />
        <st:heartRate time="2014-06-05T17:32:35Z" bpm="0" />
        <st:heartRate time="2014-06-05T17:32:45Z" bpm="0" />
        <st:heartRate time="2014-06-05T17:32:56Z" bpm="0" />
        <st:heartRate time="2014-06-05T17:33:04Z" bpm="0" />
        <st:heartRate time="2014-06-05T17:33:09Z" bpm="0" />
        <st:heartRate time="2014-06-05T17:33:16Z" bpm="0" />
        <st:heartRate time="2014-06-05T17:36:36Z" bpm="0" />
        <st:heartRate time="2014-06-05T17:36:36Z" bpm="0" />
        <st:heartRate time="2014-06-05T17:36:49Z" bpm="0" />
        <st:heartRate time="2014-06-05T17:37:01Z" bpm="0" />
        <st:heartRate time="2014-06-05T17:37:11Z" bpm="0" />
        <st:heartRate time="2014-06-05T17:37:19Z" bpm="0" />
        <st:heartRate time="2014-06-05T17:37:22Z" bpm="0" />
        <st:heartRate time="2014-06-05T17:37:25Z" bpm="0" />
        <st:heartRate time="2014-06-05T17:37:31Z" bpm="0" />
        <st:heartRate time="2014-06-05T17:37:37Z" bpm="0" />
        <st:heartRate time="2014-06-05T17:37:45Z" bpm="0" />
        <st:heartRate time="2014-06-05T17:37:55Z" bpm="0" />
        <st:heartRate time="2014-06-05T17:38:02Z" bpm="0" />
        <st:heartRate time="2014-06-05T17:38:07Z" bpm="0" />
        <st:heartRate time="2014-06-05T17:38:13Z" bpm="0" />
        <st:heartRate time="2014-06-05T17:38:20Z" bpm="0" />
        <st:heartRate time="2014-06-05T17:38:29Z" bpm="0" />
        <st:heartRate time="2014-06-05T17:38:39Z" bpm="0" />
        <st:heartRate time="2014-06-05T17:38:48Z" bpm="0" />
        <st:heartRate time="2014-06-05T17:39:00Z" bpm="0" />
        <st:heartRate time="2014-06-05T17:39:07Z" bpm="0" />
        <st:heartRate time="2014-06-05T17:39:15Z" bpm="0" />
        <st:heartRate time="2014-06-05T17:39:26Z" bpm="0" />
        <st:heartRate time="2014-06-05T17:39:29Z" bpm="0" />
        <st:heartRate time="2014-06-05T17:39:34Z" bpm="0" />
        <st:heartRate time="2014-06-05T17:39:41Z" bpm="0" />
        <st:heartRate time="2014-06-05T17:39:44Z" bpm="0" />
        <st:heartRate time="2014-06-05T17:39:49Z" bpm="0" />
        <st:heartRate time="2014-06-05T17:39:55Z" bpm="0" />
        <st:heartRate time="2014-06-05T17:39:58Z" bpm="0" />
        <st:heartRate time="2014-06-05T17:40:01Z" bpm="0" />
        <st:heartRate time="2014-06-05T17:40:06Z" bpm="0" />
        <st:heartRate time="2014-06-05T17:40:12Z" bpm="0" />
        <st:heartRate time="2014-06-05T17:40:18Z" bpm="0" />
        <st:heartRate time="2014-06-05T17:40:21Z" bpm="0" />
        <st:heartRate time="2014-06-05T17:40:27Z" bpm="0" />
        <st:heartRate time="2014-06-05T17:40:33Z" bpm="0" />
        <st:heartRate time="2014-06-05T17:40:38Z" bpm="0" />
        <st:heartRate time="2014-06-05T17:40:43Z" bpm="0" />
        <st:heartRate time="2014-06-05T17:40:49Z" bpm="0" />
        <st:heartRate time="2014-06-05T17:40:54Z" bpm="0" />
        <st:heartRate time="2014-06-05T17:41:02Z" bpm="0" />
        <st:heartRate time="2014-06-05T17:41:15Z" bpm="0" />
        <st:heartRate time="2014-06-05T17:41:20Z" bpm="0" />
        <st:heartRate time="2014-06-05T17:41:23Z" bpm="0" />
        <st:heartRate time="2014-06-05T17:41:30Z" bpm="0" />
        <st:heartRate time="2014-06-05T17:41:36Z" bpm="0" />
        <st:heartRate time="2014-06-05T17:41:36Z" bpm="0" />
        <st:heartRate time="2014-06-05T17:42:05Z" bpm="0" />
        <st:heartRate time="2014-06-05T17:42:05Z" bpm="0" />
        <st:heartRate time="2014-06-05T17:42:13Z" bpm="0" />
        <st:heartRate time="2014-06-05T17:42:24Z" bpm="0" />
        <st:heartRate time="2014-06-05T17:42:32Z" bpm="0" />
        <st:heartRate time="2014-06-05T17:42:39Z" bpm="0" />
        <st:heartRate time="2014-06-05T17:42:50Z" bpm="0" />
        <st:heartRate time="2014-06-05T17:42:58Z" bpm="0" />
        <st:heartRate time="2014-06-05T17:43:05Z" bpm="0" />
        <st:heartRate time="2014-06-05T17:43:12Z" bpm="0" />
        <st:heartRate time="2014-06-05T17:43:21Z" bpm="0" />
        <st:heartRate time="2014-06-05T17:43:28Z" bpm="0" />
        <st:heartRate time="2014-06-05T17:43:33Z" bpm="0" />
        <st:heartRate time="2014-06-05T17:43:39Z" bpm="0" />
        <st:heartRate time="2014-06-05T17:43:45Z" bpm="0" />
        <st:heartRate time="2014-06-05T17:43:50Z" bpm="0" />
        <st:heartRate time="2014-06-05T17:43:57Z" bpm="0" />
        <st:heartRate time="2014-06-05T17:44:03Z" bpm="0" />
        <st:heartRate time="2014-06-05T17:44:08Z" bpm="0" />
        <st:heartRate time="2014-06-05T17:44:16Z" bpm="0" />
        <st:heartRate time="2014-06-05T17:44:22Z" bpm="0" />
        <st:heartRate time="2014-06-05T17:44:30Z" bpm="0" />
        <st:heartRate time="2014-06-05T17:44:37Z" bpm="0" />
        <st:heartRate time="2014-06-05T17:45:19Z" bpm="0" />
        <st:heartRate time="2014-06-05T17:45:19Z" bpm="0" />
        <st:heartRate time="2014-06-05T17:45:27Z" bpm="0" />
        <st:heartRate time="2014-06-05T17:45:34Z" bpm="0" />
        <st:heartRate time="2014-06-05T17:45:37Z" bpm="0" />
        <st:heartRate time="2014-06-05T17:45:37Z" bpm="0" />
        <st:heartRate time="2014-06-05T17:45:44Z" bpm="0" />
        <st:heartRate time="2014-06-05T17:45:55Z" bpm="0" />
        <st:heartRate time="2014-06-05T17:46:03Z" bpm="0" />
        <st:heartRate time="2014-06-05T17:46:10Z" bpm="0" />
        <st:heartRate time="2014-06-05T17:46:16Z" bpm="0" />
        <st:heartRate time="2014-06-05T17:46:22Z" bpm="0" />
        <st:heartRate time="2014-06-05T17:46:27Z" bpm="0" />
        <st:heartRate time="2014-06-05T17:46:36Z" bpm="0" />
        <st:heartRate time="2014-06-05T17:46:45Z" bpm="0" />
        <st:heartRate time="2014-06-05T17:46:48Z" bpm="0" />
        <st:heartRate time="2014-06-05T17:46:54Z" bpm="0" />
        <st:heartRate time="2014-06-05T17:46:57Z" bpm="0" />
        <st:heartRate time="2014-06-05T17:48:33Z" bpm="0" />
        <st:heartRate time="2014-06-05T17:48:40Z" bpm="0" />
        <st:heartRate time="2014-06-05T17:48:40Z" bpm="0" />
        <st:heartRate time="2014-06-05T17:49:45Z" bpm="0" />
        <st:heartRate time="2014-06-05T17:49:45Z" bpm="0" />
        <st:heartRate time="2014-06-05T17:49:51Z" bpm="0" />
        <st:heartRate time="2014-06-05T17:49:54Z" bpm="0" />
        <st:heartRate time="2014-06-05T17:50:00Z" bpm="0" />
        <st:heartRate time="2014-06-05T17:50:05Z" bpm="0" />
        <st:heartRate time="2014-06-05T17:50:05Z" bpm="0" />
        <st:heartRate time="2014-06-05T17:50:08Z" bpm="0" />
        <st:heartRate time="2014-06-05T17:50:13Z" bpm="0" />
        <st:heartRate time="2014-06-05T17:51:08Z" bpm="0" />
        <st:heartRate time="2014-06-05T17:51:08Z" bpm="0" />
        <st:heartRate time="2014-06-05T17:51:13Z" bpm="0" />
        <st:heartRate time="2014-06-05T17:51:21Z" bpm="0" />
        <st:heartRate time="2014-06-05T17:51:30Z" bpm="0" />
        <st:heartRate time="2014-06-05T17:51:32Z" bpm="0" />
        <st:heartRate time="2014-06-05T17:51:38Z" bpm="0" />
        <st:heartRate time="2014-06-05T17:51:50Z" bpm="0" />
        <st:heartRate time="2014-06-05T17:51:50Z" bpm="0" />
        <st:heartRate time="2014-06-05T17:51:58Z" bpm="0" />
        <st:heartRate time="2014-06-05T17:52:01Z" bpm="0" />
        <st:heartRate time="2014-06-05T17:52:07Z" bpm="0" />
        <st:heartRate time="2014-06-05T17:52:23Z" bpm="0" />
        <st:heartRate time="2014-06-05T17:52:23Z" bpm="0" />
        <st:heartRate time="2014-06-05T17:52:28Z" bpm="0" />
        <st:heartRate time="2014-06-05T17:52:33Z" bpm="0" />
        <st:heartRate time="2014-06-05T17:52:35Z" bpm="0" />
        <st:heartRate time="2014-06-05T17:52:45Z" bpm="0" />
        <st:heartRate time="2014-06-05T17:53:06Z" bpm="0" />
        <st:heartRate time="2014-06-05T17:53:13Z" bpm="0" />
        <st:heartRate time="2014-06-05T17:53:22Z" bpm="0" />
        <st:heartRate time="2014-06-05T17:53:30Z" bpm="0" />
        <st:heartRate time="2014-06-05T17:53:33Z" bpm="0" />
        <st:heartRate time="2014-06-05T17:54:06Z" bpm="0" />
        <st:heartRate time="2014-06-05T17:55:27Z" bpm="0" />
        <st:heartRate time="2014-06-05T17:55:27Z" bpm="0" />
        <st:heartRate time="2014-06-05T17:55:35Z" bpm="0" />
        <st:heartRate time="2014-06-05T17:55:35Z" bpm="0" />
        <st:heartRate time="2014-06-05T17:56:09Z" bpm="0" />
        <st:heartRate time="2014-06-05T17:56:09Z" bpm="0" />
        <st:heartRate time="2014-06-05T17:56:12Z" bpm="0" />
        <st:heartRate time="2014-06-05T17:56:19Z" bpm="0" />
        <st:heartRate time="2014-06-05T17:56:23Z" bpm="0" />
        <st:heartRate time="2014-06-05T17:56:23Z" bpm="0" />
        <st:heartRate time="2014-06-05T17:56:33Z" bpm="0" />
        <st:heartRate time="2014-06-05T17:56:46Z" bpm="0" />
        <st:heartRate time="2014-06-05T17:56:59Z" bpm="0" />
        <st:heartRate time="2014-06-05T17:57:06Z" bpm="0" />
        <st:heartRate time="2014-06-05T17:57:09Z" bpm="0" />
        <st:heartRate time="2014-06-05T17:57:09Z" bpm="0" />
        <st:heartRate time="2014-06-05T17:57:15Z" bpm="0" />
        <st:heartRate time="2014-06-05T17:57:23Z" bpm="0" />
        <st:heartRate time="2014-06-05T17:57:32Z" bpm="0" />
        <st:heartRate time="2014-06-05T17:57:42Z" bpm="0" />
        <st:heartRate time="2014-06-05T17:57:55Z" bpm="0" />
        <st:heartRate time="2014-06-05T17:57:59Z" bpm="0" />
        <st:heartRate time="2014-06-05T17:58:07Z" bpm="0" />
        <st:heartRate time="2014-06-05T17:58:09Z" bpm="0" />
        <st:heartRate time="2014-06-05T17:58:09Z" bpm="0" />
        <st:heartRate time="2014-06-05T17:58:14Z" bpm="0" />
        <st:heartRate time="2014-06-05T17:58:19Z" bpm="0" />
        <st:heartRate time="2014-06-05T17:58:25Z" bpm="0" />
        <st:heartRate time="2014-06-05T17:58:29Z" bpm="0" />
        <st:heartRate time="2014-06-05T17:58:34Z" bpm="0" />
        <st:heartRate time="2014-06-05T17:58:36Z" bpm="0" />
        <st:heartRate time="2014-06-05T17:58:36Z" bpm="0" />
        <st:heartRate time="2014-06-05T17:58:42Z" bpm="0" />
        <st:heartRate time="2014-06-05T17:58:49Z" bpm="0" />
        <st:heartRate time="2014-06-05T17:58:55Z" bpm="0" />
        <st:heartRate time="2014-06-05T17:59:01Z" bpm="0" />
        <st:heartRate time="2014-06-05T17:59:07Z" bpm="0" />
        <st:heartRate time="2014-06-05T17:59:13Z" bpm="0" />
        <st:heartRate time="2014-06-05T17:59:20Z" bpm="0" />
        <st:heartRate time="2014-06-05T17:59:26Z" bpm="0" />
        <st:heartRate time="2014-06-05T17:59:32Z" bpm="0" />
        <st:heartRate time="2014-06-05T17:59:41Z" bpm="0" />
        <st:heartRate time="2014-06-05T17:59:49Z" bpm="0" />
        <st:heartRate time="2014-06-05T17:59:55Z" bpm="0" />
        <st:heartRate time="2014-06-05T18:00:01Z" bpm="0" />
        <st:heartRate time="2014-06-05T18:00:07Z" bpm="0" />
        <st:heartRate time="2014-06-05T18:00:13Z" bpm="0" />
        <st:heartRate time="2014-06-05T18:00:19Z" bpm="0" />
        <st:heartRate time="2014-06-05T18:00:25Z" bpm="0" />
        <st:heartRate time="2014-06-05T18:00:30Z" bpm="0" />
        <st:heartRate time="2014-06-05T18:00:36Z" bpm="0" />
        <st:heartRate time="2014-06-05T18:00:41Z" bpm="0" />
        <st:heartRate time="2014-06-05T18:00:47Z" bpm="0" />
        <st:heartRate time="2014-06-05T18:00:54Z" bpm="0" />
        <st:heartRate time="2014-06-05T18:01:01Z" bpm="0" />
        <st:heartRate time="2014-06-05T18:01:08Z" bpm="0" />
        <st:heartRate time="2014-06-05T18:01:14Z" bpm="0" />
        <st:heartRate time="2014-06-05T18:01:20Z" bpm="0" />
        <st:heartRate time="2014-06-05T18:01:26Z" bpm="0" />
        <st:heartRate time="2014-06-05T18:01:31Z" bpm="0" />
        <st:heartRate time="2014-06-05T18:01:37Z" bpm="0" />
        <st:heartRate time="2014-06-05T18:01:42Z" bpm="0" />
        <st:heartRate time="2014-06-05T18:01:48Z" bpm="0" />
        <st:heartRate time="2014-06-05T18:01:54Z" bpm="0" />
        <st:heartRate time="2014-06-05T18:01:59Z" bpm="0" />
        <st:heartRate time="2014-06-05T18:02:04Z" bpm="0" />
        <st:heartRate time="2014-06-05T18:02:10Z" bpm="0" />
        <st:heartRate time="2014-06-05T18:02:15Z" bpm="0" />
        <st:heartRate time="2014-06-05T18:02:20Z" bpm="0" />
        <st:heartRate time="2014-06-05T18:02:26Z" bpm="0" />
        <st:heartRate time="2014-06-05T18:02:31Z" bpm="0" />
        <st:heartRate time="2014-06-05T18:02:37Z" bpm="0" />
        <st:heartRate time="2014-06-05T18:02:42Z" bpm="0" />
        <st:heartRate time="2014-06-05T18:02:48Z" bpm="0" />
        <st:heartRate time="2014-06-05T18:02:54Z" bpm="0" />
        <st:heartRate time="2014-06-05T18:03:03Z" bpm="0" />
        <st:heartRate time="2014-06-05T18:03:05Z" bpm="0" />
        <st:heartRate time="2014-06-05T18:03:10Z" bpm="0" />
        <st:heartRate time="2014-06-05T18:03:38Z" bpm="0" />
        <st:heartRate time="2014-06-05T18:03:38Z" bpm="0" />
        <st:heartRate time="2014-06-05T18:03:44Z" bpm="0" />
        <st:heartRate time="2014-06-05T18:03:50Z" bpm="0" />
        <st:heartRate time="2014-06-05T18:03:53Z" bpm="0" />
        <st:heartRate time="2014-06-05T18:03:56Z" bpm="0" />
        <st:heartRate time="2014-06-05T18:03:59Z" bpm="0" />
        <st:heartRate time="2014-06-05T18:04:04Z" bpm="0" />
        <st:heartRate time="2014-06-05T18:04:10Z" bpm="0" />
        <st:heartRate time="2014-06-05T18:04:16Z" bpm="0" />
        <st:heartRate time="2014-06-05T18:04:22Z" bpm="0" />
        <st:heartRate time="2014-06-05T18:04:28Z" bpm="0" />
        <st:heartRate time="2014-06-05T18:04:33Z" bpm="0" />
        <st:heartRate time="2014-06-05T18:04:38Z" bpm="0" />
        <st:heartRate time="2014-06-05T18:04:44Z" bpm="0" />
        <st:heartRate time="2014-06-05T18:04:49Z" bpm="0" />
        <st:heartRate time="2014-06-05T18:04:55Z" bpm="0" />
        <st:heartRate time="2014-06-05T18:05:01Z" bpm="0" />
        <st:heartRate time="2014-06-05T18:05:07Z" bpm="0" />
        <st:heartRate time="2014-06-05T18:05:14Z" bpm="0" />
        <st:heartRate time="2014-06-05T18:05:21Z" bpm="0" />
        <st:heartRate time="2014-06-05T18:05:27Z" bpm="0" />
        <st:heartRate time="2014-06-05T18:05:34Z" bpm="0" />
        <st:heartRate time="2014-06-05T18:05:39Z" bpm="0" />
        <st:heartRate time="2014-06-05T18:05:42Z" bpm="0" />
        <st:heartRate time="2014-06-05T18:05:49Z" bpm="0" />
        <st:heartRate time="2014-06-05T18:05:54Z" bpm="0" />
        <st:heartRate time="2014-06-05T18:06:00Z" bpm="0" />
        <st:heartRate time="2014-06-05T18:06:03Z" bpm="0" />
        <st:heartRate time="2014-06-05T18:06:06Z" bpm="0" />
        <st:heartRate time="2014-06-05T18:06:11Z" bpm="0" />
        <st:heartRate time="2014-06-05T18:06:17Z" bpm="0" />
        <st:heartRate time="2014-06-05T18:06:23Z" bpm="0" />
        <st:heartRate time="2014-06-05T18:06:30Z" bpm="0" />
        <st:heartRate time="2014-06-05T18:06:35Z" bpm="0" />
        <st:heartRate time="2014-06-05T18:06:41Z" bpm="0" />
        <st:heartRate time="2014-06-05T18:06:46Z" bpm="0" />
        <st:heartRate time="2014-06-05T18:06:52Z" bpm="0" />
        <st:heartRate time="2014-06-05T18:06:57Z" bpm="0" />
        <st:heartRate time="2014-06-05T18:07:03Z" bpm="0" />
        <st:heartRate time="2014-06-05T18:07:08Z" bpm="0" />
        <st:heartRate time="2014-06-05T18:07:16Z" bpm="0" />
        <st:heartRate time="2014-06-05T18:07:22Z" bpm="0" />
        <st:heartRate time="2014-06-05T18:07:25Z" bpm="0" />
        <st:heartRate time="2014-06-05T18:07:31Z" bpm="0" />
        <st:heartRate time="2014-06-05T18:07:37Z" bpm="0" />
        <st:heartRate time="2014-06-05T18:07:43Z" bpm="0" />
        <st:heartRate time="2014-06-05T18:07:49Z" bpm="0" />
        <st:heartRate time="2014-06-05T18:07:55Z" bpm="0" />
        <st:heartRate time="2014-06-05T18:08:00Z" bpm="0" />
        <st:heartRate time="2014-06-05T18:08:05Z" bpm="0" />
        <st:heartRate time="2014-06-05T18:08:12Z" bpm="0" />
        <st:heartRate time="2014-06-05T18:08:18Z" bpm="0" />
        <st:heartRate time="2014-06-05T18:08:21Z" bpm="0" />
        <st:heartRate time="2014-06-05T18:08:26Z" bpm="0" />
        <st:heartRate time="2014-06-05T18:08:32Z" bpm="0" />
        <st:heartRate time="2014-06-05T18:08:37Z" bpm="0" />
        <st:heartRate time="2014-06-05T18:08:43Z" bpm="0" />
        <st:heartRate time="2014-06-05T18:08:49Z" bpm="0" />
        <st:heartRate time="2014-06-05T18:08:55Z" bpm="0" />
        <st:heartRate time="2014-06-05T18:09:01Z" bpm="0" />
        <st:heartRate time="2014-06-05T18:09:07Z" bpm="0" />
        <st:heartRate time="2014-06-05T18:09:13Z" bpm="0" />
        <st:heartRate time="2014-06-05T18:09:19Z" bpm="0" />
        <st:heartRate time="2014-06-05T18:09:25Z" bpm="0" />
        <st:heartRate time="2014-06-05T18:09:32Z" bpm="0" />
        <st:heartRate time="2014-06-05T18:09:37Z" bpm="0" />
        <st:heartRate time="2014-06-05T18:09:43Z" bpm="0" />
        <st:heartRate time="2014-06-05T18:09:49Z" bpm="0" />
        <st:heartRate time="2014-06-05T18:09:57Z" bpm="0" />
        <st:heartRate time="2014-06-05T18:10:04Z" bpm="0" />
        <st:heartRate time="2014-06-05T18:10:04Z" bpm="0" />
        <st:heartRate time="2014-06-05T18:12:10Z" bpm="0" />
        <st:heartRate time="2014-06-05T18:12:10Z" bpm="0" />
        <st:heartRate time="2014-06-05T18:12:17Z" bpm="0" />
        <st:heartRate time="2014-06-05T18:12:27Z" bpm="0" />
        <st:heartRate time="2014-06-05T18:12:33Z" bpm="0" />
        <st:heartRate time="2014-06-05T18:12:40Z" bpm="0" />
        <st:heartRate time="2014-06-05T18:12:47Z" bpm="0" />
        <st:heartRate time="2014-06-05T18:12:55Z" bpm="0" />
        <st:heartRate time="2014-06-05T18:13:02Z" bpm="0" />
        <st:heartRate time="2014-06-05T18:13:10Z" bpm="0" />
        <st:heartRate time="2014-06-05T18:13:15Z" bpm="0" />
        <st:heartRate time="2014-06-05T18:13:24Z" bpm="0" />
        <st:heartRate time="2014-06-05T18:13:30Z" bpm="0" />
        <st:heartRate time="2014-06-05T18:13:37Z" bpm="0" />
        <st:heartRate time="2014-06-05T18:13:48Z" bpm="0" />
        <st:heartRate time="2014-06-05T18:13:56Z" bpm="0" />
        <st:heartRate time="2014-06-05T18:14:01Z" bpm="0" />
        <st:heartRate time="2014-06-05T18:14:07Z" bpm="0" />
        <st:heartRate time="2014-06-05T18:14:14Z" bpm="0" />
        <st:heartRate time="2014-06-05T18:14:20Z" bpm="0" />
        <st:heartRate time="2014-06-05T18:14:28Z" bpm="0" />
        <st:heartRate time="2014-06-05T18:14:31Z" bpm="0" />
        <st:heartRate time="2014-06-05T18:14:37Z" bpm="0" />
        <st:heartRate time="2014-06-05T18:14:43Z" bpm="0" />
        <st:heartRate time="2014-06-05T18:14:48Z" bpm="0" />
        <st:heartRate time="2014-06-05T18:14:54Z" bpm="0" />
        <st:heartRate time="2014-06-05T18:14:59Z" bpm="0" />
        <st:heartRate time="2014-06-05T18:15:02Z" bpm="0" />
        <st:heartRate time="2014-06-05T18:15:07Z" bpm="0" />
        <st:heartRate time="2014-06-05T18:15:13Z" bpm="0" />
        <st:heartRate time="2014-06-05T18:15:19Z" bpm="0" />
        <st:heartRate time="2014-06-05T18:15:25Z" bpm="0" />
        <st:heartRate time="2014-06-05T18:15:31Z" bpm="0" />
        <st:heartRate time="2014-06-05T18:15:31Z" bpm="0" />
        <st:heartRate time="2014-06-05T18:15:49Z" bpm="0" />
        <st:heartRate time="2014-06-05T18:15:49Z" bpm="0" />
        <st:heartRate time="2014-06-05T18:15:57Z" bpm="0" />
        <st:heartRate time="2014-06-05T18:16:05Z" bpm="0" />
        <st:heartRate time="2014-06-05T18:16:10Z" bpm="0" />
        <st:heartRate time="2014-06-05T18:16:10Z" bpm="0" />
        <st:heartRate time="2014-06-05T18:16:15Z" bpm="0" />
        <st:heartRate time="2014-06-05T18:16:21Z" bpm="0" />
        <st:heartRate time="2014-06-05T18:16:21Z" bpm="0" />
        <st:heartRate time="2014-06-05T18:16:29Z" bpm="0" />
        <st:heartRate time="2014-06-05T18:16:29Z" bpm="0" />
        <st:heartRate time="2014-06-05T18:16:30Z" bpm="0" />
        <st:heartRate time="2014-06-05T18:16:36Z" bpm="0" />
        <st:heartRate time="2014-06-05T18:16:40Z" bpm="0" />
        <st:heartRate time="2014-06-05T18:16:40Z" bpm="0" />
        <st:heartRate time="2014-06-05T18:16:46Z" bpm="0" />
        <st:heartRate time="2014-06-05T18:16:52Z" bpm="0" />
        <st:heartRate time="2014-06-05T18:16:53Z" bpm="0" />
        <st:heartRate time="2014-06-05T18:16:59Z" bpm="0" />
        <st:heartRate time="2014-06-05T18:17:13Z" bpm="0" />
        <st:heartRate time="2014-06-05T18:17:13Z" bpm="0" />
        <st:heartRate time="2014-06-05T18:17:17Z" bpm="0" />
        <st:heartRate time="2014-06-05T18:17:22Z" bpm="0" />
        <st:heartRate time="2014-06-05T18:17:26Z" bpm="0" />
        <st:heartRate time="2014-06-05T18:17:26Z" bpm="0" />
        <st:heartRate time="2014-06-05T18:17:32Z" bpm="0" />
        <st:heartRate time="2014-06-05T18:17:39Z" bpm="0" />
        <st:heartRate time="2014-06-05T18:17:45Z" bpm="0" />
        <st:heartRate time="2014-06-05T18:17:45Z" bpm="0" />
        <st:heartRate time="2014-06-05T18:18:16Z" bpm="0" />
        <st:heartRate time="2014-06-05T18:18:16Z" bpm="0" />
        <st:heartRate time="2014-06-05T18:18:26Z" bpm="0" />
        <st:heartRate time="2014-06-05T18:18:44Z" bpm="0" />
        <st:heartRate time="2014-06-05T18:18:49Z" bpm="0" />
        <st:heartRate time="2014-06-05T18:18:54Z" bpm="0" />
        <st:heartRate time="2014-06-05T18:19:00Z" bpm="0" />
        <st:heartRate time="2014-06-05T18:19:06Z" bpm="0" />
        <st:heartRate time="2014-06-05T18:19:12Z" bpm="0" />
        <st:heartRate time="2014-06-05T18:19:18Z" bpm="0" />
        <st:heartRate time="2014-06-05T18:19:25Z" bpm="0" />
        <st:heartRate time="2014-06-05T18:19:33Z" bpm="0" />
        <st:heartRate time="2014-06-05T18:19:42Z" bpm="0" />
        <st:heartRate time="2014-06-05T18:19:46Z" bpm="0" />
        <st:heartRate time="2014-06-05T18:19:50Z" bpm="0" />
        <st:heartRate time="2014-06-05T18:19:55Z" bpm="0" />
        <st:heartRate time="2014-06-05T18:20:01Z" bpm="0" />
        <st:heartRate time="2014-06-05T18:20:08Z" bpm="0" />
        <st:heartRate time="2014-06-05T18:20:13Z" bpm="0" />
        <st:heartRate time="2014-06-05T18:20:19Z" bpm="0" />
        <st:heartRate time="2014-06-05T18:20:44Z" bpm="0" />
        <st:heartRate time="2014-06-05T18:20:44Z" bpm="0" />
        <st:heartRate time="2014-06-05T18:20:50Z" bpm="0" />
        <st:heartRate time="2014-06-05T18:20:53Z" bpm="0" />
        <st:heartRate time="2014-06-05T18:21:00Z" bpm="0" />
        <st:heartRate time="2014-06-05T18:21:02Z" bpm="0" />
        <st:heartRate time="2014-06-05T18:21:02Z" bpm="0" />
        <st:heartRate time="2014-06-05T18:21:10Z" bpm="0" />
        <st:heartRate time="2014-06-05T18:21:16Z" bpm="0" />
        <st:heartRate time="2014-06-05T18:21:20Z" bpm="0" />
        <st:heartRate time="2014-06-05T18:21:26Z" bpm="0" />
        <st:heartRate time="2014-06-05T18:21:30Z" bpm="0" />
        <st:heartRate time="2014-06-05T18:21:30Z" bpm="0" />
        <st:heartRate time="2014-06-05T18:21:31Z" bpm="0" />
        <st:heartRate time="2014-06-05T18:21:36Z" bpm="0" />
        <st:heartRate time="2014-06-05T18:21:40Z" bpm="0" />
        <st:heartRate time="2014-06-05T18:21:40Z" bpm="0" />
        <st:heartRate time="2014-06-05T18:21:45Z" bpm="0" />
        <st:heartRate time="2014-06-05T18:21:45Z" bpm="0" />
        <st:heartRate time="2014-06-05T18:21:48Z" bpm="0" />
        <st:heartRate time="2014-06-05T18:21:48Z" bpm="0" />
        <st:heartRate time="2014-06-05T18:21:51Z" bpm="0" />
        <st:heartRate time="2014-06-05T18:21:57Z" bpm="0" />
        <st:heartRate time="2014-06-05T18:22:00Z" bpm="0" />
        <st:heartRate time="2014-06-05T18:22:00Z" bpm="0" />
        <st:heartRate time="2014-06-05T18:22:06Z" bpm="0" />
        <st:heartRate time="2014-06-05T18:22:11Z" bpm="0" />
        <st:heartRate time="2014-06-05T18:22:17Z" bpm="0" />
        <st:heartRate time="2014-06-05T18:22:24Z" bpm="0" />
        <st:heartRate time="2014-06-05T18:22:33Z" bpm="0" />
        <st:heartRate time="2014-06-05T18:22:41Z" bpm="0" />
        <st:heartRate time="2014-06-05T18:22:48Z" bpm="0" />
        <st:heartRate time="2014-06-05T18:22:54Z" bpm="0" />
        <st:heartRate time="2014-06-05T18:23:01Z" bpm="0" />
        <st:heartRate time="2014-06-05T18:23:08Z" bpm="0" />
        <st:heartRate time="2014-06-05T18:23:13Z" bpm="0" />
        <st:heartRate time="2014-06-05T18:23:18Z" bpm="0" />
        <st:heartRate time="2014-06-05T18:23:27Z" bpm="0" />
        <st:heartRate time="2014-06-05T18:23:34Z" bpm="0" />
        <st:heartRate time="2014-06-05T18:23:39Z" bpm="0" />
        <st:heartRate time="2014-06-05T18:23:45Z" bpm="0" />
        <st:heartRate time="2014-06-05T18:23:53Z" bpm="0" />
        <st:heartRate time="2014-06-05T18:24:00Z" bpm="0" />
        <st:heartRate time="2014-06-05T18:24:06Z" bpm="0" />
        <st:heartRate time="2014-06-05T18:24:12Z" bpm="0" />
        <st:heartRate time="2014-06-05T18:24:19Z" bpm="0" />
        <st:heartRate time="2014-06-05T18:24:25Z" bpm="0" />
        <st:heartRate time="2014-06-05T18:24:30Z" bpm="0" />
        <st:heartRate time="2014-06-05T18:24:37Z" bpm="0" />
        <st:heartRate time="2014-06-05T18:24:43Z" bpm="0" />
        <st:heartRate time="2014-06-05T18:24:49Z" bpm="0" />
        <st:heartRate time="2014-06-05T18:24:57Z" bpm="0" />
        <st:heartRate time="2014-06-05T18:25:00Z" bpm="0" />
        <st:heartRate time="2014-06-05T18:25:05Z" bpm="0" />
        <st:heartRate time="2014-06-05T18:29:37Z" bpm="0" />
        <st:heartRate time="2014-06-05T18:29:47Z" bpm="0" />
        <st:heartRate time="2014-06-05T18:29:48Z" bpm="0" />
      </st:heartRateTrack>
      <st:cadenceTrack>
        <st:cadence time="2014-06-05T16:20:16Z" rpm="0" />
        <st:cadence time="2014-06-05T16:20:18Z" rpm="0" />
        <st:cadence time="2014-06-05T16:21:59Z" rpm="0" />
        <st:cadence time="2014-06-05T16:22:09Z" rpm="0" />
        <st:cadence time="2014-06-05T16:22:18Z" rpm="0" />
        <st:cadence time="2014-06-05T16:22:21Z" rpm="0" />
        <st:cadence time="2014-06-05T16:22:32Z" rpm="0" />
        <st:cadence time="2014-06-05T16:22:40Z" rpm="0" />
        <st:cadence time="2014-06-05T16:22:45Z" rpm="0" />
        <st:cadence time="2014-06-05T16:22:53Z" rpm="0" />
        <st:cadence time="2014-06-05T16:22:59Z" rpm="0" />
        <st:cadence time="2014-06-05T16:23:08Z" rpm="0" />
        <st:cadence time="2014-06-05T16:23:23Z" rpm="0" />
        <st:cadence time="2014-06-05T16:23:28Z" rpm="0" />
        <st:cadence time="2014-06-05T16:23:28Z" rpm="0" />
        <st:cadence time="2014-06-05T16:23:43Z" rpm="0" />
        <st:cadence time="2014-06-05T16:23:43Z" rpm="0" />
        <st:cadence time="2014-06-05T16:23:50Z" rpm="0" />
        <st:cadence time="2014-06-05T16:23:58Z" rpm="0" />
        <st:cadence time="2014-06-05T16:24:07Z" rpm="0" />
        <st:cadence time="2014-06-05T16:24:18Z" rpm="0" />
        <st:cadence time="2014-06-05T16:24:27Z" rpm="0" />
        <st:cadence time="2014-06-05T16:24:38Z" rpm="0" />
        <st:cadence time="2014-06-05T16:24:46Z" rpm="0" />
        <st:cadence time="2014-06-05T16:24:52Z" rpm="0" />
        <st:cadence time="2014-06-05T16:24:58Z" rpm="0" />
        <st:cadence time="2014-06-05T16:25:05Z" rpm="0" />
        <st:cadence time="2014-06-05T16:25:12Z" rpm="0" />
        <st:cadence time="2014-06-05T16:25:20Z" rpm="0" />
        <st:cadence time="2014-06-05T16:25:25Z" rpm="0" />
        <st:cadence time="2014-06-05T16:25:30Z" rpm="0" />
        <st:cadence time="2014-06-05T16:25:35Z" rpm="0" />
        <st:cadence time="2014-06-05T16:25:40Z" rpm="0" />
        <st:cadence time="2014-06-05T16:25:46Z" rpm="0" />
        <st:cadence time="2014-06-05T16:25:51Z" rpm="0" />
        <st:cadence time="2014-06-05T16:25:54Z" rpm="0" />
        <st:cadence time="2014-06-05T16:26:02Z" rpm="0" />
        <st:cadence time="2014-06-05T16:26:10Z" rpm="0" />
        <st:cadence time="2014-06-05T16:26:17Z" rpm="0" />
        <st:cadence time="2014-06-05T16:26:24Z" rpm="0" />
        <st:cadence time="2014-06-05T16:26:30Z" rpm="0" />
        <st:cadence time="2014-06-05T16:26:33Z" rpm="0" />
        <st:cadence time="2014-06-05T16:26:39Z" rpm="0" />
        <st:cadence time="2014-06-05T16:26:45Z" rpm="0" />
        <st:cadence time="2014-06-05T16:26:52Z" rpm="0" />
        <st:cadence time="2014-06-05T16:26:57Z" rpm="0" />
        <st:cadence time="2014-06-05T16:27:01Z" rpm="0" />
        <st:cadence time="2014-06-05T16:27:06Z" rpm="0" />
        <st:cadence time="2014-06-05T16:27:14Z" rpm="0" />
        <st:cadence time="2014-06-05T16:27:21Z" rpm="0" />
        <st:cadence time="2014-06-05T16:27:25Z" rpm="0" />
        <st:cadence time="2014-06-05T16:27:33Z" rpm="0" />
        <st:cadence time="2014-06-05T16:27:39Z" rpm="0" />
        <st:cadence time="2014-06-05T16:27:47Z" rpm="0" />
        <st:cadence time="2014-06-05T16:27:53Z" rpm="0" />
        <st:cadence time="2014-06-05T16:28:02Z" rpm="0" />
        <st:cadence time="2014-06-05T16:28:07Z" rpm="0" />
        <st:cadence time="2014-06-05T16:28:11Z" rpm="0" />
        <st:cadence time="2014-06-05T16:28:16Z" rpm="0" />
        <st:cadence time="2014-06-05T16:28:43Z" rpm="0" />
        <st:cadence time="2014-06-05T16:28:47Z" rpm="0" />
        <st:cadence time="2014-06-05T16:28:55Z" rpm="0" />
        <st:cadence time="2014-06-05T16:29:01Z" rpm="0" />
        <st:cadence time="2014-06-05T16:29:12Z" rpm="0" />
        <st:cadence time="2014-06-05T16:29:18Z" rpm="0" />
        <st:cadence time="2014-06-05T16:29:24Z" rpm="0" />
        <st:cadence time="2014-06-05T16:29:29Z" rpm="0" />
        <st:cadence time="2014-06-05T16:29:35Z" rpm="0" />
        <st:cadence time="2014-06-05T16:29:43Z" rpm="0" />
        <st:cadence time="2014-06-05T16:29:49Z" rpm="0" />
        <st:cadence time="2014-06-05T16:29:56Z" rpm="0" />
        <st:cadence time="2014-06-05T16:30:02Z" rpm="0" />
        <st:cadence time="2014-06-05T16:30:09Z" rpm="0" />
        <st:cadence time="2014-06-05T16:30:15Z" rpm="0" />
        <st:cadence time="2014-06-05T16:30:21Z" rpm="0" />
        <st:cadence time="2014-06-05T16:30:27Z" rpm="0" />
        <st:cadence time="2014-06-05T16:30:35Z" rpm="0" />
        <st:cadence time="2014-06-05T16:30:42Z" rpm="0" />
        <st:cadence time="2014-06-05T16:30:48Z" rpm="0" />
        <st:cadence time="2014-06-05T16:30:55Z" rpm="0" />
        <st:cadence time="2014-06-05T16:31:01Z" rpm="0" />
        <st:cadence time="2014-06-05T16:31:09Z" rpm="0" />
        <st:cadence time="2014-06-05T16:31:16Z" rpm="0" />
        <st:cadence time="2014-06-05T16:31:23Z" rpm="0" />
        <st:cadence time="2014-06-05T16:31:29Z" rpm="0" />
        <st:cadence time="2014-06-05T16:31:35Z" rpm="0" />
        <st:cadence time="2014-06-05T16:31:41Z" rpm="0" />
        <st:cadence time="2014-06-05T16:31:44Z" rpm="0" />
        <st:cadence time="2014-06-05T16:31:47Z" rpm="0" />
        <st:cadence time="2014-06-05T16:31:52Z" rpm="0" />
        <st:cadence time="2014-06-05T16:31:58Z" rpm="0" />
        <st:cadence time="2014-06-05T16:32:03Z" rpm="0" />
        <st:cadence time="2014-06-05T16:32:08Z" rpm="0" />
        <st:cadence time="2014-06-05T16:32:14Z" rpm="0" />
        <st:cadence time="2014-06-05T16:32:20Z" rpm="0" />
        <st:cadence time="2014-06-05T16:32:27Z" rpm="0" />
        <st:cadence time="2014-06-05T16:32:31Z" rpm="0" />
        <st:cadence time="2014-06-05T16:32:37Z" rpm="0" />
        <st:cadence time="2014-06-05T16:33:16Z" rpm="0" />
        <st:cadence time="2014-06-05T16:33:16Z" rpm="0" />
        <st:cadence time="2014-06-05T16:33:20Z" rpm="0" />
        <st:cadence time="2014-06-05T16:33:30Z" rpm="0" />
        <st:cadence time="2014-06-05T16:33:37Z" rpm="0" />
        <st:cadence time="2014-06-05T16:33:43Z" rpm="0" />
        <st:cadence time="2014-06-05T16:33:49Z" rpm="0" />
        <st:cadence time="2014-06-05T16:33:55Z" rpm="0" />
        <st:cadence time="2014-06-05T16:34:01Z" rpm="0" />
        <st:cadence time="2014-06-05T16:34:08Z" rpm="0" />
        <st:cadence time="2014-06-05T16:34:13Z" rpm="0" />
        <st:cadence time="2014-06-05T16:34:19Z" rpm="0" />
        <st:cadence time="2014-06-05T16:34:26Z" rpm="0" />
        <st:cadence time="2014-06-05T16:34:33Z" rpm="0" />
        <st:cadence time="2014-06-05T16:34:36Z" rpm="0" />
        <st:cadence time="2014-06-05T16:34:41Z" rpm="0" />
        <st:cadence time="2014-06-05T16:34:46Z" rpm="0" />
        <st:cadence time="2014-06-05T16:34:52Z" rpm="0" />
        <st:cadence time="2014-06-05T16:34:55Z" rpm="0" />
        <st:cadence time="2014-06-05T16:34:58Z" rpm="0" />
        <st:cadence time="2014-06-05T16:35:04Z" rpm="0" />
        <st:cadence time="2014-06-05T16:35:09Z" rpm="0" />
        <st:cadence time="2014-06-05T16:35:14Z" rpm="0" />
        <st:cadence time="2014-06-05T16:35:21Z" rpm="0" />
        <st:cadence time="2014-06-05T16:35:27Z" rpm="0" />
        <st:cadence time="2014-06-05T16:35:32Z" rpm="0" />
        <st:cadence time="2014-06-05T16:35:38Z" rpm="0" />
        <st:cadence time="2014-06-05T16:35:44Z" rpm="0" />
        <st:cadence time="2014-06-05T16:35:52Z" rpm="0" />
        <st:cadence time="2014-06-05T16:35:57Z" rpm="0" />
        <st:cadence time="2014-06-05T16:36:03Z" rpm="0" />
        <st:cadence time="2014-06-05T16:36:08Z" rpm="0" />
        <st:cadence time="2014-06-05T16:36:16Z" rpm="0" />
        <st:cadence time="2014-06-05T16:36:22Z" rpm="0" />
        <st:cadence time="2014-06-05T16:36:29Z" rpm="0" />
        <st:cadence time="2014-06-05T16:36:34Z" rpm="0" />
        <st:cadence time="2014-06-05T16:36:34Z" rpm="0" />
        <st:cadence time="2014-06-05T16:36:41Z" rpm="0" />
        <st:cadence time="2014-06-05T16:36:41Z" rpm="0" />
        <st:cadence time="2014-06-05T16:36:44Z" rpm="0" />
        <st:cadence time="2014-06-05T16:36:50Z" rpm="0" />
        <st:cadence time="2014-06-05T16:36:57Z" rpm="0" />
        <st:cadence time="2014-06-05T16:37:02Z" rpm="0" />
        <st:cadence time="2014-06-05T16:37:08Z" rpm="0" />
        <st:cadence time="2014-06-05T16:37:15Z" rpm="0" />
        <st:cadence time="2014-06-05T16:37:22Z" rpm="0" />
        <st:cadence time="2014-06-05T16:37:27Z" rpm="0" />
        <st:cadence time="2014-06-05T16:37:32Z" rpm="0" />
        <st:cadence time="2014-06-05T16:37:38Z" rpm="0" />
        <st:cadence time="2014-06-05T16:37:44Z" rpm="0" />
        <st:cadence time="2014-06-05T16:37:50Z" rpm="0" />
        <st:cadence time="2014-06-05T16:37:56Z" rpm="0" />
        <st:cadence time="2014-06-05T16:38:02Z" rpm="0" />
        <st:cadence time="2014-06-05T16:38:10Z" rpm="0" />
        <st:cadence time="2014-06-05T16:38:12Z" rpm="0" />
        <st:cadence time="2014-06-05T16:38:18Z" rpm="0" />
        <st:cadence time="2014-06-05T16:40:22Z" rpm="0" />
        <st:cadence time="2014-06-05T16:40:22Z" rpm="0" />
        <st:cadence time="2014-06-05T16:40:30Z" rpm="0" />
        <st:cadence time="2014-06-05T16:40:36Z" rpm="0" />
        <st:cadence time="2014-06-05T16:40:43Z" rpm="0" />
        <st:cadence time="2014-06-05T16:40:51Z" rpm="0" />
        <st:cadence time="2014-06-05T16:40:56Z" rpm="0" />
        <st:cadence time="2014-06-05T16:41:01Z" rpm="0" />
        <st:cadence time="2014-06-05T16:41:07Z" rpm="0" />
        <st:cadence time="2014-06-05T16:41:12Z" rpm="0" />
        <st:cadence time="2014-06-05T16:41:18Z" rpm="0" />
        <st:cadence time="2014-06-05T16:41:24Z" rpm="0" />
        <st:cadence time="2014-06-05T16:41:29Z" rpm="0" />
        <st:cadence time="2014-06-05T16:41:35Z" rpm="0" />
        <st:cadence time="2014-06-05T16:41:40Z" rpm="0" />
        <st:cadence time="2014-06-05T16:41:46Z" rpm="0" />
        <st:cadence time="2014-06-05T16:41:51Z" rpm="0" />
        <st:cadence time="2014-06-05T16:41:57Z" rpm="0" />
        <st:cadence time="2014-06-05T16:42:02Z" rpm="0" />
        <st:cadence time="2014-06-05T16:42:09Z" rpm="0" />
        <st:cadence time="2014-06-05T16:42:14Z" rpm="0" />
        <st:cadence time="2014-06-05T16:42:20Z" rpm="0" />
        <st:cadence time="2014-06-05T16:42:26Z" rpm="0" />
        <st:cadence time="2014-06-05T16:42:32Z" rpm="0" />
        <st:cadence time="2014-06-05T16:42:38Z" rpm="0" />
        <st:cadence time="2014-06-05T16:42:44Z" rpm="0" />
        <st:cadence time="2014-06-05T16:42:50Z" rpm="0" />
        <st:cadence time="2014-06-05T16:42:56Z" rpm="0" />
        <st:cadence time="2014-06-05T16:43:01Z" rpm="0" />
        <st:cadence time="2014-06-05T16:43:08Z" rpm="0" />
        <st:cadence time="2014-06-05T16:43:15Z" rpm="0" />
        <st:cadence time="2014-06-05T16:43:22Z" rpm="0" />
        <st:cadence time="2014-06-05T16:43:27Z" rpm="0" />
        <st:cadence time="2014-06-05T16:43:30Z" rpm="0" />
        <st:cadence time="2014-06-05T16:43:35Z" rpm="0" />
        <st:cadence time="2014-06-05T16:43:42Z" rpm="0" />
        <st:cadence time="2014-06-05T16:43:48Z" rpm="0" />
        <st:cadence time="2014-06-05T16:43:53Z" rpm="0" />
        <st:cadence time="2014-06-05T16:43:58Z" rpm="0" />
        <st:cadence time="2014-06-05T16:44:03Z" rpm="0" />
        <st:cadence time="2014-06-05T16:46:55Z" rpm="0" />
        <st:cadence time="2014-06-05T16:46:55Z" rpm="0" />
        <st:cadence time="2014-06-05T16:46:58Z" rpm="0" />
        <st:cadence time="2014-06-05T16:47:03Z" rpm="0" />
        <st:cadence time="2014-06-05T16:47:32Z" rpm="0" />
        <st:cadence time="2014-06-05T16:47:32Z" rpm="0" />
        <st:cadence time="2014-06-05T16:47:37Z" rpm="0" />
        <st:cadence time="2014-06-05T16:47:43Z" rpm="0" />
        <st:cadence time="2014-06-05T16:47:47Z" rpm="0" />
        <st:cadence time="2014-06-05T16:47:47Z" rpm="0" />
        <st:cadence time="2014-06-05T16:47:54Z" rpm="0" />
        <st:cadence time="2014-06-05T16:47:58Z" rpm="0" />
        <st:cadence time="2014-06-05T16:48:05Z" rpm="0" />
        <st:cadence time="2014-06-05T16:48:10Z" rpm="0" />
        <st:cadence time="2014-06-05T16:48:16Z" rpm="0" />
        <st:cadence time="2014-06-05T16:48:19Z" rpm="0" />
        <st:cadence time="2014-06-05T16:48:22Z" rpm="0" />
        <st:cadence time="2014-06-05T16:48:27Z" rpm="0" />
        <st:cadence time="2014-06-05T16:48:33Z" rpm="0" />
        <st:cadence time="2014-06-05T16:48:37Z" rpm="0" />
        <st:cadence time="2014-06-05T16:48:43Z" rpm="0" />
        <st:cadence time="2014-06-05T16:48:50Z" rpm="0" />
        <st:cadence time="2014-06-05T16:48:57Z" rpm="0" />
        <st:cadence time="2014-06-05T16:49:00Z" rpm="0" />
        <st:cadence time="2014-06-05T16:49:09Z" rpm="0" />
        <st:cadence time="2014-06-05T16:49:14Z" rpm="0" />
        <st:cadence time="2014-06-05T16:49:19Z" rpm="0" />
        <st:cadence time="2014-06-05T16:49:26Z" rpm="0" />
        <st:cadence time="2014-06-05T16:49:32Z" rpm="0" />
        <st:cadence time="2014-06-05T16:49:38Z" rpm="0" />
        <st:cadence time="2014-06-05T16:49:38Z" rpm="0" />
        <st:cadence time="2014-06-05T16:53:45Z" rpm="0" />
        <st:cadence time="2014-06-05T16:54:23Z" rpm="0" />
        <st:cadence time="2014-06-05T16:54:30Z" rpm="0" />
        <st:cadence time="2014-06-05T16:54:39Z" rpm="0" />
        <st:cadence time="2014-06-05T16:54:47Z" rpm="0" />
        <st:cadence time="2014-06-05T16:54:53Z" rpm="0" />
        <st:cadence time="2014-06-05T16:54:59Z" rpm="0" />
        <st:cadence time="2014-06-05T16:55:06Z" rpm="0" />
        <st:cadence time="2014-06-05T16:55:12Z" rpm="0" />
        <st:cadence time="2014-06-05T16:55:20Z" rpm="0" />
        <st:cadence time="2014-06-05T16:55:26Z" rpm="0" />
        <st:cadence time="2014-06-05T16:55:35Z" rpm="0" />
        <st:cadence time="2014-06-05T16:55:42Z" rpm="0" />
        <st:cadence time="2014-06-05T16:55:51Z" rpm="0" />
        <st:cadence time="2014-06-05T16:55:51Z" rpm="0" />
        <st:cadence time="2014-06-05T16:55:56Z" rpm="0" />
        <st:cadence time="2014-06-05T16:56:04Z" rpm="0" />
        <st:cadence time="2014-06-05T16:56:09Z" rpm="0" />
        <st:cadence time="2014-06-05T16:56:15Z" rpm="0" />
        <st:cadence time="2014-06-05T16:56:23Z" rpm="0" />
        <st:cadence time="2014-06-05T16:57:36Z" rpm="0" />
        <st:cadence time="2014-06-05T16:57:36Z" rpm="0" />
        <st:cadence time="2014-06-05T16:57:44Z" rpm="0" />
        <st:cadence time="2014-06-05T16:57:55Z" rpm="0" />
        <st:cadence time="2014-06-05T16:58:01Z" rpm="0" />
        <st:cadence time="2014-06-05T16:58:07Z" rpm="0" />
        <st:cadence time="2014-06-05T16:58:10Z" rpm="0" />
        <st:cadence time="2014-06-05T16:58:17Z" rpm="0" />
        <st:cadence time="2014-06-05T16:58:25Z" rpm="0" />
        <st:cadence time="2014-06-05T16:58:32Z" rpm="0" />
        <st:cadence time="2014-06-05T16:58:39Z" rpm="0" />
        <st:cadence time="2014-06-05T16:58:48Z" rpm="0" />
        <st:cadence time="2014-06-05T16:58:51Z" rpm="0" />
        <st:cadence time="2014-06-05T16:58:58Z" rpm="0" />
        <st:cadence time="2014-06-05T16:59:15Z" rpm="0" />
        <st:cadence time="2014-06-05T16:59:15Z" rpm="0" />
        <st:cadence time="2014-06-05T16:59:24Z" rpm="0" />
        <st:cadence time="2014-06-05T16:59:31Z" rpm="0" />
        <st:cadence time="2014-06-05T16:59:34Z" rpm="0" />
        <st:cadence time="2014-06-05T16:59:39Z" rpm="0" />
        <st:cadence time="2014-06-05T17:00:15Z" rpm="0" />
        <st:cadence time="2014-06-05T17:00:15Z" rpm="0" />
        <st:cadence time="2014-06-05T17:00:23Z" rpm="0" />
        <st:cadence time="2014-06-05T17:00:29Z" rpm="0" />
        <st:cadence time="2014-06-05T17:00:39Z" rpm="0" />
        <st:cadence time="2014-06-05T17:00:47Z" rpm="0" />
        <st:cadence time="2014-06-05T17:00:56Z" rpm="0" />
        <st:cadence time="2014-06-05T17:01:08Z" rpm="0" />
        <st:cadence time="2014-06-05T17:01:17Z" rpm="0" />
        <st:cadence time="2014-06-05T17:01:26Z" rpm="0" />
        <st:cadence time="2014-06-05T17:01:33Z" rpm="0" />
        <st:cadence time="2014-06-05T17:01:39Z" rpm="0" />
        <st:cadence time="2014-06-05T17:01:39Z" rpm="0" />
        <st:cadence time="2014-06-05T17:03:10Z" rpm="0" />
        <st:cadence time="2014-06-05T17:03:10Z" rpm="0" />
        <st:cadence time="2014-06-05T17:03:19Z" rpm="0" />
        <st:cadence time="2014-06-05T17:03:28Z" rpm="0" />
        <st:cadence time="2014-06-05T17:03:36Z" rpm="0" />
        <st:cadence time="2014-06-05T17:03:44Z" rpm="0" />
        <st:cadence time="2014-06-05T17:03:52Z" rpm="0" />
        <st:cadence time="2014-06-05T17:03:52Z" rpm="0" />
        <st:cadence time="2014-06-05T17:06:18Z" rpm="0" />
        <st:cadence time="2014-06-05T17:06:18Z" rpm="0" />
        <st:cadence time="2014-06-05T17:06:26Z" rpm="0" />
        <st:cadence time="2014-06-05T17:06:26Z" rpm="0" />
        <st:cadence time="2014-06-05T17:08:44Z" rpm="0" />
        <st:cadence time="2014-06-05T17:08:44Z" rpm="0" />
        <st:cadence time="2014-06-05T17:08:46Z" rpm="0" />
        <st:cadence time="2014-06-05T17:08:52Z" rpm="0" />
        <st:cadence time="2014-06-05T17:09:34Z" rpm="0" />
        <st:cadence time="2014-06-05T17:09:34Z" rpm="0" />
        <st:cadence time="2014-06-05T17:09:42Z" rpm="0" />
        <st:cadence time="2014-06-05T17:09:42Z" rpm="0" />
        <st:cadence time="2014-06-05T17:10:12Z" rpm="0" />
        <st:cadence time="2014-06-05T17:10:12Z" rpm="0" />
        <st:cadence time="2014-06-05T17:10:14Z" rpm="0" />
        <st:cadence time="2014-06-05T17:10:20Z" rpm="0" />
        <st:cadence time="2014-06-05T17:11:48Z" rpm="0" />
        <st:cadence time="2014-06-05T17:11:48Z" rpm="0" />
        <st:cadence time="2014-06-05T17:11:56Z" rpm="0" />
        <st:cadence time="2014-06-05T17:11:56Z" rpm="0" />
        <st:cadence time="2014-06-05T17:12:39Z" rpm="0" />
        <st:cadence time="2014-06-05T17:12:39Z" rpm="0" />
        <st:cadence time="2014-06-05T17:12:46Z" rpm="0" />
        <st:cadence time="2014-06-05T17:12:52Z" rpm="0" />
        <st:cadence time="2014-06-05T17:12:52Z" rpm="0" />
        <st:cadence time="2014-06-05T17:14:57Z" rpm="0" />
        <st:cadence time="2014-06-05T17:14:57Z" rpm="0" />
        <st:cadence time="2014-06-05T17:15:03Z" rpm="0" />
        <st:cadence time="2014-06-05T17:15:03Z" rpm="0" />
        <st:cadence time="2014-06-05T17:15:58Z" rpm="0" />
        <st:cadence time="2014-06-05T17:15:58Z" rpm="0" />
        <st:cadence time="2014-06-05T17:16:01Z" rpm="0" />
        <st:cadence time="2014-06-05T17:16:08Z" rpm="0" />
        <st:cadence time="2014-06-05T17:18:10Z" rpm="0" />
        <st:cadence time="2014-06-05T17:18:10Z" rpm="0" />
        <st:cadence time="2014-06-05T17:18:18Z" rpm="0" />
        <st:cadence time="2014-06-05T17:18:26Z" rpm="0" />
        <st:cadence time="2014-06-05T17:18:34Z" rpm="0" />
        <st:cadence time="2014-06-05T17:18:41Z" rpm="0" />
        <st:cadence time="2014-06-05T17:18:47Z" rpm="0" />
        <st:cadence time="2014-06-05T17:18:54Z" rpm="0" />
        <st:cadence time="2014-06-05T17:19:01Z" rpm="0" />
        <st:cadence time="2014-06-05T17:19:07Z" rpm="0" />
        <st:cadence time="2014-06-05T17:19:13Z" rpm="0" />
        <st:cadence time="2014-06-05T17:19:18Z" rpm="0" />
        <st:cadence time="2014-06-05T17:19:23Z" rpm="0" />
        <st:cadence time="2014-06-05T17:19:28Z" rpm="0" />
        <st:cadence time="2014-06-05T17:19:35Z" rpm="0" />
        <st:cadence time="2014-06-05T17:19:40Z" rpm="0" />
        <st:cadence time="2014-06-05T17:19:44Z" rpm="0" />
        <st:cadence time="2014-06-05T17:19:50Z" rpm="0" />
        <st:cadence time="2014-06-05T17:20:34Z" rpm="0" />
        <st:cadence time="2014-06-05T17:20:34Z" rpm="0" />
        <st:cadence time="2014-06-05T17:20:42Z" rpm="0" />
        <st:cadence time="2014-06-05T17:20:49Z" rpm="0" />
        <st:cadence time="2014-06-05T17:20:55Z" rpm="0" />
        <st:cadence time="2014-06-05T17:21:00Z" rpm="0" />
        <st:cadence time="2014-06-05T17:21:06Z" rpm="0" />
        <st:cadence time="2014-06-05T17:21:12Z" rpm="0" />
        <st:cadence time="2014-06-05T17:21:18Z" rpm="0" />
        <st:cadence time="2014-06-05T17:21:23Z" rpm="0" />
        <st:cadence time="2014-06-05T17:21:29Z" rpm="0" />
        <st:cadence time="2014-06-05T17:21:35Z" rpm="0" />
        <st:cadence time="2014-06-05T17:21:41Z" rpm="0" />
        <st:cadence time="2014-06-05T17:21:44Z" rpm="0" />
        <st:cadence time="2014-06-05T17:21:50Z" rpm="0" />
        <st:cadence time="2014-06-05T17:21:55Z" rpm="0" />
        <st:cadence time="2014-06-05T17:22:00Z" rpm="0" />
        <st:cadence time="2014-06-05T17:22:06Z" rpm="0" />
        <st:cadence time="2014-06-05T17:22:13Z" rpm="0" />
        <st:cadence time="2014-06-05T17:22:18Z" rpm="0" />
        <st:cadence time="2014-06-05T17:22:25Z" rpm="0" />
        <st:cadence time="2014-06-05T17:22:31Z" rpm="0" />
        <st:cadence time="2014-06-05T17:22:41Z" rpm="0" />
        <st:cadence time="2014-06-05T17:22:48Z" rpm="0" />
        <st:cadence time="2014-06-05T17:22:50Z" rpm="0" />
        <st:cadence time="2014-06-05T17:22:55Z" rpm="0" />
        <st:cadence time="2014-06-05T17:23:40Z" rpm="0" />
        <st:cadence time="2014-06-05T17:23:40Z" rpm="0" />
        <st:cadence time="2014-06-05T17:23:48Z" rpm="0" />
        <st:cadence time="2014-06-05T17:23:53Z" rpm="0" />
        <st:cadence time="2014-06-05T17:23:53Z" rpm="0" />
        <st:cadence time="2014-06-05T17:24:05Z" rpm="0" />
        <st:cadence time="2014-06-05T17:24:05Z" rpm="0" />
        <st:cadence time="2014-06-05T17:24:34Z" rpm="0" />
        <st:cadence time="2014-06-05T17:24:43Z" rpm="0" />
        <st:cadence time="2014-06-05T17:24:50Z" rpm="0" />
        <st:cadence time="2014-06-05T17:24:59Z" rpm="0" />
        <st:cadence time="2014-06-05T17:25:09Z" rpm="0" />
        <st:cadence time="2014-06-05T17:25:20Z" rpm="0" />
        <st:cadence time="2014-06-05T17:25:28Z" rpm="0" />
        <st:cadence time="2014-06-05T17:25:35Z" rpm="0" />
        <st:cadence time="2014-06-05T17:25:39Z" rpm="0" />
        <st:cadence time="2014-06-05T17:25:39Z" rpm="0" />
        <st:cadence time="2014-06-05T17:25:49Z" rpm="0" />
        <st:cadence time="2014-06-05T17:25:56Z" rpm="0" />
        <st:cadence time="2014-06-05T17:26:04Z" rpm="0" />
        <st:cadence time="2014-06-05T17:26:12Z" rpm="0" />
        <st:cadence time="2014-06-05T17:26:22Z" rpm="0" />
        <st:cadence time="2014-06-05T17:26:30Z" rpm="0" />
        <st:cadence time="2014-06-05T17:26:38Z" rpm="0" />
        <st:cadence time="2014-06-05T17:26:48Z" rpm="0" />
        <st:cadence time="2014-06-05T17:26:56Z" rpm="0" />
        <st:cadence time="2014-06-05T17:27:06Z" rpm="0" />
        <st:cadence time="2014-06-05T17:27:16Z" rpm="0" />
        <st:cadence time="2014-06-05T17:27:25Z" rpm="0" />
        <st:cadence time="2014-06-05T17:27:33Z" rpm="0" />
        <st:cadence time="2014-06-05T17:27:42Z" rpm="0" />
        <st:cadence time="2014-06-05T17:27:48Z" rpm="0" />
        <st:cadence time="2014-06-05T17:27:57Z" rpm="0" />
        <st:cadence time="2014-06-05T17:28:01Z" rpm="0" />
        <st:cadence time="2014-06-05T17:28:09Z" rpm="0" />
        <st:cadence time="2014-06-05T17:28:15Z" rpm="0" />
        <st:cadence time="2014-06-05T17:28:25Z" rpm="0" />
        <st:cadence time="2014-06-05T17:28:37Z" rpm="0" />
        <st:cadence time="2014-06-05T17:28:46Z" rpm="0" />
        <st:cadence time="2014-06-05T17:28:56Z" rpm="0" />
        <st:cadence time="2014-06-05T17:29:03Z" rpm="0" />
        <st:cadence time="2014-06-05T17:29:10Z" rpm="0" />
        <st:cadence time="2014-06-05T17:29:17Z" rpm="0" />
        <st:cadence time="2014-06-05T17:29:25Z" rpm="0" />
        <st:cadence time="2014-06-05T17:29:33Z" rpm="0" />
        <st:cadence time="2014-06-05T17:29:36Z" rpm="0" />
        <st:cadence time="2014-06-05T17:29:39Z" rpm="0" />
        <st:cadence time="2014-06-05T17:29:47Z" rpm="0" />
        <st:cadence time="2014-06-05T17:29:55Z" rpm="0" />
        <st:cadence time="2014-06-05T17:30:05Z" rpm="0" />
        <st:cadence time="2014-06-05T17:30:14Z" rpm="0" />
        <st:cadence time="2014-06-05T17:30:17Z" rpm="0" />
        <st:cadence time="2014-06-05T17:30:20Z" rpm="0" />
        <st:cadence time="2014-06-05T17:30:29Z" rpm="0" />
        <st:cadence time="2014-06-05T17:30:37Z" rpm="0" />
        <st:cadence time="2014-06-05T17:30:48Z" rpm="0" />
        <st:cadence time="2014-06-05T17:30:55Z" rpm="0" />
        <st:cadence time="2014-06-05T17:31:02Z" rpm="0" />
        <st:cadence time="2014-06-05T17:31:09Z" rpm="0" />
        <st:cadence time="2014-06-05T17:31:18Z" rpm="0" />
        <st:cadence time="2014-06-05T17:31:28Z" rpm="0" />
        <st:cadence time="2014-06-05T17:31:37Z" rpm="0" />
        <st:cadence time="2014-06-05T17:31:46Z" rpm="0" />
        <st:cadence time="2014-06-05T17:31:57Z" rpm="0" />
        <st:cadence time="2014-06-05T17:32:05Z" rpm="0" />
        <st:cadence time="2014-06-05T17:32:21Z" rpm="0" />
        <st:cadence time="2014-06-05T17:32:29Z" rpm="0" />
        <st:cadence time="2014-06-05T17:32:35Z" rpm="0" />
        <st:cadence time="2014-06-05T17:32:45Z" rpm="0" />
        <st:cadence time="2014-06-05T17:32:56Z" rpm="0" />
        <st:cadence time="2014-06-05T17:33:04Z" rpm="0" />
        <st:cadence time="2014-06-05T17:33:09Z" rpm="0" />
        <st:cadence time="2014-06-05T17:33:16Z" rpm="0" />
        <st:cadence time="2014-06-05T17:36:36Z" rpm="0" />
        <st:cadence time="2014-06-05T17:36:36Z" rpm="0" />
        <st:cadence time="2014-06-05T17:36:49Z" rpm="0" />
        <st:cadence time="2014-06-05T17:37:01Z" rpm="0" />
        <st:cadence time="2014-06-05T17:37:11Z" rpm="0" />
        <st:cadence time="2014-06-05T17:37:19Z" rpm="0" />
        <st:cadence time="2014-06-05T17:37:22Z" rpm="0" />
        <st:cadence time="2014-06-05T17:37:25Z" rpm="0" />
        <st:cadence time="2014-06-05T17:37:31Z" rpm="0" />
        <st:cadence time="2014-06-05T17:37:37Z" rpm="0" />
        <st:cadence time="2014-06-05T17:37:45Z" rpm="0" />
        <st:cadence time="2014-06-05T17:37:55Z" rpm="0" />
        <st:cadence time="2014-06-05T17:38:02Z" rpm="0" />
        <st:cadence time="2014-06-05T17:38:07Z" rpm="0" />
        <st:cadence time="2014-06-05T17:38:13Z" rpm="0" />
        <st:cadence time="2014-06-05T17:38:20Z" rpm="0" />
        <st:cadence time="2014-06-05T17:38:29Z" rpm="0" />
        <st:cadence time="2014-06-05T17:38:39Z" rpm="0" />
        <st:cadence time="2014-06-05T17:38:48Z" rpm="0" />
        <st:cadence time="2014-06-05T17:39:00Z" rpm="0" />
        <st:cadence time="2014-06-05T17:39:07Z" rpm="0" />
        <st:cadence time="2014-06-05T17:39:15Z" rpm="0" />
        <st:cadence time="2014-06-05T17:39:26Z" rpm="0" />
        <st:cadence time="2014-06-05T17:39:29Z" rpm="0" />
        <st:cadence time="2014-06-05T17:39:34Z" rpm="0" />
        <st:cadence time="2014-06-05T17:39:41Z" rpm="0" />
        <st:cadence time="2014-06-05T17:39:44Z" rpm="0" />
        <st:cadence time="2014-06-05T17:39:49Z" rpm="0" />
        <st:cadence time="2014-06-05T17:39:55Z" rpm="0" />
        <st:cadence time="2014-06-05T17:39:58Z" rpm="0" />
        <st:cadence time="2014-06-05T17:40:01Z" rpm="0" />
        <st:cadence time="2014-06-05T17:40:06Z" rpm="0" />
        <st:cadence time="2014-06-05T17:40:12Z" rpm="0" />
        <st:cadence time="2014-06-05T17:40:18Z" rpm="0" />
        <st:cadence time="2014-06-05T17:40:21Z" rpm="0" />
        <st:cadence time="2014-06-05T17:40:27Z" rpm="0" />
        <st:cadence time="2014-06-05T17:40:33Z" rpm="0" />
        <st:cadence time="2014-06-05T17:40:38Z" rpm="0" />
        <st:cadence time="2014-06-05T17:40:43Z" rpm="0" />
        <st:cadence time="2014-06-05T17:40:49Z" rpm="0" />
        <st:cadence time="2014-06-05T17:40:54Z" rpm="0" />
        <st:cadence time="2014-06-05T17:41:02Z" rpm="0" />
        <st:cadence time="2014-06-05T17:41:15Z" rpm="0" />
        <st:cadence time="2014-06-05T17:41:20Z" rpm="0" />
        <st:cadence time="2014-06-05T17:41:23Z" rpm="0" />
        <st:cadence time="2014-06-05T17:41:30Z" rpm="0" />
        <st:cadence time="2014-06-05T17:41:36Z" rpm="0" />
        <st:cadence time="2014-06-05T17:41:36Z" rpm="0" />
        <st:cadence time="2014-06-05T17:42:05Z" rpm="0" />
        <st:cadence time="2014-06-05T17:42:05Z" rpm="0" />
        <st:cadence time="2014-06-05T17:42:13Z" rpm="0" />
        <st:cadence time="2014-06-05T17:42:24Z" rpm="0" />
        <st:cadence time="2014-06-05T17:42:32Z" rpm="0" />
        <st:cadence time="2014-06-05T17:42:39Z" rpm="0" />
        <st:cadence time="2014-06-05T17:42:50Z" rpm="0" />
        <st:cadence time="2014-06-05T17:42:58Z" rpm="0" />
        <st:cadence time="2014-06-05T17:43:05Z" rpm="0" />
        <st:cadence time="2014-06-05T17:43:12Z" rpm="0" />
        <st:cadence time="2014-06-05T17:43:21Z" rpm="0" />
        <st:cadence time="2014-06-05T17:43:28Z" rpm="0" />
        <st:cadence time="2014-06-05T17:43:33Z" rpm="0" />
        <st:cadence time="2014-06-05T17:43:39Z" rpm="0" />
        <st:cadence time="2014-06-05T17:43:45Z" rpm="0" />
        <st:cadence time="2014-06-05T17:43:50Z" rpm="0" />
        <st:cadence time="2014-06-05T17:43:57Z" rpm="0" />
        <st:cadence time="2014-06-05T17:44:03Z" rpm="0" />
        <st:cadence time="2014-06-05T17:44:08Z" rpm="0" />
        <st:cadence time="2014-06-05T17:44:16Z" rpm="0" />
        <st:cadence time="2014-06-05T17:44:22Z" rpm="0" />
        <st:cadence time="2014-06-05T17:44:30Z" rpm="0" />
        <st:cadence time="2014-06-05T17:44:37Z" rpm="0" />
        <st:cadence time="2014-06-05T17:45:19Z" rpm="0" />
        <st:cadence time="2014-06-05T17:45:19Z" rpm="0" />
        <st:cadence time="2014-06-05T17:45:27Z" rpm="0" />
        <st:cadence time="2014-06-05T17:45:34Z" rpm="0" />
        <st:cadence time="2014-06-05T17:45:37Z" rpm="0" />
        <st:cadence time="2014-06-05T17:45:37Z" rpm="0" />
        <st:cadence time="2014-06-05T17:45:44Z" rpm="0" />
        <st:cadence time="2014-06-05T17:45:55Z" rpm="0" />
        <st:cadence time="2014-06-05T17:46:03Z" rpm="0" />
        <st:cadence time="2014-06-05T17:46:10Z" rpm="0" />
        <st:cadence time="2014-06-05T17:46:16Z" rpm="0" />
        <st:cadence time="2014-06-05T17:46:22Z" rpm="0" />
        <st:cadence time="2014-06-05T17:46:27Z" rpm="0" />
        <st:cadence time="2014-06-05T17:46:36Z" rpm="0" />
        <st:cadence time="2014-06-05T17:46:45Z" rpm="0" />
        <st:cadence time="2014-06-05T17:46:48Z" rpm="0" />
        <st:cadence time="2014-06-05T17:46:54Z" rpm="0" />
        <st:cadence time="2014-06-05T17:46:57Z" rpm="0" />
        <st:cadence time="2014-06-05T17:48:33Z" rpm="0" />
        <st:cadence time="2014-06-05T17:48:40Z" rpm="0" />
        <st:cadence time="2014-06-05T17:48:40Z" rpm="0" />
        <st:cadence time="2014-06-05T17:49:45Z" rpm="0" />
        <st:cadence time="2014-06-05T17:49:45Z" rpm="0" />
        <st:cadence time="2014-06-05T17:49:51Z" rpm="0" />
        <st:cadence time="2014-06-05T17:49:54Z" rpm="0" />
        <st:cadence time="2014-06-05T17:50:00Z" rpm="0" />
        <st:cadence time="2014-06-05T17:50:05Z" rpm="0" />
        <st:cadence time="2014-06-05T17:50:05Z" rpm="0" />
        <st:cadence time="2014-06-05T17:50:08Z" rpm="0" />
        <st:cadence time="2014-06-05T17:50:13Z" rpm="0" />
        <st:cadence time="2014-06-05T17:51:08Z" rpm="0" />
        <st:cadence time="2014-06-05T17:51:08Z" rpm="0" />
        <st:cadence time="2014-06-05T17:51:13Z" rpm="0" />
        <st:cadence time="2014-06-05T17:51:21Z" rpm="0" />
        <st:cadence time="2014-06-05T17:51:30Z" rpm="0" />
        <st:cadence time="2014-06-05T17:51:32Z" rpm="0" />
        <st:cadence time="2014-06-05T17:51:38Z" rpm="0" />
        <st:cadence time="2014-06-05T17:51:50Z" rpm="0" />
        <st:cadence time="2014-06-05T17:51:50Z" rpm="0" />
        <st:cadence time="2014-06-05T17:51:58Z" rpm="0" />
        <st:cadence time="2014-06-05T17:52:01Z" rpm="0" />
        <st:cadence time="2014-06-05T17:52:07Z" rpm="0" />
        <st:cadence time="2014-06-05T17:52:23Z" rpm="0" />
        <st:cadence time="2014-06-05T17:52:23Z" rpm="0" />
        <st:cadence time="2014-06-05T17:52:28Z" rpm="0" />
        <st:cadence time="2014-06-05T17:52:33Z" rpm="0" />
        <st:cadence time="2014-06-05T17:52:35Z" rpm="0" />
        <st:cadence time="2014-06-05T17:52:45Z" rpm="0" />
        <st:cadence time="2014-06-05T17:53:06Z" rpm="0" />
        <st:cadence time="2014-06-05T17:53:13Z" rpm="0" />
        <st:cadence time="2014-06-05T17:53:22Z" rpm="0" />
        <st:cadence time="2014-06-05T17:53:30Z" rpm="0" />
        <st:cadence time="2014-06-05T17:53:33Z" rpm="0" />
        <st:cadence time="2014-06-05T17:54:06Z" rpm="0" />
        <st:cadence time="2014-06-05T17:55:27Z" rpm="0" />
        <st:cadence time="2014-06-05T17:55:27Z" rpm="0" />
        <st:cadence time="2014-06-05T17:55:35Z" rpm="0" />
        <st:cadence time="2014-06-05T17:55:35Z" rpm="0" />
        <st:cadence time="2014-06-05T17:56:09Z" rpm="0" />
        <st:cadence time="2014-06-05T17:56:09Z" rpm="0" />
        <st:cadence time="2014-06-05T17:56:12Z" rpm="0" />
        <st:cadence time="2014-06-05T17:56:19Z" rpm="0" />
        <st:cadence time="2014-06-05T17:56:23Z" rpm="0" />
        <st:cadence time="2014-06-05T17:56:23Z" rpm="0" />
        <st:cadence time="2014-06-05T17:56:33Z" rpm="0" />
        <st:cadence time="2014-06-05T17:56:46Z" rpm="0" />
        <st:cadence time="2014-06-05T17:56:59Z" rpm="0" />
        <st:cadence time="2014-06-05T17:57:06Z" rpm="0" />
        <st:cadence time="2014-06-05T17:57:09Z" rpm="0" />
        <st:cadence time="2014-06-05T17:57:09Z" rpm="0" />
        <st:cadence time="2014-06-05T17:57:15Z" rpm="0" />
        <st:cadence time="2014-06-05T17:57:23Z" rpm="0" />
        <st:cadence time="2014-06-05T17:57:32Z" rpm="0" />
        <st:cadence time="2014-06-05T17:57:42Z" rpm="0" />
        <st:cadence time="2014-06-05T17:57:55Z" rpm="0" />
        <st:cadence time="2014-06-05T17:57:59Z" rpm="0" />
        <st:cadence time="2014-06-05T17:58:07Z" rpm="0" />
        <st:cadence time="2014-06-05T17:58:09Z" rpm="0" />
        <st:cadence time="2014-06-05T17:58:09Z" rpm="0" />
        <st:cadence time="2014-06-05T17:58:14Z" rpm="0" />
        <st:cadence time="2014-06-05T17:58:19Z" rpm="0" />
        <st:cadence time="2014-06-05T17:58:25Z" rpm="0" />
        <st:cadence time="2014-06-05T17:58:29Z" rpm="0" />
        <st:cadence time="2014-06-05T17:58:34Z" rpm="0" />
        <st:cadence time="2014-06-05T17:58:36Z" rpm="0" />
        <st:cadence time="2014-06-05T17:58:36Z" rpm="0" />
        <st:cadence time="2014-06-05T17:58:42Z" rpm="0" />
        <st:cadence time="2014-06-05T17:58:49Z" rpm="0" />
        <st:cadence time="2014-06-05T17:58:55Z" rpm="0" />
        <st:cadence time="2014-06-05T17:59:01Z" rpm="0" />
        <st:cadence time="2014-06-05T17:59:07Z" rpm="0" />
        <st:cadence time="2014-06-05T17:59:13Z" rpm="0" />
        <st:cadence time="2014-06-05T17:59:20Z" rpm="0" />
        <st:cadence time="2014-06-05T17:59:26Z" rpm="0" />
        <st:cadence time="2014-06-05T17:59:32Z" rpm="0" />
        <st:cadence time="2014-06-05T17:59:41Z" rpm="0" />
        <st:cadence time="2014-06-05T17:59:49Z" rpm="0" />
        <st:cadence time="2014-06-05T17:59:55Z" rpm="0" />
        <st:cadence time="2014-06-05T18:00:01Z" rpm="0" />
        <st:cadence time="2014-06-05T18:00:07Z" rpm="0" />
        <st:cadence time="2014-06-05T18:00:13Z" rpm="0" />
        <st:cadence time="2014-06-05T18:00:19Z" rpm="0" />
        <st:cadence time="2014-06-05T18:00:25Z" rpm="0" />
        <st:cadence time="2014-06-05T18:00:30Z" rpm="0" />
        <st:cadence time="2014-06-05T18:00:36Z" rpm="0" />
        <st:cadence time="2014-06-05T18:00:41Z" rpm="0" />
        <st:cadence time="2014-06-05T18:00:47Z" rpm="0" />
        <st:cadence time="2014-06-05T18:00:54Z" rpm="0" />
        <st:cadence time="2014-06-05T18:01:01Z" rpm="0" />
        <st:cadence time="2014-06-05T18:01:08Z" rpm="0" />
        <st:cadence time="2014-06-05T18:01:14Z" rpm="0" />
        <st:cadence time="2014-06-05T18:01:20Z" rpm="0" />
        <st:cadence time="2014-06-05T18:01:26Z" rpm="0" />
        <st:cadence time="2014-06-05T18:01:31Z" rpm="0" />
        <st:cadence time="2014-06-05T18:01:37Z" rpm="0" />
        <st:cadence time="2014-06-05T18:01:42Z" rpm="0" />
        <st:cadence time="2014-06-05T18:01:48Z" rpm="0" />
        <st:cadence time="2014-06-05T18:01:54Z" rpm="0" />
        <st:cadence time="2014-06-05T18:01:59Z" rpm="0" />
        <st:cadence time="2014-06-05T18:02:04Z" rpm="0" />
        <st:cadence time="2014-06-05T18:02:10Z" rpm="0" />
        <st:cadence time="2014-06-05T18:02:15Z" rpm="0" />
        <st:cadence time="2014-06-05T18:02:20Z" rpm="0" />
        <st:cadence time="2014-06-05T18:02:26Z" rpm="0" />
        <st:cadence time="2014-06-05T18:02:31Z" rpm="0" />
        <st:cadence time="2014-06-05T18:02:37Z" rpm="0" />
        <st:cadence time="2014-06-05T18:02:42Z" rpm="0" />
        <st:cadence time="2014-06-05T18:02:48Z" rpm="0" />
        <st:cadence time="2014-06-05T18:02:54Z" rpm="0" />
        <st:cadence time="2014-06-05T18:03:03Z" rpm="0" />
        <st:cadence time="2014-06-05T18:03:05Z" rpm="0" />
        <st:cadence time="2014-06-05T18:03:10Z" rpm="0" />
        <st:cadence time="2014-06-05T18:03:38Z" rpm="0" />
        <st:cadence time="2014-06-05T18:03:38Z" rpm="0" />
        <st:cadence time="2014-06-05T18:03:44Z" rpm="0" />
        <st:cadence time="2014-06-05T18:03:50Z" rpm="0" />
        <st:cadence time="2014-06-05T18:03:53Z" rpm="0" />
        <st:cadence time="2014-06-05T18:03:56Z" rpm="0" />
        <st:cadence time="2014-06-05T18:03:59Z" rpm="0" />
        <st:cadence time="2014-06-05T18:04:04Z" rpm="0" />
        <st:cadence time="2014-06-05T18:04:10Z" rpm="0" />
        <st:cadence time="2014-06-05T18:04:16Z" rpm="0" />
        <st:cadence time="2014-06-05T18:04:22Z" rpm="0" />
        <st:cadence time="2014-06-05T18:04:28Z" rpm="0" />
        <st:cadence time="2014-06-05T18:04:33Z" rpm="0" />
        <st:cadence time="2014-06-05T18:04:38Z" rpm="0" />
        <st:cadence time="2014-06-05T18:04:44Z" rpm="0" />
        <st:cadence time="2014-06-05T18:04:49Z" rpm="0" />
        <st:cadence time="2014-06-05T18:04:55Z" rpm="0" />
        <st:cadence time="2014-06-05T18:05:01Z" rpm="0" />
        <st:cadence time="2014-06-05T18:05:07Z" rpm="0" />
        <st:cadence time="2014-06-05T18:05:14Z" rpm="0" />
        <st:cadence time="2014-06-05T18:05:21Z" rpm="0" />
        <st:cadence time="2014-06-05T18:05:27Z" rpm="0" />
        <st:cadence time="2014-06-05T18:05:34Z" rpm="0" />
        <st:cadence time="2014-06-05T18:05:39Z" rpm="0" />
        <st:cadence time="2014-06-05T18:05:42Z" rpm="0" />
        <st:cadence time="2014-06-05T18:05:49Z" rpm="0" />
        <st:cadence time="2014-06-05T18:05:54Z" rpm="0" />
        <st:cadence time="2014-06-05T18:06:00Z" rpm="0" />
        <st:cadence time="2014-06-05T18:06:03Z" rpm="0" />
        <st:cadence time="2014-06-05T18:06:06Z" rpm="0" />
        <st:cadence time="2014-06-05T18:06:11Z" rpm="0" />
        <st:cadence time="2014-06-05T18:06:17Z" rpm="0" />
        <st:cadence time="2014-06-05T18:06:23Z" rpm="0" />
        <st:cadence time="2014-06-05T18:06:30Z" rpm="0" />
        <st:cadence time="2014-06-05T18:06:35Z" rpm="0" />
        <st:cadence time="2014-06-05T18:06:41Z" rpm="0" />
        <st:cadence time="2014-06-05T18:06:46Z" rpm="0" />
        <st:cadence time="2014-06-05T18:06:52Z" rpm="0" />
        <st:cadence time="2014-06-05T18:06:57Z" rpm="0" />
        <st:cadence time="2014-06-05T18:07:03Z" rpm="0" />
        <st:cadence time="2014-06-05T18:07:08Z" rpm="0" />
        <st:cadence time="2014-06-05T18:07:16Z" rpm="0" />
        <st:cadence time="2014-06-05T18:07:22Z" rpm="0" />
        <st:cadence time="2014-06-05T18:07:25Z" rpm="0" />
        <st:cadence time="2014-06-05T18:07:31Z" rpm="0" />
        <st:cadence time="2014-06-05T18:07:37Z" rpm="0" />
        <st:cadence time="2014-06-05T18:07:43Z" rpm="0" />
        <st:cadence time="2014-06-05T18:07:49Z" rpm="0" />
        <st:cadence time="2014-06-05T18:07:55Z" rpm="0" />
        <st:cadence time="2014-06-05T18:08:00Z" rpm="0" />
        <st:cadence time="2014-06-05T18:08:05Z" rpm="0" />
        <st:cadence time="2014-06-05T18:08:12Z" rpm="0" />
        <st:cadence time="2014-06-05T18:08:18Z" rpm="0" />
        <st:cadence time="2014-06-05T18:08:21Z" rpm="0" />
        <st:cadence time="2014-06-05T18:08:26Z" rpm="0" />
        <st:cadence time="2014-06-05T18:08:32Z" rpm="0" />
        <st:cadence time="2014-06-05T18:08:37Z" rpm="0" />
        <st:cadence time="2014-06-05T18:08:43Z" rpm="0" />
        <st:cadence time="2014-06-05T18:08:49Z" rpm="0" />
        <st:cadence time="2014-06-05T18:08:55Z" rpm="0" />
        <st:cadence time="2014-06-05T18:09:01Z" rpm="0" />
        <st:cadence time="2014-06-05T18:09:07Z" rpm="0" />
        <st:cadence time="2014-06-05T18:09:13Z" rpm="0" />
        <st:cadence time="2014-06-05T18:09:19Z" rpm="0" />
        <st:cadence time="2014-06-05T18:09:25Z" rpm="0" />
        <st:cadence time="2014-06-05T18:09:32Z" rpm="0" />
        <st:cadence time="2014-06-05T18:09:37Z" rpm="0" />
        <st:cadence time="2014-06-05T18:09:43Z" rpm="0" />
        <st:cadence time="2014-06-05T18:09:49Z" rpm="0" />
        <st:cadence time="2014-06-05T18:09:57Z" rpm="0" />
        <st:cadence time="2014-06-05T18:10:04Z" rpm="0" />
        <st:cadence time="2014-06-05T18:10:04Z" rpm="0" />
        <st:cadence time="2014-06-05T18:12:10Z" rpm="0" />
        <st:cadence time="2014-06-05T18:12:10Z" rpm="0" />
        <st:cadence time="2014-06-05T18:12:17Z" rpm="0" />
        <st:cadence time="2014-06-05T18:12:27Z" rpm="0" />
        <st:cadence time="2014-06-05T18:12:33Z" rpm="0" />
        <st:cadence time="2014-06-05T18:12:40Z" rpm="0" />
        <st:cadence time="2014-06-05T18:12:47Z" rpm="0" />
        <st:cadence time="2014-06-05T18:12:55Z" rpm="0" />
        <st:cadence time="2014-06-05T18:13:02Z" rpm="0" />
        <st:cadence time="2014-06-05T18:13:10Z" rpm="0" />
        <st:cadence time="2014-06-05T18:13:15Z" rpm="0" />
        <st:cadence time="2014-06-05T18:13:24Z" rpm="0" />
        <st:cadence time="2014-06-05T18:13:30Z" rpm="0" />
        <st:cadence time="2014-06-05T18:13:37Z" rpm="0" />
        <st:cadence time="2014-06-05T18:13:48Z" rpm="0" />
        <st:cadence time="2014-06-05T18:13:56Z" rpm="0" />
        <st:cadence time="2014-06-05T18:14:01Z" rpm="0" />
        <st:cadence time="2014-06-05T18:14:07Z" rpm="0" />
        <st:cadence time="2014-06-05T18:14:14Z" rpm="0" />
        <st:cadence time="2014-06-05T18:14:20Z" rpm="0" />
        <st:cadence time="2014-06-05T18:14:28Z" rpm="0" />
        <st:cadence time="2014-06-05T18:14:31Z" rpm="0" />
        <st:cadence time="2014-06-05T18:14:37Z" rpm="0" />
        <st:cadence time="2014-06-05T18:14:43Z" rpm="0" />
        <st:cadence time="2014-06-05T18:14:48Z" rpm="0" />
        <st:cadence time="2014-06-05T18:14:54Z" rpm="0" />
        <st:cadence time="2014-06-05T18:14:59Z" rpm="0" />
        <st:cadence time="2014-06-05T18:15:02Z" rpm="0" />
        <st:cadence time="2014-06-05T18:15:07Z" rpm="0" />
        <st:cadence time="2014-06-05T18:15:13Z" rpm="0" />
        <st:cadence time="2014-06-05T18:15:19Z" rpm="0" />
        <st:cadence time="2014-06-05T18:15:25Z" rpm="0" />
        <st:cadence time="2014-06-05T18:15:31Z" rpm="0" />
        <st:cadence time="2014-06-05T18:15:31Z" rpm="0" />
        <st:cadence time="2014-06-05T18:15:49Z" rpm="0" />
        <st:cadence time="2014-06-05T18:15:49Z" rpm="0" />
        <st:cadence time="2014-06-05T18:15:57Z" rpm="0" />
        <st:cadence time="2014-06-05T18:16:05Z" rpm="0" />
        <st:cadence time="2014-06-05T18:16:10Z" rpm="0" />
        <st:cadence time="2014-06-05T18:16:10Z" rpm="0" />
        <st:cadence time="2014-06-05T18:16:15Z" rpm="0" />
        <st:cadence time="2014-06-05T18:16:21Z" rpm="0" />
        <st:cadence time="2014-06-05T18:16:21Z" rpm="0" />
        <st:cadence time="2014-06-05T18:16:29Z" rpm="0" />
        <st:cadence time="2014-06-05T18:16:29Z" rpm="0" />
        <st:cadence time="2014-06-05T18:16:30Z" rpm="0" />
        <st:cadence time="2014-06-05T18:16:36Z" rpm="0" />
        <st:cadence time="2014-06-05T18:16:40Z" rpm="0" />
        <st:cadence time="2014-06-05T18:16:40Z" rpm="0" />
        <st:cadence time="2014-06-05T18:16:46Z" rpm="0" />
        <st:cadence time="2014-06-05T18:16:52Z" rpm="0" />
        <st:cadence time="2014-06-05T18:16:53Z" rpm="0" />
        <st:cadence time="2014-06-05T18:16:59Z" rpm="0" />
        <st:cadence time="2014-06-05T18:17:13Z" rpm="0" />
        <st:cadence time="2014-06-05T18:17:13Z" rpm="0" />
        <st:cadence time="2014-06-05T18:17:17Z" rpm="0" />
        <st:cadence time="2014-06-05T18:17:22Z" rpm="0" />
        <st:cadence time="2014-06-05T18:17:26Z" rpm="0" />
        <st:cadence time="2014-06-05T18:17:26Z" rpm="0" />
        <st:cadence time="2014-06-05T18:17:32Z" rpm="0" />
        <st:cadence time="2014-06-05T18:17:39Z" rpm="0" />
        <st:cadence time="2014-06-05T18:17:45Z" rpm="0" />
        <st:cadence time="2014-06-05T18:17:45Z" rpm="0" />
        <st:cadence time="2014-06-05T18:18:16Z" rpm="0" />
        <st:cadence time="2014-06-05T18:18:16Z" rpm="0" />
        <st:cadence time="2014-06-05T18:18:26Z" rpm="0" />
        <st:cadence time="2014-06-05T18:18:44Z" rpm="0" />
        <st:cadence time="2014-06-05T18:18:49Z" rpm="0" />
        <st:cadence time="2014-06-05T18:18:54Z" rpm="0" />
        <st:cadence time="2014-06-05T18:19:00Z" rpm="0" />
        <st:cadence time="2014-06-05T18:19:06Z" rpm="0" />
        <st:cadence time="2014-06-05T18:19:12Z" rpm="0" />
        <st:cadence time="2014-06-05T18:19:18Z" rpm="0" />
        <st:cadence time="2014-06-05T18:19:25Z" rpm="0" />
        <st:cadence time="2014-06-05T18:19:33Z" rpm="0" />
        <st:cadence time="2014-06-05T18:19:42Z" rpm="0" />
        <st:cadence time="2014-06-05T18:19:46Z" rpm="0" />
        <st:cadence time="2014-06-05T18:19:50Z" rpm="0" />
        <st:cadence time="2014-06-05T18:19:55Z" rpm="0" />
        <st:cadence time="2014-06-05T18:20:01Z" rpm="0" />
        <st:cadence time="2014-06-05T18:20:08Z" rpm="0" />
        <st:cadence time="2014-06-05T18:20:13Z" rpm="0" />
        <st:cadence time="2014-06-05T18:20:19Z" rpm="0" />
        <st:cadence time="2014-06-05T18:20:44Z" rpm="0" />
        <st:cadence time="2014-06-05T18:20:44Z" rpm="0" />
        <st:cadence time="2014-06-05T18:20:50Z" rpm="0" />
        <st:cadence time="2014-06-05T18:20:53Z" rpm="0" />
        <st:cadence time="2014-06-05T18:21:00Z" rpm="0" />
        <st:cadence time="2014-06-05T18:21:02Z" rpm="0" />
        <st:cadence time="2014-06-05T18:21:02Z" rpm="0" />
        <st:cadence time="2014-06-05T18:21:10Z" rpm="0" />
        <st:cadence time="2014-06-05T18:21:16Z" rpm="0" />
        <st:cadence time="2014-06-05T18:21:20Z" rpm="0" />
        <st:cadence time="2014-06-05T18:21:26Z" rpm="0" />
        <st:cadence time="2014-06-05T18:21:30Z" rpm="0" />
        <st:cadence time="2014-06-05T18:21:30Z" rpm="0" />
        <st:cadence time="2014-06-05T18:21:31Z" rpm="0" />
        <st:cadence time="2014-06-05T18:21:36Z" rpm="0" />
        <st:cadence time="2014-06-05T18:21:40Z" rpm="0" />
        <st:cadence time="2014-06-05T18:21:40Z" rpm="0" />
        <st:cadence time="2014-06-05T18:21:45Z" rpm="0" />
        <st:cadence time="2014-06-05T18:21:45Z" rpm="0" />
        <st:cadence time="2014-06-05T18:21:48Z" rpm="0" />
        <st:cadence time="2014-06-05T18:21:48Z" rpm="0" />
        <st:cadence time="2014-06-05T18:21:51Z" rpm="0" />
        <st:cadence time="2014-06-05T18:21:57Z" rpm="0" />
        <st:cadence time="2014-06-05T18:22:00Z" rpm="0" />
        <st:cadence time="2014-06-05T18:22:00Z" rpm="0" />
        <st:cadence time="2014-06-05T18:22:06Z" rpm="0" />
        <st:cadence time="2014-06-05T18:22:11Z" rpm="0" />
        <st:cadence time="2014-06-05T18:22:17Z" rpm="0" />
        <st:cadence time="2014-06-05T18:22:24Z" rpm="0" />
        <st:cadence time="2014-06-05T18:22:33Z" rpm="0" />
        <st:cadence time="2014-06-05T18:22:41Z" rpm="0" />
        <st:cadence time="2014-06-05T18:22:48Z" rpm="0" />
        <st:cadence time="2014-06-05T18:22:54Z" rpm="0" />
        <st:cadence time="2014-06-05T18:23:01Z" rpm="0" />
        <st:cadence time="2014-06-05T18:23:08Z" rpm="0" />
        <st:cadence time="2014-06-05T18:23:13Z" rpm="0" />
        <st:cadence time="2014-06-05T18:23:18Z" rpm="0" />
        <st:cadence time="2014-06-05T18:23:27Z" rpm="0" />
        <st:cadence time="2014-06-05T18:23:34Z" rpm="0" />
        <st:cadence time="2014-06-05T18:23:39Z" rpm="0" />
        <st:cadence time="2014-06-05T18:23:45Z" rpm="0" />
        <st:cadence time="2014-06-05T18:23:53Z" rpm="0" />
        <st:cadence time="2014-06-05T18:24:00Z" rpm="0" />
        <st:cadence time="2014-06-05T18:24:06Z" rpm="0" />
        <st:cadence time="2014-06-05T18:24:12Z" rpm="0" />
        <st:cadence time="2014-06-05T18:24:19Z" rpm="0" />
        <st:cadence time="2014-06-05T18:24:25Z" rpm="0" />
        <st:cadence time="2014-06-05T18:24:30Z" rpm="0" />
        <st:cadence time="2014-06-05T18:24:37Z" rpm="0" />
        <st:cadence time="2014-06-05T18:24:43Z" rpm="0" />
        <st:cadence time="2014-06-05T18:24:49Z" rpm="0" />
        <st:cadence time="2014-06-05T18:24:57Z" rpm="0" />
        <st:cadence time="2014-06-05T18:25:00Z" rpm="0" />
        <st:cadence time="2014-06-05T18:25:05Z" rpm="0" />
        <st:cadence time="2014-06-05T18:29:37Z" rpm="0" />
        <st:cadence time="2014-06-05T18:29:47Z" rpm="0" />
        <st:cadence time="2014-06-05T18:29:48Z" rpm="0" />
      </st:cadenceTrack>
    </st:activity>
  </extensions>
</gpx>
